Observation Tools

Tulip poplar Photo courtesy of ©2005 Louis-M. Landry.

Tulip poplar (Liriodendron tulipifera)


Also Known As: Tulip tree
Plant Family: Magnolia (Magnoliaceae)
Project BudBurst Plant Group: Deciduous Trees and Shrubs

Identification Hints: The leaves of the tulip poplar have a unique star-like or even tulip like shape and showy orange-yellow flowers similar in shape to tulips.

Did you Know? First Nations used the inner bark medicinally as worming medicine, antiarthritic, cough syrup and cholera remedy. Pioneers hollowed out the massive trunk to make a long, lightweight canoe. One of the chief commercial hardwoods, Tulip Poplar is used for furniture, as well as for crates, toys, musical instruments, and pulpwood. This is a favorite nesting tree for birds and the flowers attract hummingbirds.


Live Map for Tulip poplar

Other years available for viewing:

Below you can view all observations that have been reported in for Tulip poplar (If the map below is empty then there have not been any observations reported.)

Use the navigation buttons on the left to zoom in/out and pan around. Click on each place marker to get detail information about that observation.

Leaf/Needles/Stalk = Leaf/Needles/Stalk Flower = Flower Pollen = Pollen Fruiting = Fruiting Color = Color

--Back to Top--

close help window button

The table below displays all the data that has been submitted to Project BudBurst. By default, the data is sorted by the date on which the phenophase occurred. Clicking the up and down arrows next to each column name allows you to sort on any value. If there have been more than 10 observations submitted, you can choose how many to display at a time using the "Show __ entries" control. You can also page through the data using the previous and next buttons at the bottom right of the table.

The Search box allows you to search all of the data. Searching by date, species, phenophase, etc. is easy—just start typing and the table will immediately change to contain only observations that contain your search phrase. Do you want to see only 2012 observations? Just type "2012" in the search box. Only want to see maples? Enter "Acer." You can combine searches, too! Searching for "acer 2012" will narrow your results to only the maples that were observed in 2012 (assuming that any observations exist, of course).

Once you have your results in the order desired, you can use any of the buttons above the search box to copy the results to the clipboard; save them as a text, or spreadsheet; or even print them from your browser!

Observational data for Tulip poplar:

help button
Date Contributor Common Name Species Phenophase Latitude Longitude Obs#
Sat Feb 16 00:00:00 GMT 2008 rrpgsp Tulip poplar Liriodendron tulipifera First Leaf 33.498000000000000 -86.777900000000000 118
Tue Mar 11 00:00:00 GMT 2008 mastanback Tulip poplar Liriodendron tulipifera First Leaf 35.488800000000000 -80.827500000000000 493
Mon Mar 10 00:00:00 GMT 2008 DRogers@iglou.com Tulip poplar Liriodendron tulipifera First Leaf 38.336100000000000 -85.627500000000000 499
Mon Mar 24 00:00:00 GMT 2008 naturalist Tulip poplar Liriodendron tulipifera First Leaf 35.220000000000000 -80.800000000000000 916
Fri Mar 28 00:00:00 GMT 2008 drhartel Tulip poplar Liriodendron tulipifera First Leaf 34.053600000000000 -83.123100000000000 1005
Sat Mar 29 00:00:00 GMT 2008 aboddie Tulip poplar Liriodendron tulipifera First Leaf 35.098600000000000 -89.783700000000000 1082
Mon Mar 31 00:00:00 GMT 2008 anonymous Tulip poplar Liriodendron tulipifera First Leaf 39.066800000000000 -76.996900000000000 1280
Thu Mar 20 00:00:00 GMT 2008 marshdoc Tulip poplar Liriodendron tulipifera First Leaf 34.263100000000000 -83.744700000000000 1317
Tue Apr 08 00:00:00 GMT 2008 Hillersouth Tulip poplar Liriodendron tulipifera First Leaf 34.785200000000000 -83.933300000000000 1366
Sat Apr 05 00:00:00 GMT 2008 gmdwilcox Tulip poplar Liriodendron tulipifera First Leaf 39.340600000000000 -85.203900000000000 1381
Thu Apr 10 00:00:00 GMT 2008 pepperoni99 Tulip poplar Liriodendron tulipifera First Leaf 38.184700000000000 -84.625500000000000 1504
Thu Apr 10 00:00:00 GMT 2008 Yvonne Orkin Tulip poplar Liriodendron tulipifera First Leaf 38.953900000000000 -75.933100000000000 1677
Thu Mar 27 00:00:00 GMT 2008 anonymous Tulip poplar Liriodendron tulipifera First Leaf 32.239000000000000 -81.451100000000000 2065
Wed Apr 16 00:00:00 GMT 2008 anonymous Tulip poplar Liriodendron tulipifera All Leaves Unfolded 32.239000000000000 -81.451100000000000 2066
Sat Apr 19 00:00:00 GMT 2008 anonymous Tulip poplar Liriodendron tulipifera First Leaf 32.239000000000000 -81.451000000000000 2067
Sat Apr 19 00:00:00 GMT 2008 anonymous Tulip poplar Liriodendron tulipifera First Leaf 32.239000000000000 -81.451000000000000 2068
Fri Mar 07 00:00:00 GMT 2008 clowerpower86 Tulip poplar Liriodendron tulipifera First Leaf 31.559400000000000 -81.595700000000000 2140
Fri Mar 21 00:00:00 GMT 2008 clowerpower86 Tulip poplar Liriodendron tulipifera All Leaves Unfolded 31.559400000000000 -81.595700000000000 2141
Thu Apr 17 00:00:00 GMT 2008 Jingles Tulip poplar Liriodendron tulipifera First Leaf 39.826100000000000 -75.615600000000000 2303
Fri Apr 25 00:00:00 GMT 2008 naturalist Tulip poplar Liriodendron tulipifera All Leaves Unfolded 35.220000000000000 -80.800000000000000 2440
Thu Apr 24 00:00:00 GMT 2008 IlexAcer Tulip poplar Liriodendron tulipifera First Leaf 42.414800000000000 -71.215700000000000 2608
Sun May 04 00:00:00 GMT 2008 Ilse Tulip poplar Liriodendron tulipifera First Leaf 41.582400000000000 -73.901800000000000 2803
Wed Apr 23 00:00:00 GMT 2008 leonard Tulip poplar Liriodendron tulipifera First Leaf 39.984500000000000 -81.150000000000000 3126
Thu Apr 10 00:00:00 GMT 2008 anonymous Tulip poplar Liriodendron tulipifera First Leaf 38.926500000000000 -77.339500000000000 3577
Wed Apr 16 00:00:00 GMT 2008 brroookexd Tulip poplar Liriodendron tulipifera First Leaf 41.138000000000000 -81.864000000000000 3649
Sat Apr 26 00:00:00 GMT 2008 brroookexd Tulip poplar Liriodendron tulipifera All Leaves Unfolded 41.138000000000000 -81.864000000000000 3650
Wed May 14 00:00:00 GMT 2008 brroookexd Tulip poplar Liriodendron tulipifera First Flower 41.138000000000000 -81.864000000000000 3651
Mon May 19 00:00:00 GMT 2008 brroookexd Tulip poplar Liriodendron tulipifera Full Flower 41.138000000000000 -81.864000000000000 3652
Thu May 29 00:00:00 GMT 2008 brroookexd Tulip poplar Liriodendron tulipifera End of Flowering 41.138000000000000 -81.864000000000000 3653
Mon Jun 02 00:00:00 GMT 2008 brroookexd Tulip poplar Liriodendron tulipifera First Ripe Fruit 41.138000000000000 -81.864000000000000 3654
Mon May 05 00:00:00 GMT 2008 cpartain Tulip poplar Liriodendron tulipifera First Flower 39.362200000000000 -76.680500000000000 3805
Mon May 26 00:00:00 GMT 2008 cpartain Tulip poplar Liriodendron tulipifera Full Flower 39.362200000000000 -76.680500000000000 3806
Thu Apr 10 00:00:00 GMT 2008 Jingles Tulip poplar Liriodendron tulipifera All Leaves Unfolded 39.826100000000000 -75.615600000000000 3856
Fri May 16 00:00:00 GMT 2008 Jingles Tulip poplar Liriodendron tulipifera First Flower 39.826100000000000 -75.615600000000000 3857
Mon May 05 00:00:00 GMT 2008 SusannahPrindle Tulip poplar Liriodendron tulipifera First Flower 39.096700000000000 -77.023900000000000 4620
Sun Apr 20 00:00:00 GMT 2008 anonymous Tulip poplar Liriodendron tulipifera First Leaf 40.705300000000000 -79.697100000000000 4843
Mon Apr 28 00:00:00 GMT 2008 anonymous Tulip poplar Liriodendron tulipifera All Leaves Unfolded 40.705300000000000 -79.697100000000000 4844
Thu May 29 00:00:00 GMT 2008 anonymous Tulip poplar Liriodendron tulipifera Full Flower 40.705300000000000 -79.697100000000000 4845
Wed Oct 15 00:00:00 GMT 2008 anonymous Tulip poplar Liriodendron tulipifera First Ripe Fruit 40.705300000000000 -79.697100000000000 4846
Sun Apr 13 00:00:00 GMT 2008 tmdlynch Tulip poplar Liriodendron tulipifera First Leaf 40.348200000000000 -75.286700000000000 4880
Mon Mar 09 00:00:00 GMT 2009 sgriffin@lincolnschools.org Tulip poplar Liriodendron tulipifera First Leaf 32.531400000000000 -92.637900000000000 4962
Tue Mar 10 00:00:00 GMT 2009 creed Tulip poplar Liriodendron tulipifera First Leaf 39.083900000000000 -77.156800000000000 4992
Thu Apr 02 00:00:00 GMT 2009 anonymous Tulip poplar Liriodendron tulipifera First Leaf 38.974800000000000 -77.154200000000000 5438
Sun Apr 05 00:00:00 GMT 2009 anonymous Tulip poplar Liriodendron tulipifera All Leaves Unfolded 38.974800000000000 -77.154200000000000 5439
Thu Apr 02 00:00:00 GMT 2009 mdunn Tulip poplar Liriodendron tulipifera First Leaf 35.757100000000000 -79.107000000000000 5441
Sat Apr 11 00:00:00 GMT 2009 sigridmoore Tulip poplar Liriodendron tulipifera First Flower 42.497300000000000 -83.126200000000000 5605
Fri Apr 10 00:00:00 GMT 2009 fsanford Tulip poplar Liriodendron tulipifera First Leaf 38.946800000000000 -77.070500000000000 5678
Wed Apr 15 00:00:00 GMT 2009 Wildegenes Tulip poplar Liriodendron tulipifera First Leaf 38.899100000000000 -77.098400000000000 5748
Wed Apr 15 00:00:00 GMT 2009 Wildegenes Tulip poplar Liriodendron tulipifera All Leaves Unfolded 38.899100000000000 -77.098400000000000 5749
Fri Apr 10 00:00:00 GMT 2009 creed Tulip poplar Liriodendron tulipifera All Leaves Unfolded 39.083900000000000 -77.156800000000000 5755
Wed Apr 15 00:00:00 GMT 2009 climbthemountain@gmail.com Tulip poplar Liriodendron tulipifera First Leaf 40.746900000000000 -74.916200000000000 5780
Mon Apr 06 00:00:00 GMT 2009 srulison Tulip poplar Liriodendron tulipifera First Leaf 37.540000000000000 -75.920000000000000 5818
Thu Apr 09 00:00:00 GMT 2009 srulison Tulip poplar Liriodendron tulipifera All Leaves Unfolded 37.540000000000000 -75.920000000000000 5819
Fri Mar 13 00:00:00 GMT 2009 anonymous Tulip poplar Liriodendron tulipifera First Flower 39.160000000000000 -86.490000000000000 5906
Fri Mar 13 00:00:00 GMT 2009 kdevore Tulip poplar Liriodendron tulipifera First Flower 39.160000000000000 -86.490000000000000 5911
Fri Apr 03 00:00:00 GMT 2009 anonymous Tulip poplar Liriodendron tulipifera First Leaf 39.140000000000000 -86.620000000000000 6032
Sat Mar 07 00:00:00 GMT 2009 anonymous Tulip poplar Liriodendron tulipifera First Leaf 39.164300000000000 -86.526900000000000 6200
Sat Mar 28 00:00:00 GMT 2009 anonymous Tulip poplar Liriodendron tulipifera All Leaves Unfolded 39.164300000000000 -86.526900000000000 6201
Sun Mar 15 00:00:00 GMT 2009 anonymous Tulip poplar Liriodendron tulipifera First Flower 39.164300000000000 -86.526900000000000 6202
Sat Apr 04 00:00:00 GMT 2009 anonymous Tulip poplar Liriodendron tulipifera Full Flower 39.164300000000000 -86.526900000000000 6203
Mon Apr 06 00:00:00 GMT 2009 sjrulison Tulip poplar Liriodendron tulipifera First Leaf 37.545100000000000 -75.927600000000000 6551
Thu Apr 16 00:00:00 GMT 2009 sjrulison Tulip poplar Liriodendron tulipifera All Leaves Unfolded 37.545100000000000 -75.927600000000000 6552
Mon Mar 09 00:00:00 GMT 2009 anonymous Tulip poplar Liriodendron tulipifera First Leaf 39.180000000000000 -86.550000000000000 6750
Mon Apr 06 00:00:00 GMT 2009 anonymous Tulip poplar Liriodendron tulipifera All Leaves Unfolded 39.180000000000000 -86.550000000000000 6751
Fri May 15 00:00:00 GMT 2009 rg Tulip poplar Liriodendron tulipifera First Flower 39.671500000000000 -82.541200000000000 7619
Sun Mar 29 00:00:00 GMT 2009 anonymous Tulip poplar Liriodendron tulipifera First Leaf 35.057900000000000 -80.822000000000000 7757
Thu Apr 30 00:00:00 GMT 2009 climbthemountain@gmail.com Tulip poplar Liriodendron tulipifera All Leaves Unfolded 40.746900000000000 -74.916200000000000 8002
Fri May 15 00:00:00 GMT 2009 climbthemountain@gmail.com Tulip poplar Liriodendron tulipifera First Flower 40.746900000000000 -74.916200000000000 8003
Sun May 24 00:00:00 GMT 2009 climbthemountain@gmail.com Tulip poplar Liriodendron tulipifera Full Flower 40.746900000000000 -74.916200000000000 8004
Thu Apr 09 00:00:00 GMT 2009 KShaw Tulip poplar Liriodendron tulipifera First Leaf 38.926500000000000 -77.339500000000000 8062
Sun Apr 19 00:00:00 GMT 2009 KShaw Tulip poplar Liriodendron tulipifera All Leaves Unfolded 38.926500000000000 -77.339500000000000 8063
Fri Apr 24 00:00:00 GMT 2009 KShaw Tulip poplar Liriodendron tulipifera First Flower 38.926500000000000 -77.339500000000000 8064
Mon May 04 00:00:00 GMT 2009 KShaw Tulip poplar Liriodendron tulipifera Full Flower 38.926500000000000 -77.339500000000000 8065
Sun May 10 00:00:00 GMT 2009 KShaw Tulip poplar Liriodendron tulipifera End of Flowering 38.926500000000000 -77.339500000000000 8066
Sat Apr 25 00:00:00 GMT 2009 joenesgarden Tulip poplar Liriodendron tulipifera First Leaf 41.452700000000000 -72.375700000000000 8217
Sun May 31 00:00:00 GMT 2009 joenesgarden Tulip poplar Liriodendron tulipifera First Flower 41.452700000000000 -72.375700000000000 8218
Tue Jun 09 00:00:00 GMT 2009 climbthemountain@gmail.com Tulip poplar Liriodendron tulipifera End of Flowering 40.746900000000000 -74.916200000000000 8285
Fri Oct 23 00:00:00 GMT 2009 centralNY Tulip poplar Liriodendron tulipifera 50% Color 43.041000000000000 -76.212900000000000 8834
Thu Nov 05 00:00:00 GMT 2009 anonymous Tulip poplar Liriodendron tulipifera 50% Color 35.815400000000000 -86.410200000000000 8900
Tue Nov 03 00:00:00 GMT 2009 KaitlinBrown11 Tulip poplar Liriodendron tulipifera 50% Leaf Fall 35.834500000000000 -86.447900000000000 8899
Wed Nov 04 00:00:00 GMT 2009 KaitlinBrown11 Tulip poplar Liriodendron tulipifera 50% Color 35.834500000000000 -86.447900000000000 8913
Sun Mar 29 00:00:00 GMT 2009 anonymous Tulip poplar Liriodendron tulipifera First Leaf 39.066800000000000 -76.996900000000000 9051
Sat Apr 04 00:00:00 GMT 2009 anonymous Tulip poplar Liriodendron tulipifera All Leaves Unfolded 39.066800000000000 -76.996900000000000 9052
Mon May 04 00:00:00 GMT 2009 anonymous Tulip poplar Liriodendron tulipifera First Flower 39.066800000000000 -76.996900000000000 9053
Tue May 12 00:00:00 GMT 2009 anonymous Tulip poplar Liriodendron tulipifera Full Flower 39.066800000000000 -76.996900000000000 9054
Wed Jun 03 00:00:00 GMT 2009 anonymous Tulip poplar Liriodendron tulipifera End of Flowering 39.066800000000000 -76.996900000000000 9055
Thu Oct 08 00:00:00 GMT 2009 anonymous Tulip poplar Liriodendron tulipifera First Ripe Fruit 39.066800000000000 -76.996900000000000 9056
Thu Oct 22 00:00:00 GMT 2009 anonymous Tulip poplar Liriodendron tulipifera 50% Color 39.066800000000000 -76.996900000000000 9057
Wed Mar 17 00:00:00 GMT 2010 anonymous Tulip poplar Liriodendron tulipifera First Leaf 41.725500000000000 -87.674500000000000 9243
Tue Mar 23 00:00:00 GMT 2010 Jessica Tulip poplar Liriodendron tulipifera First Leaf 38.870700000000000 -77.255300000000000 9252
Thu Mar 11 00:00:00 GMT 2010 anonymous Tulip poplar Liriodendron tulipifera First Leaf 39.170000000000000 -86.534900000000000 9468
Wed Apr 14 00:00:00 GMT 2010 Rich Tulip poplar Liriodendron tulipifera First Leaf 40.002400000000000 -80.650600000000000 9608
Tue Mar 02 00:00:00 GMT 2010 learnlivehope247 Tulip poplar Liriodendron tulipifera First Leaf 37.557100000000000 -79.085400000000000 10028
Tue Mar 23 00:00:00 GMT 2010 learnlivehope247 Tulip poplar Liriodendron tulipifera All Leaves Unfolded 37.557100000000000 -79.085400000000000 10029
Tue Apr 06 00:00:00 GMT 2010 learnlivehope247 Tulip poplar Liriodendron tulipifera First Flower 37.557100000000000 -79.085400000000000 10030
Sun Apr 18 00:00:00 GMT 2010 centralNY Tulip poplar Liriodendron tulipifera First Leaf 43.041000000000000 -76.212900000000000 10259
Sat Apr 17 00:00:00 GMT 2010 Rich Tulip poplar Liriodendron tulipifera All Leaves Unfolded 40.002400000000000 -80.650600000000000 10247
Mon Mar 29 00:00:00 GMT 2010 anonymous Tulip poplar Liriodendron tulipifera First Leaf 35.108900000000000 -80.744300000000000 10601
Thu Apr 01 00:00:00 GMT 2010 anonymous Tulip poplar Liriodendron tulipifera All Leaves Unfolded 35.108900000000000 -80.744300000000000 10602
Mon May 03 00:00:00 GMT 2010 anonymous Tulip poplar Liriodendron tulipifera First Flower 35.108900000000000 -80.744300000000000 10603
Tue May 04 00:00:00 GMT 2010 anonymous Tulip poplar Liriodendron tulipifera Full Flower 35.108900000000000 -80.744300000000000 10604
Mon Mar 29 00:00:00 GMT 2010 KShaw Tulip poplar Liriodendron tulipifera First Leaf 38.926500000000000 -77.339500000000000 10998
Thu Apr 01 00:00:00 GMT 2010 KShaw Tulip poplar Liriodendron tulipifera All Leaves Unfolded 38.926500000000000 -77.339500000000000 10999
Mon Apr 26 00:00:00 GMT 2010 KShaw Tulip poplar Liriodendron tulipifera First Flower 38.926500000000000 -77.339500000000000 11000
Thu Apr 29 00:00:00 GMT 2010 KShaw Tulip poplar Liriodendron tulipifera Full Flower 38.926500000000000 -77.339500000000000 11001
Mon May 17 00:00:00 GMT 2010 KShaw Tulip poplar Liriodendron tulipifera End of Flowering 38.926500000000000 -77.339500000000000 11002
Sun Mar 21 00:00:00 GMT 2010 SusannahPrindle Tulip poplar Liriodendron tulipifera First Leaf 39.096700000000000 -77.023900000000000 11063
Thu Mar 25 00:00:00 GMT 2010 SusannahPrindle Tulip poplar Liriodendron tulipifera All Leaves Unfolded 39.096700000000000 -77.023900000000000 11064
Fri Apr 30 00:00:00 GMT 2010 SusannahPrindle Tulip poplar Liriodendron tulipifera First Flower 39.096700000000000 -77.023900000000000 11065
Sat Apr 03 00:00:00 GMT 2010 SusannahPrindle Tulip poplar Liriodendron tulipifera Full Flower 39.096700000000000 -77.023900000000000 11066
Mon May 31 00:00:00 GMT 2010 SusannahPrindle Tulip poplar Liriodendron tulipifera End of Flowering 39.096700000000000 -77.023900000000000 11067
Sun Apr 04 00:00:00 GMT 2010 srulison Tulip poplar Liriodendron tulipifera First Leaf 37.540000000000000 -75.920000000000000 11188
Wed Apr 14 00:00:00 GMT 2010 srulison Tulip poplar Liriodendron tulipifera All Leaves Unfolded 37.540000000000000 -75.920000000000000 11189
Sun Mar 21 00:00:00 GMT 2010 SusannahPrindle Tulip poplar Liriodendron tulipifera First Leaf 39.096700000000000 -77.023900000000000 11651
Thu Mar 25 00:00:00 GMT 2010 SusannahPrindle Tulip poplar Liriodendron tulipifera All Leaves Unfolded 39.096700000000000 -77.023900000000000 11652
Fri Apr 30 00:00:00 GMT 2010 SusannahPrindle Tulip poplar Liriodendron tulipifera First Flower 39.096700000000000 -77.023900000000000 11653
Mon May 03 00:00:00 GMT 2010 SusannahPrindle Tulip poplar Liriodendron tulipifera Full Flower 39.096700000000000 -77.023900000000000 11654
Mon May 31 00:00:00 GMT 2010 SusannahPrindle Tulip poplar Liriodendron tulipifera End of Flowering 39.096700000000000 -77.023900000000000 11655
Tue Jul 27 00:00:00 GMT 2010 SusannahPrindle Tulip poplar Liriodendron tulipifera First Ripe Fruit 39.096700000000000 -77.023900000000000 11656
Mon Oct 25 00:00:00 GMT 2010 SusannahPrindle Tulip poplar Liriodendron tulipifera 50% Color 39.096700000000000 -77.023900000000000 11657
Sun Nov 07 00:00:00 GMT 2010 SusannahPrindle Tulip poplar Liriodendron tulipifera 50% Leaf Fall 39.096700000000000 -77.023900000000000 11658
Mon Mar 29 00:00:00 GMT 2010 SusannahPrindle Tulip poplar Liriodendron tulipifera First Leaf 39.096700000000000 -77.023900000000000 11671
Fri Apr 02 00:00:00 GMT 2010 SusannahPrindle Tulip poplar Liriodendron tulipifera All Leaves Unfolded 39.096700000000000 -77.023900000000000 11672
Wed May 12 00:00:00 GMT 2010 SusannahPrindle Tulip poplar Liriodendron tulipifera Full Flower 39.096700000000000 -77.023900000000000 11673
Wed Oct 27 00:00:00 GMT 2010 SusannahPrindle Tulip poplar Liriodendron tulipifera 50% Color 39.096700000000000 -77.023900000000000 11674
Mon Nov 08 00:00:00 GMT 2010 SusannahPrindle Tulip poplar Liriodendron tulipifera 50% Leaf Fall 39.096700000000000 -77.023900000000000 11675
Tue Feb 08 00:00:00 GMT 2011 hwiebke Tulip poplar Liriodendron tulipifera First Leaf 39.130000000000000 -86.350000000000000 11693
Sun Mar 20 00:00:00 GMT 2011 moranev Tulip poplar Liriodendron tulipifera First Leaf 35.920300000000000 -84.031600000000000 11770
Thu Apr 07 00:00:00 GMT 2011 Dennis2sheds Tulip poplar Liriodendron tulipifera First Leaf 34.717100000000000 -83.980100000000000 11869
Fri Apr 08 00:00:00 GMT 2011 kyyork Tulip poplar Liriodendron tulipifera First Leaf 39.171000000000000 -86.512000000000000 11959
Fri Apr 08 00:00:00 GMT 2011 kyyork Tulip poplar Liriodendron tulipifera First Flower 39.171000000000000 -86.512000000000000 11960
Fri Apr 08 00:00:00 GMT 2011 kyyork Tulip poplar Liriodendron tulipifera Full Flower 39.171000000000000 -86.512000000000000 11961
Fri Apr 08 00:00:00 GMT 2011 kyyork Tulip poplar Liriodendron tulipifera 50% Color 39.171000000000000 -86.512000000000000 11962
Mon Apr 04 00:00:00 GMT 2011 hwiebke Tulip poplar Liriodendron tulipifera First Leaf 39.130000000000000 -86.350000000000000 12118
Wed Apr 13 00:00:00 GMT 2011 hwiebke Tulip poplar Liriodendron tulipifera All Leaves Unfolded 39.130000000000000 -86.350000000000000 12119
Sat Apr 09 00:00:00 GMT 2011 ausima Tulip poplar Liriodendron tulipifera Leaves Unfolding (Early) 39.018800000000000 -77.072500000000000 12147
Mon Apr 18 00:00:00 GMT 2011 ausima Tulip poplar Liriodendron tulipifera Leaves Unfolding (Middle) 39.018800000000000 -77.072500000000000 12148
Mon Apr 18 00:00:00 GMT 2011 nroney1 Tulip poplar Liriodendron tulipifera First Flower 35.045000000000000 -92.169200000000000 12201
Wed Apr 27 00:00:00 GMT 2011 nroney1 Tulip poplar Liriodendron tulipifera Full Flower 35.045000000000000 -92.169200000000000 12238
Sun May 01 00:00:00 GMT 2011 ausima Tulip poplar Liriodendron tulipifera Flowers (Middle) 39.018800000000000 -77.072500000000000 12267
Sat Apr 23 00:00:00 GMT 2011 ausima Tulip poplar Liriodendron tulipifera Flowers (Early) 39.018800000000000 -77.072500000000000 12265
Fri May 13 00:00:00 GMT 2011 nroney1 Tulip poplar Liriodendron tulipifera First Ripe Fruit 35.045000000000000 -92.169200000000000 12471
Wed Apr 06 00:00:00 GMT 2011 KShaw Tulip poplar Liriodendron tulipifera First Leaf 38.926500000000000 -77.339500000000000 12986
Thu Apr 14 00:00:00 GMT 2011 KShaw Tulip poplar Liriodendron tulipifera All Leaves Unfolded 38.926500000000000 -77.339500000000000 12987
Thu May 05 00:00:00 GMT 2011 KShaw Tulip poplar Liriodendron tulipifera First Flower 38.926500000000000 -77.339500000000000 12988
Tue May 10 00:00:00 GMT 2011 KShaw Tulip poplar Liriodendron tulipifera Full Flower 38.926500000000000 -77.339500000000000 12989
Tue Mar 22 00:00:00 GMT 2011 SusannahPrindle Tulip poplar Liriodendron tulipifera First Leaf 39.096700000000000 -77.023900000000000 13065
Thu Mar 31 00:00:00 GMT 2011 SusannahPrindle Tulip poplar Liriodendron tulipifera All Leaves Unfolded 39.096700000000000 -77.023900000000000 13066
Thu May 12 00:00:00 GMT 2011 SusannahPrindle Tulip poplar Liriodendron tulipifera First Flower 39.096700000000000 -77.023900000000000 13067
Sun May 22 00:00:00 GMT 2011 SusannahPrindle Tulip poplar Liriodendron tulipifera Full Flower 39.096700000000000 -77.023900000000000 13068
Wed Sep 21 00:00:00 GMT 2011 dennisw Tulip poplar Liriodendron tulipifera Flowers (Late) 34.069400000000000 -118.442000000000000 13369
Sat Mar 26 00:00:00 GMT 2011 srulison Tulip poplar Liriodendron tulipifera First Leaf 37.540000000000000 -75.920000000000000 13645
Wed Apr 06 00:00:00 GMT 2011 srulison Tulip poplar Liriodendron tulipifera All Leaves Unfolded 37.540000000000000 -75.920000000000000 13646
Tue Oct 18 00:00:00 GMT 2011 katherinefogarty@comcast.net_EnvSci2011_reporter5 Tulip poplar Liriodendron tulipifera All Leaves Unfolded 42.315800000000000 -71.083200000000000 13915
Wed Nov 02 00:00:00 GMT 2011 katherinefogarty@comcast.net_EnvSci2011_reporter5 Tulip poplar Liriodendron tulipifera 50% Color 42.315800000000000 -71.083200000000000 13916
Wed Nov 09 00:00:00 GMT 2011 katherinefogarty@comcast.net_EnvSci2011_reporter5 Tulip poplar Liriodendron tulipifera 50% Leaf Fall 42.315800000000000 -71.083200000000000 13917
Sun Oct 23 00:00:00 GMT 2011 SusannahPrindle Tulip poplar Liriodendron tulipifera Full Fruiting 39.096700000000000 -77.023900000000000 13949
Wed Oct 26 00:00:00 GMT 2011 SusannahPrindle Tulip poplar Liriodendron tulipifera 50% Color 39.096700000000000 -77.023900000000000 13950
Sat Nov 12 00:00:00 GMT 2011 SusannahPrindle Tulip poplar Liriodendron tulipifera 50% Leaf Fall 39.096700000000000 -77.023900000000000 13951
Sat Feb 25 00:00:00 GMT 2012 sonyaguidry@yahoo.com Tulip poplar Liriodendron tulipifera First Leaf 29.042400000000000 -80.939500000000000 14123
Tue Apr 05 00:00:00 GMT 2011 SusannahPrindle Tulip poplar Liriodendron tulipifera First Leaf 39.066800000000000 -76.996900000000000 14139
Thu Apr 14 00:00:00 GMT 2011 SusannahPrindle Tulip poplar Liriodendron tulipifera All Leaves Unfolded 39.066800000000000 -76.996900000000000 14140
Thu Oct 27 00:00:00 GMT 2011 SusannahPrindle Tulip poplar Liriodendron tulipifera 50% Color 39.066800000000000 -76.996900000000000 14142
Tue Nov 08 00:00:00 GMT 2011 SusannahPrindle Tulip poplar Liriodendron tulipifera 50% Leaf Fall 39.066800000000000 -76.996900000000000 14143
Mon May 02 00:00:00 GMT 2011 SusannahPrindle Tulip poplar Liriodendron tulipifera Full Flower 39.066800000000000 -76.996900000000000 14141
Sun Mar 11 00:00:00 GMT 2012 shelleyhr Tulip poplar Liriodendron tulipifera Leaves Unfolding (Early) 41.597400000000000 -85.874600000000000 14205
Wed Mar 14 00:00:00 GMT 2012 prairieridge Tulip poplar Liriodendron tulipifera Leaves Unfolding (Early) 35.810100000000000 -78.715100000000000 14254
Fri Apr 29 00:00:00 GMT 2011 joenesgarden Tulip poplar Liriodendron tulipifera First Leaf 41.452700000000000 -72.375700000000000 14383
Fri May 06 00:00:00 GMT 2011 joenesgarden Tulip poplar Liriodendron tulipifera All Leaves Unfolded 41.452700000000000 -72.375700000000000 14384
Wed May 25 00:00:00 GMT 2011 joenesgarden Tulip poplar Liriodendron tulipifera First Flower 41.452700000000000 -72.375700000000000 14385
Fri Mar 23 00:00:00 GMT 2012 Steve Benedict Tulip poplar Liriodendron tulipifera First Leaf 43.022500000000000 -77.060200000000000 14450
Tue Mar 20 00:00:00 GMT 2012 MikeB45 Tulip poplar Liriodendron tulipifera First Leaf 39.640700000000000 -78.089600000000000 14457
Sun Mar 25 00:00:00 GMT 2012 MikeB45 Tulip poplar Liriodendron tulipifera All Leaves Unfolded 39.640700000000000 -78.089600000000000 14458
Sun Mar 25 00:00:00 GMT 2012 Dennis2sheds Tulip poplar Liriodendron tulipifera Leaves Unfolding (Early) 34.717100000000000 -83.980100000000000 14500
Mon Mar 19 00:00:00 GMT 2012 tuckerasso Tulip poplar Liriodendron tulipifera First Leaf 37.231600000000000 -76.663600000000000 14700
Tue Mar 27 00:00:00 GMT 2012 tuckerasso Tulip poplar Liriodendron tulipifera All Leaves Unfolded 37.231600000000000 -76.663600000000000 14701
Tue Mar 20 00:00:00 GMT 2012 mebrown Tulip poplar Liriodendron tulipifera First Leaf 36.085700000000000 -79.501200000000000 14726
Tue Mar 27 00:00:00 GMT 2012 mebrown Tulip poplar Liriodendron tulipifera All Leaves Unfolded 36.085700000000000 -79.501200000000000 14727
Sat Mar 31 00:00:00 GMT 2012 tuckerasso Tulip poplar Liriodendron tulipifera First Flower 37.231600000000000 -76.663600000000000 14743
Tue Apr 03 00:00:00 GMT 2012 tuckerasso Tulip poplar Liriodendron tulipifera Full Flower 37.231600000000000 -76.663600000000000 14744
Sat Mar 31 00:00:00 GMT 2012 MickeyJo Tulip poplar Liriodendron tulipifera First Flower 35.949100000000000 -79.050500000000000 14717
Sun Apr 08 00:00:00 GMT 2012 MickeyJo Tulip poplar Liriodendron tulipifera Full Flower 35.949100000000000 -79.050500000000000 14842
Tue Apr 17 00:00:00 GMT 2012 lduncan Tulip poplar Liriodendron tulipifera Leaves Unfolding (Middle) 34.674100000000000 -82.822800000000000 15192
Fri Apr 27 00:00:00 GMT 2012 baddelson Tulip poplar Liriodendron tulipifera Full Flower 38.571400000000000 -90.376400000000000 15302
Sat Apr 28 00:00:00 GMT 2012 Georgew Tulip poplar Liriodendron tulipifera Leaves Unfolding (Late) 42.612400000000000 -70.848400000000000 15331
Wed May 02 00:00:00 GMT 2012 katherinefogarty@comcast.net_EnvSci2011_reporter5 Tulip poplar Liriodendron tulipifera 50% Color 42.315800000000000 -71.083200000000000 15677
Wed Mar 21 00:00:00 GMT 2012 katherinefogarty@comcast.net_EnvSci2011_reporter5 Tulip poplar Liriodendron tulipifera Full Flower 42.315800000000000 -71.083200000000000 15674
Wed Apr 04 00:00:00 GMT 2012 katherinefogarty@comcast.net_EnvSci2011_reporter5 Tulip poplar Liriodendron tulipifera First Ripe Fruit 42.315800000000000 -71.083200000000000 15675
Thu Nov 15 00:00:00 GMT 2012 katherinefogarty@comcast.net_EnvSci2011_reporter5 Tulip poplar Liriodendron tulipifera First Flower 42.315800000000000 -71.083200000000000 15673
Thu Mar 08 00:00:00 GMT 2012 katherinefogarty@comcast.net_EnvSci2011_reporter5 Tulip poplar Liriodendron tulipifera All Leaves Unfolded 42.315800000000000 -71.083200000000000 15672
Thu Oct 25 00:00:00 GMT 2012 katherinefogarty@comcast.net_EnvSci2011_reporter5 Tulip poplar Liriodendron tulipifera First Leaf 42.315800000000000 -71.083200000000000 15671
Wed Apr 11 00:00:00 GMT 2012 katherinefogarty@comcast.net_EnvSci2011_reporter5 Tulip poplar Liriodendron tulipifera Full Fruiting 42.315800000000000 -71.083200000000000 15678
Wed Apr 25 00:00:00 GMT 2012 katherinefogarty@comcast.net_EnvSci2011_reporter5 Tulip poplar Liriodendron tulipifera 50% Leaf Fall 42.315800000000000 -71.083200000000000 15676
Fri Mar 16 00:00:00 GMT 2012 SusannahPrindle Tulip poplar Liriodendron tulipifera First Leaf 39.096700000000000 -77.023900000000000 16209
Tue Mar 20 00:00:00 GMT 2012 SusannahPrindle Tulip poplar Liriodendron tulipifera All Leaves Unfolded 39.096700000000000 -77.023900000000000 16210
Tue Apr 17 00:00:00 GMT 2012 SusannahPrindle Tulip poplar Liriodendron tulipifera First Flower 39.096700000000000 -77.023900000000000 16211
Sat Mar 17 00:00:00 GMT 2012 SusannahPrindle Tulip poplar Liriodendron tulipifera First Leaf 39.066800000000000 -76.996900000000000 16219
Sat Mar 24 00:00:00 GMT 2012 SusannahPrindle Tulip poplar Liriodendron tulipifera All Leaves Unfolded 39.066800000000000 -76.996900000000000 16220
Sun Apr 22 00:00:00 GMT 2012 SusannahPrindle Tulip poplar Liriodendron tulipifera First Flower 39.066800000000000 -76.996900000000000 16221
Sun Apr 29 00:00:00 GMT 2012 SusannahPrindle Tulip poplar Liriodendron tulipifera Full Flower 39.066800000000000 -76.996900000000000 16222
Wed Aug 29 00:00:00 GMT 2012 RangerJean Tulip poplar Liriodendron tulipifera All Leaves Unfolded 42.383100000000000 -71.142700000000000 16432
Tue Aug 28 00:00:00 GMT 2012 macburst Tulip poplar Liriodendron tulipifera Fruit (Middle) 41.847400000000000 -79.139300000000000 16433
Tue Sep 04 00:00:00 GMT 2012 brendan.butash Tulip poplar Liriodendron tulipifera Leaves Changing Color (Early) 42.000000000000000 -83.000000000000000 16446
Wed Sep 05 00:00:00 GMT 2012 brendan.butash Tulip poplar Liriodendron tulipifera Leaves Changing Color (Early) 42.000000000000000 -83.000000000000000 16534
Wed Sep 05 00:00:00 GMT 2012 mari Tulip poplar Liriodendron tulipifera Fruit (Late) 35.592100000000000 -84.084200000000000 16527
Thu Sep 13 00:00:00 GMT 2012 mari Tulip poplar Liriodendron tulipifera Leaves Changing Color (Early) 35.592100000000000 -84.084200000000000 16594
Fri Sep 14 00:00:00 GMT 2012 brooke_michelle Tulip poplar Liriodendron tulipifera 50% Color 34.620000000000000 -83.050000000000000 16659
Fri Sep 14 00:00:00 GMT 2012 brooke_michelle Tulip poplar Liriodendron tulipifera 50% Leaf Fall 34.620000000000000 -83.050000000000000 16660
Fri Sep 14 00:00:00 GMT 2012 brooke_hope Tulip poplar Liriodendron tulipifera 50% Color 34.610000000000000 -83.050000000000000 16661
Fri Sep 14 00:00:00 GMT 2012 brooke_hope Tulip poplar Liriodendron tulipifera 50% Leaf Fall 34.610000000000000 -83.050000000000000 16662
Fri Sep 14 00:00:00 GMT 2012 sterlinhaymon Tulip poplar Liriodendron tulipifera 50% Color 34.600000000000000 -83.050000000000000 16663
Fri Sep 14 00:00:00 GMT 2012 zachpcollins@hotmail.com Tulip poplar Liriodendron tulipifera 50% Color 34.620000000000000 -83.050000000000000 16654
Fri Sep 14 00:00:00 GMT 2012 zachpcollins@hotmail.com Tulip poplar Liriodendron tulipifera 50% Leaf Fall 34.620000000000000 -83.050000000000000 16655
Fri Sep 14 00:00:00 GMT 2012 jaronlivingston Tulip poplar Liriodendron tulipifera 50% Color 39.600000000000000 -83.050000000000000 16668
Fri Sep 14 00:00:00 GMT 2012 jaronlivingston Tulip poplar Liriodendron tulipifera 50% Leaf Fall 39.600000000000000 -83.050000000000000 16669
Fri Sep 14 00:00:00 GMT 2012 zachpcollins@hotmail.com Tulip poplar Liriodendron tulipifera 50% Color 34.620000000000000 -83.050000000000000 16652
Fri Sep 14 00:00:00 GMT 2012 zachpcollins@hotmail.com Tulip poplar Liriodendron tulipifera 50% Leaf Fall 34.620000000000000 -83.050000000000000 16653
Tue Sep 18 00:00:00 GMT 2012 JennyOwens Tulip poplar Liriodendron tulipifera Full Fruiting 34.610000000000000 -83.050000000000000 16635
Tue Sep 18 00:00:00 GMT 2012 3cddriver Tulip poplar Liriodendron tulipifera Leaves Changing Color (Early) 34.620000000000000 -83.050000000000000 16646
Fri Sep 14 00:00:00 GMT 2012 4hrluker Tulip poplar Liriodendron tulipifera 50% Color 36.220000000000000 -83.060000000000000 16637
Tue Sep 18 00:00:00 GMT 2012 3cddriver Tulip poplar Liriodendron tulipifera Leaves Unfolding (Early) 39.984700000000000 -105.268000000000000 16638
Fri Sep 14 00:00:00 GMT 2012 wesley Tulip poplar Liriodendron tulipifera 50% Leaf Fall 34.620000000000000 -83.050000000000000 16643
Fri Sep 14 00:00:00 GMT 2012 5caholbrooks Tulip poplar Liriodendron tulipifera 50% Leaf Fall 34.620000000000000 -83.050000000000000 16644
Fri Sep 14 00:00:00 GMT 2012 4LTWhitman Tulip poplar Liriodendron tulipifera Leaves Changing Color (Early) 34.620000000000000 -83.050000000000000 16651
Tue Sep 18 00:00:00 GMT 2012 3cddriver Tulip poplar Liriodendron tulipifera Leaves Unfolding (Early) 39.984700000000000 -105.268000000000000 16639
Fri Sep 14 00:00:00 GMT 2012 5zbhunter Tulip poplar Liriodendron tulipifera Leaves Changing Color (Early) 34.620000000000000 -83.050000000000000 16645
Thu Sep 13 00:00:00 GMT 2012 katelan cockman Tulip poplar Liriodendron tulipifera 50% Color 34.610000000000000 -83.050000000000000 16673
Thu Sep 13 00:00:00 GMT 2012 katelan cockman Tulip poplar Liriodendron tulipifera 50% Leaf Fall 34.610000000000000 -83.050000000000000 16674
Thu Sep 13 00:00:00 GMT 2012 cecilcarnes Tulip poplar Liriodendron tulipifera 50% Color 34.610000000000000 -83.050000000000000 16675
Thu Sep 13 00:00:00 GMT 2012 cecilcarnes Tulip poplar Liriodendron tulipifera 50% Leaf Fall 34.610000000000000 -83.050000000000000 16676
Tue Sep 11 00:00:00 GMT 2012 brianna7frady Tulip poplar Liriodendron tulipifera 50% Color 34.600000000000000 -83.100000000000000 16720
Tue Sep 11 00:00:00 GMT 2012 brianna7frady Tulip poplar Liriodendron tulipifera 50% Leaf Fall 34.600000000000000 -83.100000000000000 16721
Sat Jan 07 00:00:00 GMT 2012 kennedy smith Tulip poplar Liriodendron tulipifera First Leaf 34.620000000000000 -83.050000000000000 16677
Sat Jan 14 00:00:00 GMT 2012 kennedy smith Tulip poplar Liriodendron tulipifera All Leaves Unfolded 34.620000000000000 -83.050000000000000 16678
Thu Jan 19 00:00:00 GMT 2012 kennedy smith Tulip poplar Liriodendron tulipifera First Flower 34.620000000000000 -83.050000000000000 16679
Fri Feb 24 00:00:00 GMT 2012 kennedy smith Tulip poplar Liriodendron tulipifera Full Flower 34.620000000000000 -83.050000000000000 16680
Sun Mar 25 00:00:00 GMT 2012 kennedy smith Tulip poplar Liriodendron tulipifera First Ripe Fruit 34.620000000000000 -83.050000000000000 16681
Tue Apr 10 00:00:00 GMT 2012 kennedy smith Tulip poplar Liriodendron tulipifera Full Fruiting 34.620000000000000 -83.050000000000000 16682
Sat Sep 15 00:00:00 GMT 2012 kennedy smith Tulip poplar Liriodendron tulipifera 50% Color 34.620000000000000 -83.050000000000000 16683
Tue Sep 25 00:00:00 GMT 2012 kennedy smith Tulip poplar Liriodendron tulipifera 50% Leaf Fall 34.620000000000000 -83.050000000000000 16684
Sun Jan 01 00:00:00 GMT 2012 westoak2014 Tulip poplar Liriodendron tulipifera First Leaf 34.620000000000000 -83.050000000000000 16702
Thu Feb 02 00:00:00 GMT 2012 westoak2014 Tulip poplar Liriodendron tulipifera All Leaves Unfolded 34.620000000000000 -83.050000000000000 16703
Sat Mar 03 00:00:00 GMT 2012 westoak2014 Tulip poplar Liriodendron tulipifera First Flower 34.620000000000000 -83.050000000000000 16704
Wed Apr 04 00:00:00 GMT 2012 westoak2014 Tulip poplar Liriodendron tulipifera Full Flower 34.620000000000000 -83.050000000000000 16705
Sat May 05 00:00:00 GMT 2012 westoak2014 Tulip poplar Liriodendron tulipifera First Ripe Fruit 34.620000000000000 -83.050000000000000 16706
Wed Jun 06 00:00:00 GMT 2012 westoak2014 Tulip poplar Liriodendron tulipifera Full Fruiting 34.620000000000000 -83.050000000000000 16707
Sat Jul 07 00:00:00 GMT 2012 westoak2014 Tulip poplar Liriodendron tulipifera 50% Color 34.620000000000000 -83.050000000000000 16708
Wed Aug 08 00:00:00 GMT 2012 westoak2014 Tulip poplar Liriodendron tulipifera 50% Leaf Fall 34.620000000000000 -83.050000000000000 16709
Wed Feb 01 00:00:00 GMT 2012 Colton Hare Tulip poplar Liriodendron tulipifera First Leaf 34.620000000000000 -83.050000000000000 16685
Sun Feb 12 00:00:00 GMT 2012 Colton Hare Tulip poplar Liriodendron tulipifera All Leaves Unfolded 34.620000000000000 -83.050000000000000 16686
Sun Mar 25 00:00:00 GMT 2012 Colton Hare Tulip poplar Liriodendron tulipifera Full Flower 34.620000000000000 -83.050000000000000 16687
Fri Jul 13 00:00:00 GMT 2012 Colton Hare Tulip poplar Liriodendron tulipifera First Ripe Fruit 34.620000000000000 -83.050000000000000 16688
Tue Feb 28 00:00:00 GMT 2012 Colton Hare Tulip poplar Liriodendron tulipifera Full Fruiting 34.620000000000000 -83.050000000000000 16689
Wed Sep 19 00:00:00 GMT 2012 Colton Hare Tulip poplar Liriodendron tulipifera 50% Color 34.620000000000000 -83.050000000000000 16690
Wed Sep 19 00:00:00 GMT 2012 Colton Hare Tulip poplar Liriodendron tulipifera 50% Leaf Fall 34.620000000000000 -83.050000000000000 16691
Tue Sep 11 00:00:00 GMT 2012 andy lee Tulip poplar Liriodendron tulipifera 50% Color 34.600000000000000 -83.100000000000000 16722
Tue Sep 11 00:00:00 GMT 2012 andy lee Tulip poplar Liriodendron tulipifera 50% Leaf Fall 34.600000000000000 -83.100000000000000 16723
Sun Mar 25 00:00:00 GMT 2012 surahdowell Tulip poplar Liriodendron tulipifera First Leaf 34.610000000000000 -83.050000000000000 16712
Thu Sep 13 00:00:00 GMT 2012 surahdowell Tulip poplar Liriodendron tulipifera 50% Color 34.610000000000000 -83.050000000000000 16713
Thu Sep 20 00:00:00 GMT 2012 mari Tulip poplar Liriodendron tulipifera Leaves Unfolding (Late) 35.592100000000000 -84.084200000000000 16731
Fri Sep 28 00:00:00 GMT 2012 mari Tulip poplar Liriodendron tulipifera Leaves Changing Color (Early) 35.592100000000000 -84.084200000000000 16756
Thu Oct 04 00:00:00 GMT 2012 mari Tulip poplar Liriodendron tulipifera Leaves Changing Color (Early) 35.592100000000000 -84.084200000000000 16782
Fri Oct 19 00:00:00 GMT 2012 mari Tulip poplar Liriodendron tulipifera Leaves Dropping (Middle) 35.592100000000000 -84.084200000000000 17038
Fri Nov 02 00:00:00 GMT 2012 mari Tulip poplar Liriodendron tulipifera Leaves Dropping (Late) 35.592100000000000 -84.084200000000000 17449
Sat Mar 17 00:00:00 GMT 2012 srulison Tulip poplar Liriodendron tulipifera First Leaf 37.540000000000000 -75.920000000000000 17485
Sun Nov 11 00:00:00 GMT 2012 PBBtest1107 Tulip poplar Liriodendron tulipifera Leaves Dropping (Late) 40.000000000000000 -105.000000000000000 17521
Sat Nov 17 00:00:00 GMT 2012 jos7 Tulip poplar Liriodendron tulipifera Leaves Dropping (Middle) 47.609900000000000 -122.180000000000000 17547
Sat Dec 01 00:00:00 GMT 2012 jos7 Tulip poplar Liriodendron tulipifera Leaves Dropping (Late) 47.609900000000000 -122.180000000000000 17577
Thu Oct 18 00:00:00 GMT 2012 tuckerasso Tulip poplar Liriodendron tulipifera 50% Color 37.231600000000000 -76.663600000000000 17654
Sat Dec 01 00:00:00 GMT 2012 tuckerasso Tulip poplar Liriodendron tulipifera 50% Leaf Fall 37.231600000000000 -76.663600000000000 17655
Fri Mar 16 00:00:00 GMT 2012 SusannahPrindle Tulip poplar Liriodendron tulipifera First Leaf 39.096700000000000 -77.023900000000000 17710
Tue Mar 20 00:00:00 GMT 2012 SusannahPrindle Tulip poplar Liriodendron tulipifera All Leaves Unfolded 39.096700000000000 -77.023900000000000 17711
Tue Apr 17 00:00:00 GMT 2012 SusannahPrindle Tulip poplar Liriodendron tulipifera First Flower 39.096700000000000 -77.023900000000000 17712
Thu Apr 26 00:00:00 GMT 2012 SusannahPrindle Tulip poplar Liriodendron tulipifera Full Flower 39.096700000000000 -77.023900000000000 17713
Sun Oct 21 00:00:00 GMT 2012 SusannahPrindle Tulip poplar Liriodendron tulipifera 50% Color 39.096700000000000 -77.023900000000000 17714
Sat Nov 03 00:00:00 GMT 2012 SusannahPrindle Tulip poplar Liriodendron tulipifera 50% Leaf Fall 39.096700000000000 -77.023900000000000 17715
Sat Mar 17 00:00:00 GMT 2012 SusannahPrindle Tulip poplar Liriodendron tulipifera First Leaf 39.066800000000000 -76.996900000000000 17727
Sat Mar 24 00:00:00 GMT 2012 SusannahPrindle Tulip poplar Liriodendron tulipifera All Leaves Unfolded 39.066800000000000 -76.996900000000000 17728
Sun Apr 22 00:00:00 GMT 2012 SusannahPrindle Tulip poplar Liriodendron tulipifera First Flower 39.066800000000000 -76.996900000000000 17729
Sun Apr 29 00:00:00 GMT 2012 SusannahPrindle Tulip poplar Liriodendron tulipifera Full Flower 39.066800000000000 -76.996900000000000 17730
Sat Oct 27 00:00:00 GMT 2012 SusannahPrindle Tulip poplar Liriodendron tulipifera Full Fruiting 39.066800000000000 -76.996900000000000 17731
Fri Oct 26 00:00:00 GMT 2012 SusannahPrindle Tulip poplar Liriodendron tulipifera 50% Leaf Fall 39.066800000000000 -76.996900000000000 17732
Wed Mar 27 00:00:00 GMT 2013 ptuley Tulip poplar Liriodendron tulipifera Leaves Unfolding (Early) 34.504500000000000 -97.119500000000000 18365
Wed Apr 03 00:00:00 GMT 2013 muziguo Tulip poplar Liriodendron tulipifera Leaves Unfolding (Early) 39.165300000000000 -86.526400000000000 18484
Mon Apr 08 00:00:00 GMT 2013 adfitzgerald@woodlawnschool.org_Env_Studies_2013_reporter9 Tulip poplar Liriodendron tulipifera First Leaf 35.543200000000000 -80.847300000000000 18789
Thu Apr 11 00:00:00 GMT 2013 adfitzgerald@woodlawnschool.org_Env_Studies_2013_reporter9 Tulip poplar Liriodendron tulipifera All Leaves Unfolded 35.543200000000000 -80.847300000000000 18790
Tue Jan 08 00:00:00 GMT 2013 adfitzgerald@woodlawnschool.org_Env_Studies_2013_reporter9 Tulip poplar Liriodendron tulipifera Bud Burst 35.543200000000000 -80.847300000000000 18807
Tue Jan 08 00:00:00 GMT 2013 adfitzgerald@woodlawnschool.org_Env_Studies_2013_reporter1 Tulip poplar Liriodendron tulipifera Bud Burst 35.543200000000000 -80.847300000000000 18811
Mon Apr 08 00:00:00 GMT 2013 adfitzgerald@woodlawnschool.org_Env_Studies_2013_reporter1 Tulip poplar Liriodendron tulipifera First Leaf 35.543200000000000 -80.847300000000000 18812
Thu Apr 11 00:00:00 GMT 2013 adfitzgerald@woodlawnschool.org_Env_Studies_2013_reporter1 Tulip poplar Liriodendron tulipifera All Leaves Unfolded 35.543200000000000 -80.847300000000000 18813
Mon Apr 08 00:00:00 GMT 2013 adfitzgerald@woodlawnschool.org_Env_Studies_2013_reporter10 Tulip poplar Liriodendron tulipifera Bud Burst 35.543200000000000 -80.847300000000000 18819
Thu Apr 11 00:00:00 GMT 2013 adfitzgerald@woodlawnschool.org_Env_Studies_2013_reporter10 Tulip poplar Liriodendron tulipifera First Leaf 35.543200000000000 -80.847300000000000 18820
Sat Apr 13 00:00:00 GMT 2013 jerribitner Tulip poplar Liriodendron tulipifera Bud Burst 40.018100000000000 -76.880000000000000 18921
Sat Apr 13 00:00:00 GMT 2013 ncmns Tulip poplar Liriodendron tulipifera Leaves Unfolding (Middle) 35.811700000000000 -78.713900000000000 19377
Sat Mar 30 00:00:00 GMT 2013 ncmns Tulip poplar Liriodendron tulipifera Leaves Unfolding (Early) 35.811700000000000 -78.713900000000000 19370
Sat Apr 27 00:00:00 GMT 2013 ncmns Tulip poplar Liriodendron tulipifera Leaves Unfolding (Late) 35.811700000000000 -78.713900000000000 19386
Tue Apr 09 00:00:00 GMT 2013 Dennis2sheds Tulip poplar Liriodendron tulipifera Bud Burst 34.717100000000000 -83.980100000000000 19652
Tue Apr 16 00:00:00 GMT 2013 Dennis2sheds Tulip poplar Liriodendron tulipifera First Leaf 34.717100000000000 -83.980100000000000 19653
Tue May 07 00:00:00 GMT 2013 bmatthews Tulip poplar Liriodendron tulipifera Flowers (Middle) 36.147500000000000 -86.775200000000000 20004
Tue May 07 00:00:00 GMT 2013 bmatthews Tulip poplar Liriodendron tulipifera Full Flower 36.146600000000000 -86.775400000000000 20005
Thu May 09 00:00:00 GMT 2013 jerribitner Tulip poplar Liriodendron tulipifera All Leaves Unfolded 40.018100000000000 -76.880000000000000 20157
Wed Apr 10 00:00:00 GMT 2013 katherinefogarty@comcast.net_Ms._Fogarty's_Env_Sci_reporter4 Tulip poplar Liriodendron tulipifera Bud Burst 41.316200000000000 -71.084500000000000 20324
Wed May 01 00:00:00 GMT 2013 katherinefogarty@comcast.net_Ms._Fogarty's_Env_Sci_reporter4 Tulip poplar Liriodendron tulipifera First Leaf 41.316200000000000 -71.084500000000000 20325
Fri Nov 16 00:00:00 GMT 2012 katherinefogarty@comcast.net_Ms._Fogarty's_Env_Sci_reporter4 Tulip poplar Liriodendron tulipifera All Leaves Unfolded 41.316200000000000 -71.084500000000000 20326
Mon May 06 00:00:00 GMT 2013 katherinefogarty@comcast.net_Ms._Fogarty's_Env_Sci_reporter4 Tulip poplar Liriodendron tulipifera First Flower 41.316200000000000 -71.084500000000000 20327
Mon May 13 00:00:00 GMT 2013 katherinefogarty@comcast.net_Ms._Fogarty's_Env_Sci_reporter4 Tulip poplar Liriodendron tulipifera Full Flower 41.316200000000000 -71.084500000000000 20328
Tue Oct 23 00:00:00 GMT 2012 katherinefogarty@comcast.net_Ms._Fogarty's_Env_Sci_reporter4 Tulip poplar Liriodendron tulipifera 50% Color 41.316200000000000 -71.084500000000000 20329
Fri Nov 02 00:00:00 GMT 2012 katherinefogarty@comcast.net_Ms._Fogarty's_Env_Sci_reporter4 Tulip poplar Liriodendron tulipifera 50% Leaf Fall 41.316200000000000 -71.084500000000000 20330
Fri May 24 00:00:00 GMT 2013 jerribitner Tulip poplar Liriodendron tulipifera Full Flower 40.018100000000000 -76.880000000000000 20722
Wed Apr 10 00:00:00 GMT 2013 Angelyn Tulip poplar Liriodendron tulipifera Bud Burst 35.619100000000000 -82.765100000000000 20752
Wed Apr 17 00:00:00 GMT 2013 Angelyn Tulip poplar Liriodendron tulipifera First Leaf 35.619100000000000 -82.765100000000000 20753
Thu Apr 25 00:00:00 GMT 2013 Angelyn Tulip poplar Liriodendron tulipifera All Leaves Unfolded 35.619100000000000 -82.765100000000000 20754
Mon May 20 00:00:00 GMT 2013 Angelyn Tulip poplar Liriodendron tulipifera Full Flower 35.619100000000000 -82.765100000000000 20755
Mon Jul 01 00:00:00 GMT 2013 plegendre Tulip poplar Liriodendron tulipifera Leaves Unfolding (Late) 41.709700000000000 -70.167600000000000 21435
Mon Jul 01 00:00:00 GMT 2013 plegendre Tulip poplar Liriodendron tulipifera Leaves Unfolding (Late) 41.709700000000000 -70.167600000000000 21436
Sun Jul 14 00:00:00 GMT 2013 clapp Tulip poplar Liriodendron tulipifera Fruit (Middle) 35.381800000000000 -83.196500000000000 21538
Sat Mar 30 00:00:00 GMT 2013 reinsteinwoods Tulip poplar Liriodendron tulipifera Bud Burst 42.886600000000000 -78.718100000000000 21586
Sat Apr 27 00:00:00 GMT 2013 reinsteinwoods Tulip poplar Liriodendron tulipifera First Leaf 42.886600000000000 -78.718100000000000 21587
Sun May 05 00:00:00 GMT 2013 reinsteinwoods Tulip poplar Liriodendron tulipifera All Leaves Unfolded 42.886600000000000 -78.718100000000000 21588
Mon Apr 08 00:00:00 GMT 2013 SusannahPrindle Tulip poplar Liriodendron tulipifera First Leaf 39.096700000000000 -77.023900000000000 21754
Wed Apr 10 00:00:00 GMT 2013 SusannahPrindle Tulip poplar Liriodendron tulipifera All Leaves Unfolded 39.096700000000000 -77.023900000000000 21755
Fri May 17 00:00:00 GMT 2013 SusannahPrindle Tulip poplar Liriodendron tulipifera First Flower 39.096700000000000 -77.023900000000000 21756
Wed May 22 00:00:00 GMT 2013 SusannahPrindle Tulip poplar Liriodendron tulipifera Full Flower 39.096700000000000 -77.023900000000000 21757
Tue Apr 09 00:00:00 GMT 2013 SusannahPrindle Tulip poplar Liriodendron tulipifera First Leaf 39.066800000000000 -76.996900000000000 21834
Thu Apr 11 00:00:00 GMT 2013 SusannahPrindle Tulip poplar Liriodendron tulipifera All Leaves Unfolded 39.066800000000000 -76.996900000000000 21835
Sun May 19 00:00:00 GMT 2013 SusannahPrindle Tulip poplar Liriodendron tulipifera First Flower 39.066800000000000 -76.996900000000000 21836
Sun May 19 00:00:00 GMT 2013 SusannahPrindle Tulip poplar Liriodendron tulipifera Full Flower 39.066800000000000 -76.996900000000000 21837
Mon Oct 07 00:00:00 GMT 2013 Susan Tulip poplar Liriodendron tulipifera Leaves Dropping (Late) 37.522400000000000 -77.947200000000000 22513
Wed Sep 04 00:00:00 GMT 2013 marcepat Tulip poplar Liriodendron tulipifera 50% Color 39.168500000000000 -86.529800000000000 23033
Wed Nov 06 00:00:00 GMT 2013 marcepat Tulip poplar Liriodendron tulipifera 50% Leaf Fall 39.168500000000000 -86.529800000000000 23034
Sat Nov 02 00:00:00 GMT 2013 ncmns Tulip poplar Liriodendron tulipifera Leaves Changing Color (Middle) 35.811700000000000 -78.713900000000000 23055
Sat Oct 12 00:00:00 GMT 2013 ncmns Tulip poplar Liriodendron tulipifera Leaves Dropping (Early) 35.811700000000000 -78.713900000000000 23060
Sat Nov 09 00:00:00 GMT 2013 bberry Tulip poplar Liriodendron tulipifera 50% Leaf Fall 40.766600000000000 -73.974900000000000 23144
Sun Sep 15 00:00:00 GMT 2013 ebyeoman Tulip poplar Liriodendron tulipifera 50% Color 39.161500000000000 -86.480700000000000 23604
Sun Oct 20 00:00:00 GMT 2013 ebyeoman Tulip poplar Liriodendron tulipifera 50% Leaf Fall 39.161500000000000 -86.480700000000000 23605
Tue Sep 03 00:00:00 GMT 2013 simonejones Tulip poplar Liriodendron tulipifera Bud Burst 39.170800000000000 -86.512400000000000 23653
Thu Oct 24 00:00:00 GMT 2013 simonejones Tulip poplar Liriodendron tulipifera 50% Color 39.170800000000000 -86.512400000000000 23654
Sun Oct 27 00:00:00 GMT 2013 simonejones Tulip poplar Liriodendron tulipifera 50% Leaf Fall 39.170800000000000 -86.512400000000000 23655
Sun Oct 06 00:00:00 GMT 2013 robinv1_Washington_College_reporter7 Tulip poplar Liriodendron tulipifera Bud Burst 39.219200000000000 -76.069600000000000 24095
Wed Oct 30 00:00:00 GMT 2013 robinv1_Washington_College_reporter7 Tulip poplar Liriodendron tulipifera 50% Color 39.219200000000000 -76.069600000000000 24096
Wed Oct 30 00:00:00 GMT 2013 robinv1_Washington_College_reporter7 Tulip poplar Liriodendron tulipifera 50% Leaf Fall 39.219200000000000 -76.069600000000000 24097
Mon Oct 28 00:00:00 GMT 2013 robinv1_Washington_College_reporter30 Tulip poplar Liriodendron tulipifera 50% Color 39.219200000000000 -76.069600000000000 24183
Mon Nov 18 00:00:00 GMT 2013 robinv1_Washington_College_reporter30 Tulip poplar Liriodendron tulipifera 50% Leaf Fall 39.219200000000000 -76.069600000000000 24184
Mon Oct 14 00:00:00 GMT 2013 robinv1_Washington_College_reporter22 Tulip poplar Liriodendron tulipifera 50% Color 39.219200000000000 -76.069600000000000 24164
Mon Nov 04 00:00:00 GMT 2013 robinv1_Washington_College_reporter22 Tulip poplar Liriodendron tulipifera 50% Leaf Fall 39.219200000000000 -76.069600000000000 24165
Mon Mar 25 00:00:00 GMT 2013 tuckerasso Tulip poplar Liriodendron tulipifera First Leaf 37.231600000000000 -76.663600000000000 24599
Thu Apr 04 00:00:00 GMT 2013 tuckerasso Tulip poplar Liriodendron tulipifera All Leaves Unfolded 37.231600000000000 -76.663600000000000 24600
Sat Apr 13 00:00:00 GMT 2013 tuckerasso Tulip poplar Liriodendron tulipifera First Flower 37.231600000000000 -76.663600000000000 24601
Sun Apr 28 00:00:00 GMT 2013 tuckerasso Tulip poplar Liriodendron tulipifera Full Flower 37.231600000000000 -76.663600000000000 24602
Tue Sep 10 00:00:00 GMT 2013 tuckerasso Tulip poplar Liriodendron tulipifera 50% Color 37.231600000000000 -76.663600000000000 24603
Mon Nov 25 00:00:00 GMT 2013 tuckerasso Tulip poplar Liriodendron tulipifera 50% Leaf Fall 37.231600000000000 -76.663600000000000 24604
Mon Apr 08 00:00:00 GMT 2013 SusannahPrindle Tulip poplar Liriodendron tulipifera First Leaf 39.096700000000000 -77.023900000000000 24687
Wed Apr 10 00:00:00 GMT 2013 SusannahPrindle Tulip poplar Liriodendron tulipifera All Leaves Unfolded 39.096700000000000 -77.023900000000000 24688
Fri May 17 00:00:00 GMT 2013 SusannahPrindle Tulip poplar Liriodendron tulipifera First Flower 39.096700000000000 -77.023900000000000 24689
Wed May 22 00:00:00 GMT 2013 SusannahPrindle Tulip poplar Liriodendron tulipifera Full Flower 39.096700000000000 -77.023900000000000 24690
Fri Oct 04 00:00:00 GMT 2013 SusannahPrindle Tulip poplar Liriodendron tulipifera First Ripe Fruit 39.096700000000000 -77.023900000000000 24691
Sat Oct 12 00:00:00 GMT 2013 SusannahPrindle Tulip poplar Liriodendron tulipifera Full Fruiting 39.096700000000000 -77.023900000000000 24692
Fri Sep 13 00:00:00 GMT 2013 SusannahPrindle Tulip poplar Liriodendron tulipifera 50% Color 39.096700000000000 -77.023900000000000 24693
Wed Sep 18 00:00:00 GMT 2013 SusannahPrindle Tulip poplar Liriodendron tulipifera 50% Leaf Fall 39.096700000000000 -77.023900000000000 24694
Tue Apr 09 00:00:00 GMT 2013 SusannahPrindle Tulip poplar Liriodendron tulipifera First Leaf 39.066800000000000 -76.996900000000000 24701
Thu Apr 11 00:00:00 GMT 2013 SusannahPrindle Tulip poplar Liriodendron tulipifera All Leaves Unfolded 39.066800000000000 -76.996900000000000 24702
Sun May 19 00:00:00 GMT 2013 SusannahPrindle Tulip poplar Liriodendron tulipifera First Flower 39.066800000000000 -76.996900000000000 24703
Sun May 19 00:00:00 GMT 2013 SusannahPrindle Tulip poplar Liriodendron tulipifera Full Flower 39.066800000000000 -76.996900000000000 24704
Fri Oct 11 00:00:00 GMT 2013 SusannahPrindle Tulip poplar Liriodendron tulipifera First Ripe Fruit 39.066800000000000 -76.996900000000000 24705
Fri Oct 18 00:00:00 GMT 2013 SusannahPrindle Tulip poplar Liriodendron tulipifera Full Fruiting 39.066800000000000 -76.996900000000000 24706
Thu Oct 31 00:00:00 GMT 2013 SusannahPrindle Tulip poplar Liriodendron tulipifera 50% Color 39.066800000000000 -76.996900000000000 24707
Sat Nov 09 00:00:00 GMT 2013 SusannahPrindle Tulip poplar Liriodendron tulipifera 50% Leaf Fall 39.066800000000000 -76.996900000000000 24708
Thu Jan 16 00:00:00 GMT 2014 ncmns Tulip poplar Liriodendron tulipifera Leaves Unfolding (None) 35.810800000000000 -78.715100000000000 24742
Thu Jan 16 00:00:00 GMT 2014 ncmns Tulip poplar Liriodendron tulipifera Leaves Changing Color (None) 35.810800000000000 -78.715100000000000 24743
Thu Jan 16 00:00:00 GMT 2014 ncmns Tulip poplar Liriodendron tulipifera Leaves Dropping (Late) 35.810800000000000 -78.715100000000000 24744
Thu Jan 16 00:00:00 GMT 2014 ncmns Tulip poplar Liriodendron tulipifera Flowers (None) 35.810800000000000 -78.715100000000000 24745
Thu Jan 16 00:00:00 GMT 2014 ncmns Tulip poplar Liriodendron tulipifera Fruit (None) 35.810800000000000 -78.715100000000000 24746
Mon May 06 00:00:00 GMT 2013 palaback Tulip poplar Liriodendron tulipifera Leaves Unfolding (Late) 39.932600000000000 -75.213200000000000 24884
Mon May 06 00:00:00 GMT 2013 palaback Tulip poplar Liriodendron tulipifera Leaves Changing Color (None) 39.932600000000000 -75.213200000000000 24885
Mon May 06 00:00:00 GMT 2013 palaback Tulip poplar Liriodendron tulipifera Leaves Dropping (None) 39.932600000000000 -75.213200000000000 24886
Mon May 06 00:00:00 GMT 2013 palaback Tulip poplar Liriodendron tulipifera Flowers (Early) 39.932600000000000 -75.213200000000000 24887
Mon May 06 00:00:00 GMT 2013 palaback Tulip poplar Liriodendron tulipifera Fruit (None) 39.932600000000000 -75.213200000000000 24888
Mon Oct 21 00:00:00 GMT 2013 Angelyn Tulip poplar Liriodendron tulipifera 50% Leaf Fall 35.619100000000000 -82.765100000000000 25616
Wed Mar 05 00:00:00 GMT 2014 naturalist Tulip poplar Liriodendron tulipifera First Flower 35.220000000000000 -80.800000000000000 26143
Thu Mar 27 00:00:00 GMT 2014 pghbotanicgarden Tulip poplar Liriodendron tulipifera Leaves Unfolding (None) 40.417100000000000 -80.169300000000000 27643
Thu Mar 27 00:00:00 GMT 2014 pghbotanicgarden Tulip poplar Liriodendron tulipifera Leaves Changing Color (None) 40.417100000000000 -80.169300000000000 27644
Thu Mar 27 00:00:00 GMT 2014 pghbotanicgarden Tulip poplar Liriodendron tulipifera Leaves Dropping (None) 40.417100000000000 -80.169300000000000 27645
Thu Mar 27 00:00:00 GMT 2014 pghbotanicgarden Tulip poplar Liriodendron tulipifera Flowers (None) 40.417100000000000 -80.169300000000000 27646
Thu Mar 27 00:00:00 GMT 2014 pghbotanicgarden Tulip poplar Liriodendron tulipifera Fruit (None) 40.417100000000000 -80.169300000000000 27647
Fri Apr 04 00:00:00 GMT 2014 lizpizza Tulip poplar Liriodendron tulipifera Leaves Unfolding (None) 38.773760000000000 -77.415120000000000 28157
Fri Apr 04 00:00:00 GMT 2014 lizpizza Tulip poplar Liriodendron tulipifera Leaves Changing Color (None) 38.773760000000000 -77.415120000000000 28158
Fri Apr 04 00:00:00 GMT 2014 lizpizza Tulip poplar Liriodendron tulipifera Leaves Dropping (None) 38.773760000000000 -77.415120000000000 28159
Fri Apr 04 00:00:00 GMT 2014 lizpizza Tulip poplar Liriodendron tulipifera Flowers (Early) 38.773760000000000 -77.415120000000000 28160
Fri Apr 04 00:00:00 GMT 2014 lizpizza Tulip poplar Liriodendron tulipifera Fruit (None) 38.773760000000000 -77.415120000000000 28161
Wed Apr 02 00:00:00 GMT 2014 angelabowen18 Tulip poplar Liriodendron tulipifera Leaves Unfolding (None) 37.691940000000000 -85.877120000000000 28228
Wed Apr 02 00:00:00 GMT 2014 angelabowen18 Tulip poplar Liriodendron tulipifera Leaves Changing Color (None) 37.691940000000000 -85.877120000000000 28229
Wed Apr 02 00:00:00 GMT 2014 angelabowen18 Tulip poplar Liriodendron tulipifera Leaves Dropping (None) 37.691940000000000 -85.877120000000000 28230
Wed Apr 02 00:00:00 GMT 2014 angelabowen18 Tulip poplar Liriodendron tulipifera Flowers (None) 37.691940000000000 -85.877120000000000 28231
Wed Apr 02 00:00:00 GMT 2014 angelabowen18 Tulip poplar Liriodendron tulipifera Fruit (None) 37.691940000000000 -85.877120000000000 28232
Thu May 02 00:00:00 GMT 2013 reinsteinwoods Tulip poplar Liriodendron tulipifera Bud Burst 42.886600000000000 -78.718100000000000 28310
Fri Jul 12 00:00:00 GMT 2013 reinsteinwoods Tulip poplar Liriodendron tulipifera All Leaves Unfolded 42.886600000000000 -78.718100000000000 28311
Fri Apr 04 00:00:00 GMT 2014 mcfaddjm_Charlemagne_Elementary_School_reporter23 Tulip poplar Liriodendron tulipifera Bud Burst 43.999200000000000 -123.081000000000000 28502
Sun Apr 06 00:00:00 GMT 2014 mcfaddjm_Charlemagne_Elementary_School_reporter23 Tulip poplar Liriodendron tulipifera First Leaf 43.999200000000000 -123.081000000000000 28503
Fri Apr 04 00:00:00 GMT 2014 mcfaddjm_Charlemagne_Elementary_School_reporter23 Tulip poplar Liriodendron tulipifera First Flower 43.999200000000000 -123.081000000000000 28504
Sat Apr 05 00:00:00 GMT 2014 mcfaddjm_Charlemagne_Elementary_School_reporter23 Tulip poplar Liriodendron tulipifera Full Flower 43.999200000000000 -123.081000000000000 28505
Fri Apr 11 00:00:00 GMT 2014 arbuergl Tulip poplar Liriodendron tulipifera Leaves Unfolding (None) 39.163975000000000 -86.511862000000000 28772
Fri Apr 11 00:00:00 GMT 2014 arbuergl Tulip poplar Liriodendron tulipifera Leaves Changing Color (None) 39.163975000000000 -86.511862000000000 28773
Fri Apr 11 00:00:00 GMT 2014 arbuergl Tulip poplar Liriodendron tulipifera Leaves Dropping (None) 39.163975000000000 -86.511862000000000 28774
Fri Apr 11 00:00:00 GMT 2014 arbuergl Tulip poplar Liriodendron tulipifera Flowers (None) 39.163975000000000 -86.511862000000000 28775
Fri Apr 11 00:00:00 GMT 2014 arbuergl Tulip poplar Liriodendron tulipifera Fruit (None) 39.163975000000000 -86.511862000000000 28776
Thu Apr 10 00:00:00 GMT 2014 everwind Tulip poplar Liriodendron tulipifera Bud Burst 38.279500000000000 -85.088000000000000 28860
Thu Apr 03 00:00:00 GMT 2014 kmoconnor Tulip poplar Liriodendron tulipifera Bud Burst 38.491900000000000 -77.562700000000000 28869
Sat Apr 12 00:00:00 GMT 2014 kmoconnor Tulip poplar Liriodendron tulipifera First Leaf 38.491900000000000 -77.562700000000000 28870
Mon Apr 14 00:00:00 GMT 2014 kmoconnor Tulip poplar Liriodendron tulipifera All Leaves Unfolded 38.491900000000000 -77.562700000000000 29257
Sat Apr 19 00:00:00 GMT 2014 everwind Tulip poplar Liriodendron tulipifera First Leaf 38.279500000000000 -85.088000000000000 29718
Sun Apr 20 00:00:00 GMT 2014 ronanmarko Tulip poplar Liriodendron tulipifera Bud Burst 41.645120000000000 -73.490250000000000 29775
Tue Apr 01 00:00:00 GMT 2014 saldavis2000_University_of_Indianapolis_reporter2 Tulip poplar Liriodendron tulipifera Bud Burst 39.708050000000000 -86.137350000000000 30437
Mon Apr 21 00:00:00 GMT 2014 saldavis2000_University_of_Indianapolis_reporter2 Tulip poplar Liriodendron tulipifera First Leaf 39.708050000000000 -86.137350000000000 30438
Tue Apr 08 00:00:00 GMT 2014 saldavis2000_University_of_Indianapolis_reporter1 Tulip poplar Liriodendron tulipifera Bud Burst 39.708050000000000 -86.137350000000000 30466
Wed Apr 23 00:00:00 GMT 2014 saldavis2000_University_of_Indianapolis_reporter1 Tulip poplar Liriodendron tulipifera First Leaf 39.708050000000000 -86.137350000000000 30467
Thu Apr 24 00:00:00 GMT 2014 woodsedge Tulip poplar Liriodendron tulipifera First Leaf 38.565400000000000 -78.926000000000000 30500
Fri Apr 25 00:00:00 GMT 2014 saldavis2000_University_of_Indianapolis_reporter3 Tulip poplar Liriodendron tulipifera Bud Burst 39.708050000000000 -86.137350000000000 30691
Mon Apr 28 00:00:00 GMT 2014 a Tulip poplar Liriodendron tulipifera Leaves Unfolding (Middle) 38.934730000000000 -80.833820000000000 30721
Mon Apr 28 00:00:00 GMT 2014 a Tulip poplar Liriodendron tulipifera Leaves Changing Color (Middle) 38.934730000000000 -80.833820000000000 30722
Mon Apr 28 00:00:00 GMT 2014 a Tulip poplar Liriodendron tulipifera Leaves Dropping (Late) 38.934730000000000 -80.833820000000000 30723
Fri Apr 25 00:00:00 GMT 2014 a Tulip poplar Liriodendron tulipifera Bud Burst 38.934730000000000 -80.833820000000000 30726
Mon Apr 28 00:00:00 GMT 2014 a Tulip poplar Liriodendron tulipifera Flowers (Late) 38.934730000000000 -80.833820000000000 30724
Mon Apr 28 00:00:00 GMT 2014 a Tulip poplar Liriodendron tulipifera Fruit (None) 38.934730000000000 -80.833820000000000 30725
Fri Apr 25 00:00:00 GMT 2014 a Tulip poplar Liriodendron tulipifera First Leaf 38.934730000000000 -80.833820000000000 30727
Mon Apr 28 00:00:00 GMT 2014 Anemone Tulip poplar Liriodendron tulipifera First Leaf 40.803100000000000 -73.970300000000000 30944
Sun Apr 27 00:00:00 GMT 2014 everwind Tulip poplar Liriodendron tulipifera All Leaves Unfolded 38.279500000000000 -85.088000000000000 30974
Sun Apr 20 00:00:00 GMT 2014 pghbotanicgarden Tulip poplar Liriodendron tulipifera Bud Burst 40.417200000000000 -80.169800000000000 31288
Sat May 03 00:00:00 GMT 2014 woodsedge Tulip poplar Liriodendron tulipifera All Leaves Unfolded 38.565400000000000 -78.926000000000000 31368
Sat May 03 00:00:00 GMT 2014 ronanmarko Tulip poplar Liriodendron tulipifera First Leaf 41.645120000000000 -73.490250000000000 31378
Sun May 04 00:00:00 GMT 2014 pghbotanicgarden Tulip poplar Liriodendron tulipifera First Leaf 40.417200000000000 -80.169800000000000 31721
Fri Apr 25 00:00:00 GMT 2014 laurob_St._John's_University__reporter8 Tulip poplar Liriodendron tulipifera Leaves Unfolding (None) 40.721410000000000 -73.793200000000000 31684
Fri Apr 25 00:00:00 GMT 2014 laurob_St._John's_University__reporter8 Tulip poplar Liriodendron tulipifera Leaves Changing Color (None) 40.721410000000000 -73.793200000000000 31685
Fri Apr 25 00:00:00 GMT 2014 laurob_St._John's_University__reporter8 Tulip poplar Liriodendron tulipifera Leaves Dropping (None) 40.721410000000000 -73.793200000000000 31686
Fri Apr 25 00:00:00 GMT 2014 laurob_St._John's_University__reporter8 Tulip poplar Liriodendron tulipifera Flowers (None) 40.721410000000000 -73.793200000000000 31687
Fri Apr 25 00:00:00 GMT 2014 laurob_St._John's_University__reporter8 Tulip poplar Liriodendron tulipifera Fruit (None) 40.721410000000000 -73.793200000000000 31688
Fri Apr 25 00:00:00 GMT 2014 laurob_St._John's_University__reporter8 Tulip poplar Liriodendron tulipifera Leaves Unfolding (None) 40.721410000000000 -73.793200000000000 31679
Fri Apr 25 00:00:00 GMT 2014 laurob_St._John's_University__reporter8 Tulip poplar Liriodendron tulipifera Leaves Changing Color (None) 40.721410000000000 -73.793200000000000 31680
Fri Apr 25 00:00:00 GMT 2014 laurob_St._John's_University__reporter8 Tulip poplar Liriodendron tulipifera Leaves Dropping (None) 40.721410000000000 -73.793200000000000 31681
Fri Apr 25 00:00:00 GMT 2014 laurob_St._John's_University__reporter8 Tulip poplar Liriodendron tulipifera Flowers (None) 40.721410000000000 -73.793200000000000 31682
Fri Apr 25 00:00:00 GMT 2014 laurob_St._John's_University__reporter8 Tulip poplar Liriodendron tulipifera Fruit (None) 40.721410000000000 -73.793200000000000 31683
Fri Mar 28 00:00:00 GMT 2014 laurob_St._John's_University__reporter8 Tulip poplar Liriodendron tulipifera Leaves Unfolding (None) 40.000000000000000 -100.000000000000000 31832
Fri Mar 28 00:00:00 GMT 2014 laurob_St._John's_University__reporter8 Tulip poplar Liriodendron tulipifera Leaves Changing Color (None) 40.000000000000000 -100.000000000000000 31833
Fri Mar 28 00:00:00 GMT 2014 laurob_St._John's_University__reporter8 Tulip poplar Liriodendron tulipifera Leaves Dropping (None) 40.000000000000000 -100.000000000000000 31834
Fri Mar 28 00:00:00 GMT 2014 laurob_St._John's_University__reporter8 Tulip poplar Liriodendron tulipifera Flowers (None) 40.000000000000000 -100.000000000000000 31835
Fri Mar 28 00:00:00 GMT 2014 laurob_St._John's_University__reporter8 Tulip poplar Liriodendron tulipifera Fruit (None) 40.000000000000000 -100.000000000000000 31836
Fri May 02 00:00:00 GMT 2014 laurob_St._John's_University__reporter8 Tulip poplar Liriodendron tulipifera Leaves Unfolding (Middle) 40.000000000000000 -100.000000000000000 31847
Fri May 02 00:00:00 GMT 2014 laurob_St._John's_University__reporter8 Tulip poplar Liriodendron tulipifera Leaves Changing Color (None) 40.000000000000000 -100.000000000000000 31848
Fri May 02 00:00:00 GMT 2014 laurob_St._John's_University__reporter8 Tulip poplar Liriodendron tulipifera Leaves Dropping (None) 40.000000000000000 -100.000000000000000 31849
Fri May 02 00:00:00 GMT 2014 laurob_St._John's_University__reporter8 Tulip poplar Liriodendron tulipifera Flowers (None) 40.000000000000000 -100.000000000000000 31850
Fri May 02 00:00:00 GMT 2014 laurob_St._John's_University__reporter8 Tulip poplar Liriodendron tulipifera Fruit (None) 40.000000000000000 -100.000000000000000 31851
Wed May 07 00:00:00 GMT 2014 laurob_St._John's_University__reporter8 Tulip poplar Liriodendron tulipifera Leaves Unfolding (Late) 40.000000000000000 -100.000000000000000 31852
Wed May 07 00:00:00 GMT 2014 laurob_St._John's_University__reporter8 Tulip poplar Liriodendron tulipifera Leaves Changing Color (None) 40.000000000000000 -100.000000000000000 31853
Wed May 07 00:00:00 GMT 2014 laurob_St._John's_University__reporter8 Tulip poplar Liriodendron tulipifera Leaves Dropping (None) 40.000000000000000 -100.000000000000000 31854
Wed May 07 00:00:00 GMT 2014 laurob_St._John's_University__reporter8 Tulip poplar Liriodendron tulipifera Flowers (None) 40.000000000000000 -100.000000000000000 31855
Wed May 07 00:00:00 GMT 2014 laurob_St._John's_University__reporter8 Tulip poplar Liriodendron tulipifera Fruit (None) 40.000000000000000 -100.000000000000000 31856
Fri Apr 25 00:00:00 GMT 2014 laurob_St._John's_University__reporter8 Tulip poplar Liriodendron tulipifera Leaves Unfolding (Early) 40.000000000000000 -100.000000000000000 31842
Fri Apr 25 00:00:00 GMT 2014 laurob_St._John's_University__reporter8 Tulip poplar Liriodendron tulipifera Leaves Changing Color (None) 40.000000000000000 -100.000000000000000 31843
Fri Apr 25 00:00:00 GMT 2014 laurob_St._John's_University__reporter8 Tulip poplar Liriodendron tulipifera Leaves Dropping (None) 40.000000000000000 -100.000000000000000 31844
Fri Apr 25 00:00:00 GMT 2014 laurob_St._John's_University__reporter8 Tulip poplar Liriodendron tulipifera Flowers (None) 40.000000000000000 -100.000000000000000 31845
Fri Apr 25 00:00:00 GMT 2014 laurob_St._John's_University__reporter8 Tulip poplar Liriodendron tulipifera Fruit (None) 40.000000000000000 -100.000000000000000 31846
Fri Apr 25 00:00:00 GMT 2014 laurob_St._John's_University__reporter8 Tulip poplar Liriodendron tulipifera Bud Burst 40.721400000000000 -73.793200000000000 31818
Fri May 02 00:00:00 GMT 2014 laurob_St._John's_University__reporter8 Tulip poplar Liriodendron tulipifera First Leaf 40.721400000000000 -73.793200000000000 31819
Fri Mar 07 00:00:00 GMT 2014 laurob_St._John's_University__reporter8 Tulip poplar Liriodendron tulipifera All Leaves Unfolded 40.721400000000000 -73.793200000000000 31820
Mon May 05 00:00:00 GMT 2014 florulalouisvillensis Tulip poplar Liriodendron tulipifera Leaves Unfolding (Late) 38.238045000000000 -85.702779000000000 31991
Mon May 05 00:00:00 GMT 2014 florulalouisvillensis Tulip poplar Liriodendron tulipifera Leaves Changing Color (None) 38.238045000000000 -85.702779000000000 31992
Mon May 05 00:00:00 GMT 2014 florulalouisvillensis Tulip poplar Liriodendron tulipifera Leaves Dropping (None) 38.238045000000000 -85.702779000000000 31993
Mon May 05 00:00:00 GMT 2014 florulalouisvillensis Tulip poplar Liriodendron tulipifera Flowers (Early) 38.238045000000000 -85.702779000000000 31994
Mon May 05 00:00:00 GMT 2014 florulalouisvillensis Tulip poplar Liriodendron tulipifera Fruit (Late) 38.238045000000000 -85.702779000000000 31995
Mon Apr 14 00:00:00 GMT 2014 acasca1 Tulip poplar Liriodendron tulipifera Bud Burst 39.391765000000000 -76.607773000000000 32173
Tue Apr 22 00:00:00 GMT 2014 acasca1 Tulip poplar Liriodendron tulipifera First Leaf 39.391765000000000 -76.607773000000000 32174
Mon Apr 28 00:00:00 GMT 2014 acasca1 Tulip poplar Liriodendron tulipifera All Leaves Unfolded 39.391765000000000 -76.607773000000000 32175
Mon Apr 14 00:00:00 GMT 2014 gsmith3 Tulip poplar Liriodendron tulipifera Bud Burst 39.394270000000000 -76.610520000000000 32192
Mon Apr 21 00:00:00 GMT 2014 gsmith3 Tulip poplar Liriodendron tulipifera First Leaf 39.394270000000000 -76.610520000000000 32193
Tue Apr 29 00:00:00 GMT 2014 gsmith3 Tulip poplar Liriodendron tulipifera All Leaves Unfolded 39.394270000000000 -76.610520000000000 32194
Sat May 17 00:00:00 GMT 2014 kmoconnor Tulip poplar Liriodendron tulipifera Full Flower 38.491900000000000 -77.562700000000000 32585
Mon Mar 31 00:00:00 GMT 2014 tuckerasso Tulip poplar Liriodendron tulipifera First Leaf 37.231600000000000 -76.663600000000000 32883
Thu Apr 10 00:00:00 GMT 2014 tuckerasso Tulip poplar Liriodendron tulipifera All Leaves Unfolded 37.231600000000000 -76.663600000000000 32884
Sat Apr 19 00:00:00 GMT 2014 tuckerasso Tulip poplar Liriodendron tulipifera First Flower 37.231600000000000 -76.663600000000000 32885
Fri May 02 00:00:00 GMT 2014 tuckerasso Tulip poplar Liriodendron tulipifera Full Flower 37.231600000000000 -76.663600000000000 32886
Sun May 18 00:00:00 GMT 2014 aumc Tulip poplar Liriodendron tulipifera First Flower 45.521190000000000 -122.591170000000000 32933
Sun Apr 20 00:00:00 GMT 2014 reinsteinwoods Tulip poplar Liriodendron tulipifera Bud Burst 42.886600000000000 -78.718100000000000 34364
Thu May 01 00:00:00 GMT 2014 reinsteinwoods Tulip poplar Liriodendron tulipifera First Leaf 42.886600000000000 -78.718100000000000 34365
Tue May 20 00:00:00 GMT 2014 reinsteinwoods Tulip poplar Liriodendron tulipifera All Leaves Unfolded 42.886600000000000 -78.718100000000000 34366
Thu Jun 05 00:00:00 GMT 2014 reinsteinwoods Tulip poplar Liriodendron tulipifera First Flower 42.886600000000000 -78.718100000000000 34367
Wed Jun 18 00:00:00 GMT 2014 reinsteinwoods Tulip poplar Liriodendron tulipifera Full Flower 42.886600000000000 -78.718100000000000 34368
Mon Mar 31 00:00:00 GMT 2014 SusannahPrindle Tulip poplar Liriodendron tulipifera Bud Burst 39.096700000000000 -77.023900000000000 34910
Wed Apr 09 00:00:00 GMT 2014 SusannahPrindle Tulip poplar Liriodendron tulipifera First Leaf 39.096700000000000 -77.023900000000000 34911
Sun Apr 13 00:00:00 GMT 2014 SusannahPrindle Tulip poplar Liriodendron tulipifera All Leaves Unfolded 39.096700000000000 -77.023900000000000 34912
Wed May 21 00:00:00 GMT 2014 SusannahPrindle Tulip poplar Liriodendron tulipifera First Flower 39.096700000000000 -77.023900000000000 34913
Wed Mar 26 00:00:00 GMT 2014 SusannahPrindle Tulip poplar Liriodendron tulipifera Bud Burst 39.066800000000000 -76.996900000000000 34970
Fri Apr 11 00:00:00 GMT 2014 SusannahPrindle Tulip poplar Liriodendron tulipifera First Leaf 39.066800000000000 -76.996900000000000 34971
Sun Apr 13 00:00:00 GMT 2014 SusannahPrindle Tulip poplar Liriodendron tulipifera All Leaves Unfolded 39.066800000000000 -76.996900000000000 34972
Thu May 15 00:00:00 GMT 2014 SusannahPrindle Tulip poplar Liriodendron tulipifera First Flower 39.066800000000000 -76.996900000000000 34973
Sun May 18 00:00:00 GMT 2014 SusannahPrindle Tulip poplar Liriodendron tulipifera Full Flower 39.066800000000000 -76.996900000000000 34974
Wed Sep 17 00:00:00 GMT 2014 Jimdud Tulip poplar Liriodendron tulipifera Bud Burst 35.119698000000000 -86.289432000000000 35462
Mon Sep 22 00:00:00 GMT 2014 kevinkernodle Tulip poplar Liriodendron tulipifera Leaves Unfolding (None) 36.659840000000000 -79.797210000000000 35587
Mon Sep 22 00:00:00 GMT 2014 kevinkernodle Tulip poplar Liriodendron tulipifera Leaves Changing Color (None) 36.659840000000000 -79.797210000000000 35588
Mon Sep 22 00:00:00 GMT 2014 kevinkernodle Tulip poplar Liriodendron tulipifera Leaves Dropping (None) 36.659840000000000 -79.797210000000000 35589
Mon Sep 22 00:00:00 GMT 2014 kevinkernodle Tulip poplar Liriodendron tulipifera Flowers (None) 36.659840000000000 -79.797210000000000 35590
Mon Sep 22 00:00:00 GMT 2014 kevinkernodle Tulip poplar Liriodendron tulipifera Fruit (None) 36.659840000000000 -79.797210000000000 35591
Thu Sep 25 00:00:00 GMT 2014 Jimdud Tulip poplar Liriodendron tulipifera 50% Color 35.119698000000000 -86.289432000000000 35672
Wed Oct 01 00:00:00 GMT 2014 kevinkernodle Tulip poplar Liriodendron tulipifera Leaves Unfolding (None) 36.659840000000000 -79.797020000000000 35905
Wed Oct 01 00:00:00 GMT 2014 kevinkernodle Tulip poplar Liriodendron tulipifera Leaves Changing Color (Early) 36.659840000000000 -79.797020000000000 35906
Wed Oct 01 00:00:00 GMT 2014 kevinkernodle Tulip poplar Liriodendron tulipifera Leaves Dropping (None) 36.659840000000000 -79.797020000000000 35907
Wed Oct 01 00:00:00 GMT 2014 kevinkernodle Tulip poplar Liriodendron tulipifera Flowers (None) 36.659840000000000 -79.797020000000000 35908
Wed Oct 01 00:00:00 GMT 2014 kevinkernodle Tulip poplar Liriodendron tulipifera Fruit (None) 36.659840000000000 -79.797020000000000 35909
Mon Oct 13 00:00:00 GMT 2014 Jimdud Tulip poplar Liriodendron tulipifera 50% Leaf Fall 35.119698000000000 -86.289432000000000 37086
Wed Oct 22 00:00:00 GMT 2014 kevinkernodle Tulip poplar Liriodendron tulipifera Leaves Unfolding (Middle) 36.659840000000000 -79.797210000000000 39190
Wed Oct 22 00:00:00 GMT 2014 kevinkernodle Tulip poplar Liriodendron tulipifera Leaves Changing Color (Middle) 36.659840000000000 -79.797210000000000 39191
Wed Oct 22 00:00:00 GMT 2014 kevinkernodle Tulip poplar Liriodendron tulipifera Leaves Dropping (Middle) 36.659840000000000 -79.797210000000000 39192
Wed Oct 22 00:00:00 GMT 2014 kevinkernodle Tulip poplar Liriodendron tulipifera Flowers (None) 36.659840000000000 -79.797210000000000 39193
Wed Oct 22 00:00:00 GMT 2014 kevinkernodle Tulip poplar Liriodendron tulipifera Fruit (None) 36.659840000000000 -79.797210000000000 39194
Fri Oct 31 00:00:00 GMT 2014 kevinkernodle Tulip poplar Liriodendron tulipifera Leaves Unfolding (None) 36.659840000000000 -79.797020000000000 39587
Fri Oct 31 00:00:00 GMT 2014 kevinkernodle Tulip poplar Liriodendron tulipifera Leaves Changing Color (None) 36.659840000000000 -79.797020000000000 39588
Fri Oct 31 00:00:00 GMT 2014 kevinkernodle Tulip poplar Liriodendron tulipifera Leaves Dropping (None) 36.659840000000000 -79.797020000000000 39589
Fri Oct 31 00:00:00 GMT 2014 kevinkernodle Tulip poplar Liriodendron tulipifera Flowers (None) 36.659840000000000 -79.797020000000000 39590
Fri Oct 31 00:00:00 GMT 2014 kevinkernodle Tulip poplar Liriodendron tulipifera Fruit (None) 36.659840000000000 -79.797020000000000 39591
Mon Oct 27 00:00:00 GMT 2014 reinsteinwoods Tulip poplar Liriodendron tulipifera First Ripe Fruit 42.886600000000000 -78.718100000000000 40110
Tue Nov 04 00:00:00 GMT 2014 reinsteinwoods Tulip poplar Liriodendron tulipifera Full Fruiting 42.886600000000000 -78.718100000000000 40111
Wed Oct 01 00:00:00 GMT 2014 reinsteinwoods Tulip poplar Liriodendron tulipifera 50% Color 42.886600000000000 -78.718100000000000 40112
Mon Oct 27 00:00:00 GMT 2014 reinsteinwoods Tulip poplar Liriodendron tulipifera 50% Leaf Fall 42.886600000000000 -78.718100000000000 40113
Mon Jan 05 00:00:00 GMT 2015 kakirob Tulip poplar Liriodendron tulipifera Bud Burst 38.231530000000000 -85.818770000000000 42930
Wed Mar 26 00:00:00 GMT 2014 SusannahPrindle Tulip poplar Liriodendron tulipifera Bud Burst 39.066800000000000 -76.996900000000000 43009
Fri Apr 11 00:00:00 GMT 2014 SusannahPrindle Tulip poplar Liriodendron tulipifera First Leaf 39.066800000000000 -76.996900000000000 43010
Sun Apr 13 00:00:00 GMT 2014 SusannahPrindle Tulip poplar Liriodendron tulipifera All Leaves Unfolded 39.066800000000000 -76.996900000000000 43011
Thu May 15 00:00:00 GMT 2014 SusannahPrindle Tulip poplar Liriodendron tulipifera First Flower 39.066800000000000 -76.996900000000000 43012
Sun May 18 00:00:00 GMT 2014 SusannahPrindle Tulip poplar Liriodendron tulipifera Full Flower 39.066800000000000 -76.996900000000000 43013
Mon Oct 20 00:00:00 GMT 2014 SusannahPrindle Tulip poplar Liriodendron tulipifera First Ripe Fruit 39.066800000000000 -76.996900000000000 43014
Sat Oct 25 00:00:00 GMT 2014 SusannahPrindle Tulip poplar Liriodendron tulipifera Full Fruiting 39.066800000000000 -76.996900000000000 43015
Sat Oct 25 00:00:00 GMT 2014 SusannahPrindle Tulip poplar Liriodendron tulipifera 50% Color 39.066800000000000 -76.996900000000000 43016
Wed Nov 05 00:00:00 GMT 2014 SusannahPrindle Tulip poplar Liriodendron tulipifera 50% Leaf Fall 39.066800000000000 -76.996900000000000 43017
Mon Mar 31 00:00:00 GMT 2014 SusannahPrindle Tulip poplar Liriodendron tulipifera Bud Burst 39.096700000000000 -77.023900000000000 43003
Wed Apr 09 00:00:00 GMT 2014 SusannahPrindle Tulip poplar Liriodendron tulipifera First Leaf 39.096700000000000 -77.023900000000000 43004
Wed Apr 09 00:00:00 GMT 2014 SusannahPrindle Tulip poplar Liriodendron tulipifera All Leaves Unfolded 39.096700000000000 -77.023900000000000 43005
Wed May 21 00:00:00 GMT 2014 SusannahPrindle Tulip poplar Liriodendron tulipifera First Flower 39.096700000000000 -77.023900000000000 43006
Thu Oct 30 00:00:00 GMT 2014 SusannahPrindle Tulip poplar Liriodendron tulipifera 50% Color 39.096700000000000 -77.023900000000000 43007
Tue Nov 04 00:00:00 GMT 2014 SusannahPrindle Tulip poplar Liriodendron tulipifera 50% Leaf Fall 39.096700000000000 -77.023900000000000 43008
Fri Apr 11 00:00:00 GMT 2014 srulison Tulip poplar Liriodendron tulipifera First Leaf 37.540000000000000 -75.920000000000000 44387
Sat Apr 12 00:00:00 GMT 2014 srulison Tulip poplar Liriodendron tulipifera All Leaves Unfolded 37.540000000000000 -75.920000000000000 44388
Mon Mar 16 00:00:00 GMT 2015 susansteinermhs Tulip poplar Liriodendron tulipifera Bud Burst 35.100330000000000 -84.016310000000000 44929
Thu Mar 26 00:00:00 GMT 2015 hern1770 Tulip poplar Liriodendron tulipifera Leaves Unfolding (Early) 39.533340000000000 -95.148730000000000 45353
Thu Mar 26 00:00:00 GMT 2015 hern1770 Tulip poplar Liriodendron tulipifera Leaves Changing Color (None) 39.533340000000000 -95.148730000000000 45354
Thu Mar 26 00:00:00 GMT 2015 hern1770 Tulip poplar Liriodendron tulipifera Leaves Dropping (None) 39.533340000000000 -95.148730000000000 45355
Thu Mar 26 00:00:00 GMT 2015 hern1770 Tulip poplar Liriodendron tulipifera Flowers (Early) 39.533340000000000 -95.148730000000000 45356
Thu Mar 26 00:00:00 GMT 2015 hern1770 Tulip poplar Liriodendron tulipifera Fruit (None) 39.533340000000000 -95.148730000000000 45357
Fri Mar 27 00:00:00 GMT 2015 LauraTibbs Tulip poplar Liriodendron tulipifera Leaves Unfolding (Early) 39.533340000000000 -95.148730000000000 45408
Fri Mar 27 00:00:00 GMT 2015 LauraTibbs Tulip poplar Liriodendron tulipifera Leaves Changing Color (None) 39.533340000000000 -95.148730000000000 45409
Fri Mar 27 00:00:00 GMT 2015 LauraTibbs Tulip poplar Liriodendron tulipifera Leaves Dropping (None) 39.533340000000000 -95.148730000000000 45410
Fri Mar 27 00:00:00 GMT 2015 LauraTibbs Tulip poplar Liriodendron tulipifera Flowers (Early) 39.533340000000000 -95.148730000000000 45411
Fri Mar 27 00:00:00 GMT 2015 LauraTibbs Tulip poplar Liriodendron tulipifera Fruit (None) 39.533340000000000 -95.148730000000000 45412
Fri Mar 27 00:00:00 GMT 2015 AndrewBurnes Tulip poplar Liriodendron tulipifera Bud Burst 33.833421000000000 -84.303546000000000 45414
Fri Mar 20 00:00:00 GMT 2015 susansteinermhs Tulip poplar Liriodendron tulipifera First Leaf 35.100330000000000 -84.016310000000000 45971
Tue Apr 07 00:00:00 GMT 2015 susansteinermhs Tulip poplar Liriodendron tulipifera All Leaves Unfolded 35.100330000000000 -84.016310000000000 45972
Tue Apr 07 00:00:00 GMT 2015 Angelyn Tulip poplar Liriodendron tulipifera Bud Burst 35.619100000000000 -82.765100000000000 46186
Fri Apr 10 00:00:00 GMT 2015 Angelyn Tulip poplar Liriodendron tulipifera First Leaf 35.619100000000000 -82.765100000000000 46187
Sun Apr 12 00:00:00 GMT 2015 lcforbes Tulip poplar Liriodendron tulipifera Leaves Unfolding (None) 39.164829000000000 -86.522999000000000 46359
Sun Apr 12 00:00:00 GMT 2015 lcforbes Tulip poplar Liriodendron tulipifera Leaves Changing Color (None) 39.164829000000000 -86.522999000000000 46360
Sun Apr 12 00:00:00 GMT 2015 lcforbes Tulip poplar Liriodendron tulipifera Leaves Dropping (None) 39.164829000000000 -86.522999000000000 46361
Sun Apr 12 00:00:00 GMT 2015 lcforbes Tulip poplar Liriodendron tulipifera Flowers (None) 39.164829000000000 -86.522999000000000 46362
Sun Apr 12 00:00:00 GMT 2015 lcforbes Tulip poplar Liriodendron tulipifera Fruit (None) 39.164829000000000 -86.522999000000000 46363
Sun Apr 12 00:00:00 GMT 2015 lcforbes Tulip poplar Liriodendron tulipifera Leaves Unfolding (Early) 39.157438000000000 -86.510934000000000 46374
Sun Apr 12 00:00:00 GMT 2015 lcforbes Tulip poplar Liriodendron tulipifera Leaves Changing Color (None) 39.157438000000000 -86.510934000000000 46375
Sun Apr 12 00:00:00 GMT 2015 lcforbes Tulip poplar Liriodendron tulipifera Leaves Dropping (None) 39.157438000000000 -86.510934000000000 46376
Sun Apr 12 00:00:00 GMT 2015 lcforbes Tulip poplar Liriodendron tulipifera Flowers (None) 39.157438000000000 -86.510934000000000 46377
Sun Apr 12 00:00:00 GMT 2015 lcforbes Tulip poplar Liriodendron tulipifera Fruit (None) 39.157438000000000 -86.510934000000000 46378
Tue Mar 31 00:00:00 GMT 2015 aschmidt Tulip poplar Liriodendron tulipifera Leaves Unfolding (None) 39.166069000000000 -86.511679000000000 46386
Tue Mar 31 00:00:00 GMT 2015 aschmidt Tulip poplar Liriodendron tulipifera Leaves Changing Color (None) 39.166069000000000 -86.511679000000000 46387
Tue Mar 31 00:00:00 GMT 2015 aschmidt Tulip poplar Liriodendron tulipifera Leaves Dropping (None) 39.166069000000000 -86.511679000000000 46388
Tue Mar 31 00:00:00 GMT 2015 aschmidt Tulip poplar Liriodendron tulipifera Flowers (None) 39.166069000000000 -86.511679000000000 46389
Tue Mar 31 00:00:00 GMT 2015 aschmidt Tulip poplar Liriodendron tulipifera Fruit (None) 39.166069000000000 -86.511679000000000 46390
Thu Apr 02 00:00:00 GMT 2015 vigsmith Tulip poplar Liriodendron tulipifera Bud Burst 39.182240000000000 -86.528621000000000 46442
Fri Apr 10 00:00:00 GMT 2015 vigsmith Tulip poplar Liriodendron tulipifera First Leaf 39.182240000000000 -86.528621000000000 46443
Thu Apr 02 00:00:00 GMT 2015 alexandralake Tulip poplar Liriodendron tulipifera Bud Burst 39.169690000000000 -86.506880000000000 46441
Tue Feb 24 00:00:00 GMT 2015 smramp Tulip poplar Liriodendron tulipifera Bud Burst 39.165330000000000 -86.526390000000000 46471
Mon Apr 13 00:00:00 GMT 2015 AndrewBurnes Tulip poplar Liriodendron tulipifera First Leaf 33.833421000000000 -84.303546000000000 47017
Mon Apr 20 00:00:00 GMT 2015 AndrewBurnes Tulip poplar Liriodendron tulipifera All Leaves Unfolded 33.833421000000000 -84.303546000000000 47018
Mon Apr 20 00:00:00 GMT 2015 AlanCrowell Tulip poplar Liriodendron tulipifera First Leaf 39.597688000000000 -80.244141000000000 47301
Thu Apr 16 00:00:00 GMT 2015 muskrattown Tulip poplar Liriodendron tulipifera Bud Burst 38.449744000000000 -75.136163000000000 47504
Sat Apr 18 00:00:00 GMT 2015 muskrattown Tulip poplar Liriodendron tulipifera First Leaf 38.449744000000000 -75.136163000000000 47505
Sun Apr 19 00:00:00 GMT 2015 muskrattown Tulip poplar Liriodendron tulipifera All Leaves Unfolded 38.449744000000000 -75.136163000000000 47506
Fri Apr 24 00:00:00 GMT 2015 AndrewBurnes Tulip poplar Liriodendron tulipifera First Flower 33.833421000000000 -84.303546000000000 47685
Sat Apr 25 00:00:00 GMT 2015 poleson Tulip poplar Liriodendron tulipifera Bud Burst 40.800840000000000 -85.131750000000000 47767
Fri Apr 10 00:00:00 GMT 2015 kakirob Tulip poplar Liriodendron tulipifera First Leaf 38.231530000000000 -85.818770000000000 48003
Mon Apr 27 00:00:00 GMT 2015 TheFrenchFairy Tulip poplar Liriodendron tulipifera Bud Burst 40.250380000000000 -75.324370000000000 47999
Mon Apr 20 00:00:00 GMT 2015 woodsedge Tulip poplar Liriodendron tulipifera First Leaf 38.565400000000000 -78.926000000000000 48824
Tue May 05 00:00:00 GMT 2015 Riccardino Tulip poplar Liriodendron tulipifera Leaves Unfolding (Late) 41.259870000000000 -73.531350000000000 49314
Tue May 05 00:00:00 GMT 2015 Riccardino Tulip poplar Liriodendron tulipifera Leaves Changing Color (None) 41.259870000000000 -73.531350000000000 49315
Tue May 05 00:00:00 GMT 2015 Riccardino Tulip poplar Liriodendron tulipifera Leaves Dropping (None) 41.259870000000000 -73.531350000000000 49316
Tue May 05 00:00:00 GMT 2015 Riccardino Tulip poplar Liriodendron tulipifera Flowers (None) 41.259870000000000 -73.531350000000000 49317
Tue May 05 00:00:00 GMT 2015 Riccardino Tulip poplar Liriodendron tulipifera Fruit (None) 41.259870000000000 -73.531350000000000 49318
Mon Apr 13 00:00:00 GMT 2015 laurob_St._John's_University__reporter8 Tulip poplar Liriodendron tulipifera Bud Burst 40.721400000000000 -73.793200000000000 49391
Thu Apr 16 00:00:00 GMT 2015 laurob_St._John's_University__reporter8 Tulip poplar Liriodendron tulipifera First Leaf 40.721400000000000 -73.793200000000000 49392
Thu Apr 30 00:00:00 GMT 2015 laurob_St._John's_University__reporter8 Tulip poplar Liriodendron tulipifera All Leaves Unfolded 40.721400000000000 -73.793200000000000 49393
Mon Apr 13 00:00:00 GMT 2015 laurob_St._John's_University__reporter8 Tulip poplar Liriodendron tulipifera Bud Burst 40.721400000000000 -73.793200000000000 49394
Thu Apr 16 00:00:00 GMT 2015 laurob_St._John's_University__reporter8 Tulip poplar Liriodendron tulipifera First Leaf 40.721400000000000 -73.793200000000000 49395
Thu Apr 30 00:00:00 GMT 2015 laurob_St._John's_University__reporter8 Tulip poplar Liriodendron tulipifera All Leaves Unfolded 40.721400000000000 -73.793200000000000 49396
Tue May 05 00:00:00 GMT 2015 woodsedge Tulip poplar Liriodendron tulipifera All Leaves Unfolded 38.565400000000000 -78.926000000000000 49419
Mon May 11 00:00:00 GMT 2015 Angelyn Tulip poplar Liriodendron tulipifera Full Flower 35.619100000000000 -82.765100000000000 50162
Thu Mar 26 00:00:00 GMT 2015 SusannahPrindle Tulip poplar Liriodendron tulipifera Bud Burst 39.096700000000000 -77.023900000000000 51871
Mon Apr 06 00:00:00 GMT 2015 SusannahPrindle Tulip poplar Liriodendron tulipifera First Leaf 39.096700000000000 -77.023900000000000 51872
Wed Mar 11 00:00:00 GMT 2015 SusannahPrindle Tulip poplar Liriodendron tulipifera All Leaves Unfolded 39.096700000000000 -77.023900000000000 51873
Mon May 11 00:00:00 GMT 2015 SusannahPrindle Tulip poplar Liriodendron tulipifera First Flower 39.096700000000000 -77.023900000000000 51874
Thu May 14 00:00:00 GMT 2015 SusannahPrindle Tulip poplar Liriodendron tulipifera Full Flower 39.096700000000000 -77.023900000000000 51875
Thu Apr 02 00:00:00 GMT 2015 SusannahPrindle Tulip poplar Liriodendron tulipifera Bud Burst 39.066800000000000 -76.996900000000000 51879
Wed Apr 08 00:00:00 GMT 2015 SusannahPrindle Tulip poplar Liriodendron tulipifera First Leaf 39.066800000000000 -76.996900000000000 51880
Tue Apr 14 00:00:00 GMT 2015 SusannahPrindle Tulip poplar Liriodendron tulipifera All Leaves Unfolded 39.066800000000000 -76.996900000000000 51881
Tue May 12 00:00:00 GMT 2015 SusannahPrindle Tulip poplar Liriodendron tulipifera First Flower 39.066800000000000 -76.996900000000000 51882
Thu May 14 00:00:00 GMT 2015 SusannahPrindle Tulip poplar Liriodendron tulipifera Full Flower 39.066800000000000 -76.996900000000000 51883
Sat Apr 05 00:00:00 GMT 2014 ncmns Tulip poplar Liriodendron tulipifera Leaves Unfolding (Early) 35.811680000000000 -78.713930000000000 52279
Sat Apr 05 00:00:00 GMT 2014 ncmns Tulip poplar Liriodendron tulipifera Leaves Changing Color (None) 35.811680000000000 -78.713930000000000 52280
Sat Apr 05 00:00:00 GMT 2014 ncmns Tulip poplar Liriodendron tulipifera Leaves Dropping (None) 35.811680000000000 -78.713930000000000 52281
Sat Apr 05 00:00:00 GMT 2014 ncmns Tulip poplar Liriodendron tulipifera Flowers (None) 35.811680000000000 -78.713930000000000 52282
Sat Apr 05 00:00:00 GMT 2014 ncmns Tulip poplar Liriodendron tulipifera Fruit (None) 35.811680000000000 -78.713930000000000 52283
Sat Oct 11 00:00:00 GMT 2014 ncmns Tulip poplar Liriodendron tulipifera Leaves Unfolding (None) 35.811680000000000 -78.713930000000000 52324
Sat Oct 11 00:00:00 GMT 2014 ncmns Tulip poplar Liriodendron tulipifera Leaves Changing Color (Early) 35.811680000000000 -78.713930000000000 52325
Sat Oct 11 00:00:00 GMT 2014 ncmns Tulip poplar Liriodendron tulipifera Leaves Dropping (Early) 35.811680000000000 -78.713930000000000 52326
Sat Oct 11 00:00:00 GMT 2014 ncmns Tulip poplar Liriodendron tulipifera Flowers (None) 35.811680000000000 -78.713930000000000 52327
Sat Oct 11 00:00:00 GMT 2014 ncmns Tulip poplar Liriodendron tulipifera Fruit (Late) 35.811680000000000 -78.713930000000000 52328
Fri Aug 21 00:00:00 GMT 2015 ncmns Tulip poplar Liriodendron tulipifera Leaves Unfolding (None) 35.811680000000000 -78.713930000000000 52364
Fri Aug 21 00:00:00 GMT 2015 ncmns Tulip poplar Liriodendron tulipifera Leaves Changing Color (Late) 35.811680000000000 -78.713930000000000 52365
Fri Aug 21 00:00:00 GMT 2015 ncmns Tulip poplar Liriodendron tulipifera Leaves Dropping (Late) 35.811680000000000 -78.713930000000000 52366
Fri Aug 21 00:00:00 GMT 2015 ncmns Tulip poplar Liriodendron tulipifera Flowers (None) 35.811680000000000 -78.713930000000000 52367
Fri Aug 21 00:00:00 GMT 2015 ncmns Tulip poplar Liriodendron tulipifera Fruit (Middle) 35.811680000000000 -78.713930000000000 52368
Thu Mar 20 00:00:00 GMT 2014 ncmns Tulip poplar Liriodendron tulipifera Leaves Unfolding (None) 35.811680000000000 -78.713930000000000 52399
Thu Mar 20 00:00:00 GMT 2014 ncmns Tulip poplar Liriodendron tulipifera Leaves Changing Color (None) 35.811680000000000 -78.713930000000000 52400
Thu Mar 20 00:00:00 GMT 2014 ncmns Tulip poplar Liriodendron tulipifera Leaves Dropping (None) 35.811680000000000 -78.713930000000000 52401
Thu Mar 20 00:00:00 GMT 2014 ncmns Tulip poplar Liriodendron tulipifera Flowers (None) 35.811680000000000 -78.713930000000000 52402
Thu Mar 20 00:00:00 GMT 2014 ncmns Tulip poplar Liriodendron tulipifera Fruit (None) 35.811680000000000 -78.713930000000000 52403
Fri Aug 21 00:00:00 GMT 2015 ncmns Tulip poplar Liriodendron tulipifera Leaves Unfolding (Early) 35.811680000000000 -78.713930000000000 52439
Fri Aug 21 00:00:00 GMT 2015 ncmns Tulip poplar Liriodendron tulipifera Leaves Changing Color (None) 35.811680000000000 -78.713930000000000 52440
Fri Aug 21 00:00:00 GMT 2015 ncmns Tulip poplar Liriodendron tulipifera Leaves Dropping (None) 35.811680000000000 -78.713930000000000 52441
Fri Aug 21 00:00:00 GMT 2015 ncmns Tulip poplar Liriodendron tulipifera Flowers (None) 35.811680000000000 -78.713930000000000 52442
Fri Aug 21 00:00:00 GMT 2015 ncmns Tulip poplar Liriodendron tulipifera Fruit (None) 35.811680000000000 -78.713930000000000 52443
Sat Sep 06 00:00:00 GMT 2014 ncmns Tulip poplar Liriodendron tulipifera Leaves Unfolding (None) 35.811680000000000 -78.713930000000000 52474
Sat Sep 06 00:00:00 GMT 2014 ncmns Tulip poplar Liriodendron tulipifera Leaves Changing Color (Early) 35.811680000000000 -78.713930000000000 52475
Sat Sep 06 00:00:00 GMT 2014 ncmns Tulip poplar Liriodendron tulipifera Leaves Dropping (Early) 35.811680000000000 -78.713930000000000 52476
Sat Sep 06 00:00:00 GMT 2014 ncmns Tulip poplar Liriodendron tulipifera Flowers (None) 35.811680000000000 -78.713930000000000 52477
Sat Sep 06 00:00:00 GMT 2014 ncmns Tulip poplar Liriodendron tulipifera Fruit (Early) 35.811680000000000 -78.713930000000000 52478
Sat Sep 20 00:00:00 GMT 2014 ncmns Tulip poplar Liriodendron tulipifera Leaves Unfolding (None) 35.811680000000000 -78.713930000000000 52509
Sat Sep 20 00:00:00 GMT 2014 ncmns Tulip poplar Liriodendron tulipifera Leaves Changing Color (Early) 35.811680000000000 -78.713930000000000 52510
Sat Sep 20 00:00:00 GMT 2014 ncmns Tulip poplar Liriodendron tulipifera Leaves Dropping (Early) 35.811680000000000 -78.713930000000000 52511
Sat Sep 20 00:00:00 GMT 2014 ncmns Tulip poplar Liriodendron tulipifera Flowers (None) 35.811680000000000 -78.713930000000000 52512
Sat Sep 20 00:00:00 GMT 2014 ncmns Tulip poplar Liriodendron tulipifera Fruit (Middle) 35.811680000000000 -78.713930000000000 52513
Tue Sep 15 00:00:00 GMT 2015 TremontBudBurst Tulip poplar Liriodendron tulipifera Leaves Unfolding (Late) 35.635376197204610 -83.701478052064320 53193
Tue Sep 15 00:00:00 GMT 2015 TremontBudBurst Tulip poplar Liriodendron tulipifera Leaves Changing Color (Middle) 35.635376197204610 -83.701478052064320 53194
Tue Sep 15 00:00:00 GMT 2015 TremontBudBurst Tulip poplar Liriodendron tulipifera Leaves Dropping (Middle) 35.635376197204610 -83.701478052064320 53195
Tue Sep 15 00:00:00 GMT 2015 TremontBudBurst Tulip poplar Liriodendron tulipifera Flowers (None) 35.635376197204610 -83.701478052064320 53196
Tue Sep 15 00:00:00 GMT 2015 TremontBudBurst Tulip poplar Liriodendron tulipifera Fruit (None) 35.635376197204610 -83.701478052064320 53197
Sun Oct 04 00:00:00 GMT 2015 robinv1_Washington_College_reporter60 Tulip poplar Liriodendron tulipifera Leaves Unfolding (Late) 39.219230000000000 -76.069650000000000 53621
Sun Oct 04 00:00:00 GMT 2015 robinv1_Washington_College_reporter60 Tulip poplar Liriodendron tulipifera Leaves Changing Color (Early) 39.219230000000000 -76.069650000000000 53622
Sun Oct 04 00:00:00 GMT 2015 robinv1_Washington_College_reporter60 Tulip poplar Liriodendron tulipifera Leaves Dropping (Early) 39.219230000000000 -76.069650000000000 53623
Sun Oct 04 00:00:00 GMT 2015 robinv1_Washington_College_reporter60 Tulip poplar Liriodendron tulipifera Flowers (None) 39.219230000000000 -76.069650000000000 53624
Sun Oct 04 00:00:00 GMT 2015 robinv1_Washington_College_reporter60 Tulip poplar Liriodendron tulipifera Fruit (None) 39.219230000000000 -76.069650000000000 53625
Mon Oct 05 00:00:00 GMT 2015 robinv1_Washington_College_reporter54 Tulip poplar Liriodendron tulipifera Leaves Unfolding (Early) 39.217300000000000 -76.068650000000000 53732
Mon Oct 05 00:00:00 GMT 2015 robinv1_Washington_College_reporter54 Tulip poplar Liriodendron tulipifera Leaves Changing Color (Early) 39.217300000000000 -76.068650000000000 53733
Mon Oct 05 00:00:00 GMT 2015 robinv1_Washington_College_reporter54 Tulip poplar Liriodendron tulipifera Leaves Dropping (Early) 39.217300000000000 -76.068650000000000 53734
Mon Oct 05 00:00:00 GMT 2015 robinv1_Washington_College_reporter54 Tulip poplar Liriodendron tulipifera Flowers (None) 39.217300000000000 -76.068650000000000 53735
Mon Oct 05 00:00:00 GMT 2015 robinv1_Washington_College_reporter54 Tulip poplar Liriodendron tulipifera Fruit (None) 39.217300000000000 -76.068650000000000 53736
Tue Oct 06 00:00:00 GMT 2015 lynchkl Tulip poplar Liriodendron tulipifera Leaves Unfolding (Late) 39.655200000000000 -84.224100000000000 53802
Tue Oct 06 00:00:00 GMT 2015 lynchkl Tulip poplar Liriodendron tulipifera Leaves Changing Color (Middle) 39.655200000000000 -84.224100000000000 53803
Tue Oct 06 00:00:00 GMT 2015 lynchkl Tulip poplar Liriodendron tulipifera Leaves Dropping (Early) 39.655200000000000 -84.224100000000000 53804
Tue Oct 06 00:00:00 GMT 2015 lynchkl Tulip poplar Liriodendron tulipifera Flowers (None) 39.655200000000000 -84.224100000000000 53805
Tue Oct 06 00:00:00 GMT 2015 lynchkl Tulip poplar Liriodendron tulipifera Fruit (None) 39.655200000000000 -84.224100000000000 53806
Fri Oct 09 00:00:00 GMT 2015 MOsman_Bellevue_State_Park_reporter18 Tulip poplar Liriodendron tulipifera Leaves Unfolding (Late) 39.783970000000000 -75.495100000000000 54158
Fri Oct 09 00:00:00 GMT 2015 MOsman_Bellevue_State_Park_reporter18 Tulip poplar Liriodendron tulipifera Leaves Changing Color (Middle) 39.783970000000000 -75.495100000000000 54159
Fri Oct 09 00:00:00 GMT 2015 MOsman_Bellevue_State_Park_reporter18 Tulip poplar Liriodendron tulipifera Leaves Dropping (Early) 39.783970000000000 -75.495100000000000 54160
Fri Oct 09 00:00:00 GMT 2015 MOsman_Bellevue_State_Park_reporter18 Tulip poplar Liriodendron tulipifera Flowers (None) 39.783970000000000 -75.495100000000000 54161
Fri Oct 09 00:00:00 GMT 2015 MOsman_Bellevue_State_Park_reporter18 Tulip poplar Liriodendron tulipifera Fruit (None) 39.783970000000000 -75.495100000000000 54162
Sat Oct 10 00:00:00 GMT 2015 Angelyn Tulip poplar Liriodendron tulipifera 50% Leaf Fall 35.619100000000000 -82.765100000000000 54221
Thu Oct 29 00:00:00 GMT 2015 addhaas Tulip poplar Liriodendron tulipifera Leaves Unfolding (None) 39.320405000000000 -86.409531000000000 55172
Thu Oct 29 00:00:00 GMT 2015 addhaas Tulip poplar Liriodendron tulipifera Leaves Changing Color (Late) 39.320405000000000 -86.409531000000000 55173
Thu Oct 29 00:00:00 GMT 2015 addhaas Tulip poplar Liriodendron tulipifera Leaves Dropping (Late) 39.320405000000000 -86.409531000000000 55174
Thu Oct 29 00:00:00 GMT 2015 addhaas Tulip poplar Liriodendron tulipifera Flowers (None) 39.320405000000000 -86.409531000000000 55175
Thu Oct 29 00:00:00 GMT 2015 addhaas Tulip poplar Liriodendron tulipifera Fruit (None) 39.320405000000000 -86.409531000000000 55176
Thu Oct 29 00:00:00 GMT 2015 alexandralewis101 Tulip poplar Liriodendron tulipifera Leaves Unfolding (None) 39.320405000000000 -86.409531000000000 55177
Thu Oct 29 00:00:00 GMT 2015 alexandralewis101 Tulip poplar Liriodendron tulipifera Leaves Changing Color (Late) 39.320405000000000 -86.409531000000000 55178
Thu Oct 29 00:00:00 GMT 2015 alexandralewis101 Tulip poplar Liriodendron tulipifera Leaves Dropping (Late) 39.320405000000000 -86.409531000000000 55179
Thu Oct 29 00:00:00 GMT 2015 alexandralewis101 Tulip poplar Liriodendron tulipifera Flowers (None) 39.320405000000000 -86.409531000000000 55180
Thu Oct 29 00:00:00 GMT 2015 alexandralewis101 Tulip poplar Liriodendron tulipifera Fruit (None) 39.320405000000000 -86.409531000000000 55181
Thu Oct 29 00:00:00 GMT 2015 shorvat Tulip poplar Liriodendron tulipifera Leaves Unfolding (Late) 39.654870000000000 -84.225160000000000 55228
Thu Oct 29 00:00:00 GMT 2015 shorvat Tulip poplar Liriodendron tulipifera Leaves Changing Color (Late) 39.654870000000000 -84.225160000000000 55229
Thu Oct 29 00:00:00 GMT 2015 shorvat Tulip poplar Liriodendron tulipifera Leaves Dropping (Middle) 39.654870000000000 -84.225160000000000 55230
Thu Oct 29 00:00:00 GMT 2015 shorvat Tulip poplar Liriodendron tulipifera Flowers (None) 39.654870000000000 -84.225160000000000 55231
Thu Oct 29 00:00:00 GMT 2015 shorvat Tulip poplar Liriodendron tulipifera Fruit (Middle) 39.654870000000000 -84.225160000000000 55232
Thu Apr 30 00:00:00 GMT 2015 reinsteinwoods Tulip poplar Liriodendron tulipifera Bud Burst 42.886600000000000 -78.718100000000000 55393
Sat May 09 00:00:00 GMT 2015 reinsteinwoods Tulip poplar Liriodendron tulipifera First Leaf 42.886600000000000 -78.718100000000000 55394
Fri May 22 00:00:00 GMT 2015 reinsteinwoods Tulip poplar Liriodendron tulipifera All Leaves Unfolded 42.886600000000000 -78.718100000000000 55395
Fri Jun 05 00:00:00 GMT 2015 reinsteinwoods Tulip poplar Liriodendron tulipifera First Flower 42.886600000000000 -78.718100000000000 55396
Mon Jun 15 00:00:00 GMT 2015 reinsteinwoods Tulip poplar Liriodendron tulipifera Full Flower 42.886600000000000 -78.718100000000000 55397
Tue Sep 15 00:00:00 GMT 2015 reinsteinwoods Tulip poplar Liriodendron tulipifera First Ripe Fruit 42.886600000000000 -78.718100000000000 55398
Wed Sep 30 00:00:00 GMT 2015 reinsteinwoods Tulip poplar Liriodendron tulipifera Full Fruiting 42.886600000000000 -78.718100000000000 55399
Mon Oct 12 00:00:00 GMT 2015 reinsteinwoods Tulip poplar Liriodendron tulipifera 50% Color 42.886600000000000 -78.718100000000000 55400
Tue Oct 27 00:00:00 GMT 2015 reinsteinwoods Tulip poplar Liriodendron tulipifera 50% Leaf Fall 42.886600000000000 -78.718100000000000 55401
Wed Nov 04 00:00:00 GMT 2015 rshuman Tulip poplar Liriodendron tulipifera Leaves Unfolding (None) 44.697680000000000 -73.533390000000000 55959
Wed Nov 04 00:00:00 GMT 2015 rshuman Tulip poplar Liriodendron tulipifera Leaves Changing Color (Late) 44.697680000000000 -73.533390000000000 55960
Wed Nov 04 00:00:00 GMT 2015 rshuman Tulip poplar Liriodendron tulipifera Leaves Dropping (Late) 44.697680000000000 -73.533390000000000 55961
Wed Nov 04 00:00:00 GMT 2015 rshuman Tulip poplar Liriodendron tulipifera Flowers (None) 44.697680000000000 -73.533390000000000 55962
Wed Nov 04 00:00:00 GMT 2015 rshuman Tulip poplar Liriodendron tulipifera Fruit (Late) 44.697680000000000 -73.533390000000000 55963
Wed Nov 04 00:00:00 GMT 2015 hbiskow Tulip poplar Liriodendron tulipifera 50% Color 39.176550000000000 -86.516080000000000 57291
Tue Nov 17 00:00:00 GMT 2015 hbiskow Tulip poplar Liriodendron tulipifera 50% Leaf Fall 39.176550000000000 -86.516080000000000 57292
Mon Oct 19 00:00:00 GMT 2015 ejpritch Tulip poplar Liriodendron tulipifera 50% Color 38.970140000000000 -86.553880000000000 57316
Thu Oct 15 00:00:00 GMT 2015 ejpritch Tulip poplar Liriodendron tulipifera 50% Leaf Fall 38.970140000000000 -86.553880000000000 57317
Tue Oct 13 00:00:00 GMT 2015 jfenzel Tulip poplar Liriodendron tulipifera 50% Color 39.167050000000000 -86.526940000000000 57394
Thu Oct 29 00:00:00 GMT 2015 jfenzel Tulip poplar Liriodendron tulipifera 50% Leaf Fall 39.167050000000000 -86.526940000000000 57395
Mon Oct 26 00:00:00 GMT 2015 robinv1_Washington_College_reporter36 Tulip poplar Liriodendron tulipifera Leaves Unfolding (Middle) 39.218870000000000 -76.069000000000000 57785
Mon Oct 26 00:00:00 GMT 2015 robinv1_Washington_College_reporter36 Tulip poplar Liriodendron tulipifera Leaves Changing Color (Middle) 39.218870000000000 -76.069000000000000 57786
Mon Oct 26 00:00:00 GMT 2015 robinv1_Washington_College_reporter36 Tulip poplar Liriodendron tulipifera Leaves Dropping (Early) 39.218870000000000 -76.069000000000000 57787
Mon Oct 26 00:00:00 GMT 2015 robinv1_Washington_College_reporter36 Tulip poplar Liriodendron tulipifera Flowers (None) 39.218870000000000 -76.069000000000000 57788
Mon Oct 26 00:00:00 GMT 2015 robinv1_Washington_College_reporter36 Tulip poplar Liriodendron tulipifera Fruit (None) 39.218870000000000 -76.069000000000000 57789
Mon Oct 12 00:00:00 GMT 2015 robinv1_Washington_College_reporter36 Tulip poplar Liriodendron tulipifera Leaves Unfolding (Early) 39.218870000000000 -76.069000000000000 57775
Mon Oct 12 00:00:00 GMT 2015 robinv1_Washington_College_reporter36 Tulip poplar Liriodendron tulipifera Leaves Changing Color (Early) 39.218870000000000 -76.069000000000000 57776
Mon Oct 12 00:00:00 GMT 2015 robinv1_Washington_College_reporter36 Tulip poplar Liriodendron tulipifera Leaves Dropping (Early) 39.218870000000000 -76.069000000000000 57777
Mon Oct 12 00:00:00 GMT 2015 robinv1_Washington_College_reporter36 Tulip poplar Liriodendron tulipifera Flowers (None) 39.218870000000000 -76.069000000000000 57778
Mon Oct 12 00:00:00 GMT 2015 robinv1_Washington_College_reporter36 Tulip poplar Liriodendron tulipifera Fruit (None) 39.218870000000000 -76.069000000000000 57779
Mon Nov 09 00:00:00 GMT 2015 robinv1_Washington_College_reporter36 Tulip poplar Liriodendron tulipifera Leaves Unfolding (Late) 39.218870000000000 -76.069000000000000 57795
Mon Nov 09 00:00:00 GMT 2015 robinv1_Washington_College_reporter36 Tulip poplar Liriodendron tulipifera Leaves Changing Color (Late) 39.218870000000000 -76.069000000000000 57796
Mon Nov 09 00:00:00 GMT 2015 robinv1_Washington_College_reporter36 Tulip poplar Liriodendron tulipifera Leaves Dropping (Late) 39.218870000000000 -76.069000000000000 57797
Mon Nov 09 00:00:00 GMT 2015 robinv1_Washington_College_reporter36 Tulip poplar Liriodendron tulipifera Flowers (None) 39.218870000000000 -76.069000000000000 57798
Mon Nov 09 00:00:00 GMT 2015 robinv1_Washington_College_reporter36 Tulip poplar Liriodendron tulipifera Fruit (None) 39.218870000000000 -76.069000000000000 57799
Mon Nov 30 00:00:00 GMT 2015 robinv1_Washington_College_reporter36 Tulip poplar Liriodendron tulipifera Leaves Unfolding (Late) 39.218870000000000 -76.069000000000000 57800
Mon Nov 30 00:00:00 GMT 2015 robinv1_Washington_College_reporter36 Tulip poplar Liriodendron tulipifera Leaves Changing Color (Late) 39.218870000000000 -76.069000000000000 57801
Mon Nov 02 00:00:00 GMT 2015 robinv1_Washington_College_reporter36 Tulip poplar Liriodendron tulipifera Leaves Unfolding (Middle) 39.218870000000000 -76.069000000000000 57790
Mon Nov 02 00:00:00 GMT 2015 robinv1_Washington_College_reporter36 Tulip poplar Liriodendron tulipifera Leaves Changing Color (Middle) 39.218870000000000 -76.069000000000000 57791
Mon Nov 02 00:00:00 GMT 2015 robinv1_Washington_College_reporter36 Tulip poplar Liriodendron tulipifera Leaves Dropping (Middle) 39.218870000000000 -76.069000000000000 57792
Mon Nov 30 00:00:00 GMT 2015 robinv1_Washington_College_reporter36 Tulip poplar Liriodendron tulipifera Leaves Dropping (Late) 39.218870000000000 -76.069000000000000 57802
Mon Nov 30 00:00:00 GMT 2015 robinv1_Washington_College_reporter36 Tulip poplar Liriodendron tulipifera Flowers (None) 39.218870000000000 -76.069000000000000 57803
Mon Nov 30 00:00:00 GMT 2015 robinv1_Washington_College_reporter36 Tulip poplar Liriodendron tulipifera Fruit (None) 39.218870000000000 -76.069000000000000 57804
Mon Nov 02 00:00:00 GMT 2015 robinv1_Washington_College_reporter36 Tulip poplar Liriodendron tulipifera Flowers (None) 39.218870000000000 -76.069000000000000 57793
Mon Nov 02 00:00:00 GMT 2015 robinv1_Washington_College_reporter36 Tulip poplar Liriodendron tulipifera Fruit (None) 39.218870000000000 -76.069000000000000 57794
Mon Sep 28 00:00:00 GMT 2015 robinv1_Washington_College_reporter36 Tulip poplar Liriodendron tulipifera Leaves Unfolding (Early) 39.218870000000000 -76.069000000000000 57765
Mon Sep 28 00:00:00 GMT 2015 robinv1_Washington_College_reporter36 Tulip poplar Liriodendron tulipifera Leaves Changing Color (Early) 39.218870000000000 -76.069000000000000 57766
Mon Sep 28 00:00:00 GMT 2015 robinv1_Washington_College_reporter36 Tulip poplar Liriodendron tulipifera Leaves Dropping (Early) 39.218870000000000 -76.069000000000000 57767
Mon Sep 28 00:00:00 GMT 2015 robinv1_Washington_College_reporter36 Tulip poplar Liriodendron tulipifera Flowers (None) 39.218870000000000 -76.069000000000000 57768
Mon Sep 28 00:00:00 GMT 2015 robinv1_Washington_College_reporter36 Tulip poplar Liriodendron tulipifera Fruit (None) 39.218870000000000 -76.069000000000000 57769
Mon Oct 05 00:00:00 GMT 2015 robinv1_Washington_College_reporter36 Tulip poplar Liriodendron tulipifera Leaves Unfolding (Early) 39.218870000000000 -76.069000000000000 57770
Mon Oct 05 00:00:00 GMT 2015 robinv1_Washington_College_reporter36 Tulip poplar Liriodendron tulipifera Leaves Changing Color (Early) 39.218870000000000 -76.069000000000000 57771
Mon Oct 05 00:00:00 GMT 2015 robinv1_Washington_College_reporter36 Tulip poplar Liriodendron tulipifera Leaves Dropping (Early) 39.218870000000000 -76.069000000000000 57772
Mon Oct 05 00:00:00 GMT 2015 robinv1_Washington_College_reporter36 Tulip poplar Liriodendron tulipifera Flowers (None) 39.218870000000000 -76.069000000000000 57773
Mon Oct 05 00:00:00 GMT 2015 robinv1_Washington_College_reporter36 Tulip poplar Liriodendron tulipifera Fruit (None) 39.218870000000000 -76.069000000000000 57774
Mon Oct 19 00:00:00 GMT 2015 robinv1_Washington_College_reporter36 Tulip poplar Liriodendron tulipifera Leaves Unfolding (Early) 39.218870000000000 -76.069000000000000 57780
Mon Oct 19 00:00:00 GMT 2015 robinv1_Washington_College_reporter36 Tulip poplar Liriodendron tulipifera Leaves Changing Color (Early) 39.218870000000000 -76.069000000000000 57781
Mon Oct 19 00:00:00 GMT 2015 robinv1_Washington_College_reporter36 Tulip poplar Liriodendron tulipifera Leaves Dropping (Early) 39.218870000000000 -76.069000000000000 57782
Mon Oct 19 00:00:00 GMT 2015 robinv1_Washington_College_reporter36 Tulip poplar Liriodendron tulipifera Flowers (None) 39.218870000000000 -76.069000000000000 57783
Mon Oct 19 00:00:00 GMT 2015 robinv1_Washington_College_reporter36 Tulip poplar Liriodendron tulipifera Fruit (None) 39.218870000000000 -76.069000000000000 57784
Mon Oct 12 00:00:00 GMT 2015 robinv1_Washington_College_reporter54 Tulip poplar Liriodendron tulipifera Leaves Unfolding (None) 39.217300000000000 -76.068650000000000 57750
Mon Oct 12 00:00:00 GMT 2015 robinv1_Washington_College_reporter54 Tulip poplar Liriodendron tulipifera Leaves Changing Color (Early) 39.217300000000000 -76.068650000000000 57751
Mon Oct 12 00:00:00 GMT 2015 robinv1_Washington_College_reporter54 Tulip poplar Liriodendron tulipifera Leaves Dropping (Early) 39.217300000000000 -76.068650000000000 57752
Mon Oct 12 00:00:00 GMT 2015 robinv1_Washington_College_reporter54 Tulip poplar Liriodendron tulipifera Flowers (None) 39.217300000000000 -76.068650000000000 57753
Mon Oct 12 00:00:00 GMT 2015 robinv1_Washington_College_reporter54 Tulip poplar Liriodendron tulipifera Fruit (None) 39.217300000000000 -76.068650000000000 57754
Mon Sep 28 00:00:00 GMT 2015 robinv1_Washington_College_reporter54 Tulip poplar Liriodendron tulipifera Leaves Unfolding (None) 39.217300000000000 -76.068650000000000 57735
Mon Sep 28 00:00:00 GMT 2015 robinv1_Washington_College_reporter54 Tulip poplar Liriodendron tulipifera Leaves Changing Color (Early) 39.217300000000000 -76.068650000000000 57736
Mon Sep 28 00:00:00 GMT 2015 robinv1_Washington_College_reporter54 Tulip poplar Liriodendron tulipifera Leaves Dropping (Early) 39.217300000000000 -76.068650000000000 57737
Mon Sep 28 00:00:00 GMT 2015 robinv1_Washington_College_reporter54 Tulip poplar Liriodendron tulipifera Flowers (None) 39.217300000000000 -76.068650000000000 57738
Mon Sep 28 00:00:00 GMT 2015 robinv1_Washington_College_reporter54 Tulip poplar Liriodendron tulipifera Fruit (None) 39.217300000000000 -76.068650000000000 57739
Mon Oct 26 00:00:00 GMT 2015 robinv1_Washington_College_reporter54 Tulip poplar Liriodendron tulipifera Leaves Changing Color (Early) 39.217300000000000 -76.068650000000000 58084
Mon Oct 26 00:00:00 GMT 2015 robinv1_Washington_College_reporter54 Tulip poplar Liriodendron tulipifera Leaves Dropping (Early) 39.217300000000000 -76.068650000000000 58085
Mon Oct 26 00:00:00 GMT 2015 robinv1_Washington_College_reporter54 Tulip poplar Liriodendron tulipifera Flowers (None) 39.217300000000000 -76.068650000000000 58086
Mon Oct 26 00:00:00 GMT 2015 robinv1_Washington_College_reporter54 Tulip poplar Liriodendron tulipifera Fruit (None) 39.217300000000000 -76.068650000000000 58087
Mon Nov 30 00:00:00 GMT 2015 robinv1_Washington_College_reporter54 Tulip poplar Liriodendron tulipifera Leaves Unfolding (None) 39.217300000000000 -76.068650000000000 58103
Mon Nov 30 00:00:00 GMT 2015 robinv1_Washington_College_reporter54 Tulip poplar Liriodendron tulipifera Leaves Changing Color (Middle) 39.217300000000000 -76.068650000000000 58104
Mon Nov 30 00:00:00 GMT 2015 robinv1_Washington_College_reporter54 Tulip poplar Liriodendron tulipifera Leaves Dropping (Middle) 39.217300000000000 -76.068650000000000 58105
Mon Nov 30 00:00:00 GMT 2015 robinv1_Washington_College_reporter54 Tulip poplar Liriodendron tulipifera Flowers (None) 39.217300000000000 -76.068650000000000 58106
Mon Nov 30 00:00:00 GMT 2015 robinv1_Washington_College_reporter54 Tulip poplar Liriodendron tulipifera Fruit (None) 39.217300000000000 -76.068650000000000 58107
Mon Oct 19 00:00:00 GMT 2015 robinv1_Washington_College_reporter54 Tulip poplar Liriodendron tulipifera Leaves Unfolding (None) 39.217300000000000 -76.068650000000000 58078
Mon Oct 19 00:00:00 GMT 2015 robinv1_Washington_College_reporter54 Tulip poplar Liriodendron tulipifera Leaves Changing Color (Early) 39.217300000000000 -76.068650000000000 58079
Mon Oct 19 00:00:00 GMT 2015 robinv1_Washington_College_reporter54 Tulip poplar Liriodendron tulipifera Leaves Dropping (Early) 39.217300000000000 -76.068650000000000 58080
Mon Oct 19 00:00:00 GMT 2015 robinv1_Washington_College_reporter54 Tulip poplar Liriodendron tulipifera Flowers (None) 39.217300000000000 -76.068650000000000 58081
Mon Oct 19 00:00:00 GMT 2015 robinv1_Washington_College_reporter54 Tulip poplar Liriodendron tulipifera Fruit (None) 39.217300000000000 -76.068650000000000 58082
Mon Nov 02 00:00:00 GMT 2015 robinv1_Washington_College_reporter54 Tulip poplar Liriodendron tulipifera Leaves Unfolding (None) 39.217300000000000 -76.068650000000000 58088
Mon Nov 02 00:00:00 GMT 2015 robinv1_Washington_College_reporter54 Tulip poplar Liriodendron tulipifera Leaves Changing Color (Early) 39.217300000000000 -76.068650000000000 58089
Mon Nov 02 00:00:00 GMT 2015 robinv1_Washington_College_reporter54 Tulip poplar Liriodendron tulipifera Leaves Dropping (Early) 39.217300000000000 -76.068650000000000 58090
Mon Nov 02 00:00:00 GMT 2015 robinv1_Washington_College_reporter54 Tulip poplar Liriodendron tulipifera Flowers (None) 39.217300000000000 -76.068650000000000 58091
Mon Nov 02 00:00:00 GMT 2015 robinv1_Washington_College_reporter54 Tulip poplar Liriodendron tulipifera Fruit (None) 39.217300000000000 -76.068650000000000 58092
Mon Nov 09 00:00:00 GMT 2015 robinv1_Washington_College_reporter54 Tulip poplar Liriodendron tulipifera Leaves Unfolding (None) 39.217300000000000 -76.068650000000000 58093
Mon Nov 09 00:00:00 GMT 2015 robinv1_Washington_College_reporter54 Tulip poplar Liriodendron tulipifera Leaves Changing Color (Middle) 39.217300000000000 -76.068650000000000 58094
Mon Nov 09 00:00:00 GMT 2015 robinv1_Washington_College_reporter54 Tulip poplar Liriodendron tulipifera Leaves Dropping (Middle) 39.217300000000000 -76.068650000000000 58095
Mon Nov 09 00:00:00 GMT 2015 robinv1_Washington_College_reporter54 Tulip poplar Liriodendron tulipifera Flowers (None) 39.217300000000000 -76.068650000000000 58096
Mon Nov 09 00:00:00 GMT 2015 robinv1_Washington_College_reporter54 Tulip poplar Liriodendron tulipifera Fruit (None) 39.217300000000000 -76.068650000000000 58097
Mon Nov 16 00:00:00 GMT 2015 robinv1_Washington_College_reporter54 Tulip poplar Liriodendron tulipifera Leaves Unfolding (None) 39.217300000000000 -76.068650000000000 58098
Mon Nov 16 00:00:00 GMT 2015 robinv1_Washington_College_reporter54 Tulip poplar Liriodendron tulipifera Leaves Changing Color (Middle) 39.217300000000000 -76.068650000000000 58099
Mon Nov 16 00:00:00 GMT 2015 robinv1_Washington_College_reporter54 Tulip poplar Liriodendron tulipifera Leaves Dropping (Middle) 39.217300000000000 -76.068650000000000 58100
Mon Nov 16 00:00:00 GMT 2015 robinv1_Washington_College_reporter54 Tulip poplar Liriodendron tulipifera Flowers (None) 39.217300000000000 -76.068650000000000 58101
Mon Nov 16 00:00:00 GMT 2015 robinv1_Washington_College_reporter54 Tulip poplar Liriodendron tulipifera Fruit (None) 39.217300000000000 -76.068650000000000 58102
Mon Oct 26 00:00:00 GMT 2015 robinv1_Washington_College_reporter54 Tulip poplar Liriodendron tulipifera Leaves Unfolding (None) 39.217300000000000 -76.068650000000000 58083
Mon Sep 28 00:00:00 GMT 2015 robinv1_Washington_College_reporter35 Tulip poplar Liriodendron tulipifera Leaves Unfolding (None) 40.000000000000000 -100.000000000000000 58264
Mon Sep 28 00:00:00 GMT 2015 robinv1_Washington_College_reporter35 Tulip poplar Liriodendron tulipifera Leaves Changing Color (None) 40.000000000000000 -100.000000000000000 58265
Mon Sep 28 00:00:00 GMT 2015 robinv1_Washington_College_reporter35 Tulip poplar Liriodendron tulipifera Leaves Dropping (Early) 40.000000000000000 -100.000000000000000 58266
Mon Sep 28 00:00:00 GMT 2015 robinv1_Washington_College_reporter35 Tulip poplar Liriodendron tulipifera Flowers (None) 40.000000000000000 -100.000000000000000 58267
Mon Sep 28 00:00:00 GMT 2015 robinv1_Washington_College_reporter35 Tulip poplar Liriodendron tulipifera Fruit (None) 40.000000000000000 -100.000000000000000 58268
Mon Oct 05 00:00:00 GMT 2015 robinv1_Washington_College_reporter35 Tulip poplar Liriodendron tulipifera Leaves Unfolding (None) 40.000000000000000 -100.000000000000000 58269
Mon Oct 05 00:00:00 GMT 2015 robinv1_Washington_College_reporter35 Tulip poplar Liriodendron tulipifera Leaves Changing Color (Early) 40.000000000000000 -100.000000000000000 58270
Mon Oct 05 00:00:00 GMT 2015 robinv1_Washington_College_reporter35 Tulip poplar Liriodendron tulipifera Leaves Dropping (Early) 40.000000000000000 -100.000000000000000 58271
Mon Oct 05 00:00:00 GMT 2015 robinv1_Washington_College_reporter35 Tulip poplar Liriodendron tulipifera Flowers (None) 40.000000000000000 -100.000000000000000 58272
Mon Oct 05 00:00:00 GMT 2015 robinv1_Washington_College_reporter35 Tulip poplar Liriodendron tulipifera Fruit (None) 40.000000000000000 -100.000000000000000 58273
Mon Oct 12 00:00:00 GMT 2015 robinv1_Washington_College_reporter35 Tulip poplar Liriodendron tulipifera Leaves Unfolding (None) 40.000000000000000 -100.000000000000000 58274
Mon Oct 12 00:00:00 GMT 2015 robinv1_Washington_College_reporter35 Tulip poplar Liriodendron tulipifera Leaves Changing Color (Early) 40.000000000000000 -100.000000000000000 58275
Mon Oct 12 00:00:00 GMT 2015 robinv1_Washington_College_reporter35 Tulip poplar Liriodendron tulipifera Leaves Dropping (Early) 40.000000000000000 -100.000000000000000 58276
Mon Oct 12 00:00:00 GMT 2015 robinv1_Washington_College_reporter35 Tulip poplar Liriodendron tulipifera Flowers (None) 40.000000000000000 -100.000000000000000 58277
Mon Oct 12 00:00:00 GMT 2015 robinv1_Washington_College_reporter35 Tulip poplar Liriodendron tulipifera Fruit (None) 40.000000000000000 -100.000000000000000 58278
Mon Oct 19 00:00:00 GMT 2015 robinv1_Washington_College_reporter35 Tulip poplar Liriodendron tulipifera Leaves Unfolding (None) 40.000000000000000 -100.000000000000000 58279
Mon Oct 19 00:00:00 GMT 2015 robinv1_Washington_College_reporter35 Tulip poplar Liriodendron tulipifera Leaves Changing Color (Early) 40.000000000000000 -100.000000000000000 58280
Mon Oct 19 00:00:00 GMT 2015 robinv1_Washington_College_reporter35 Tulip poplar Liriodendron tulipifera Leaves Dropping (Early) 40.000000000000000 -100.000000000000000 58281
Mon Oct 19 00:00:00 GMT 2015 robinv1_Washington_College_reporter35 Tulip poplar Liriodendron tulipifera Flowers (None) 40.000000000000000 -100.000000000000000 58282
Mon Oct 19 00:00:00 GMT 2015 robinv1_Washington_College_reporter35 Tulip poplar Liriodendron tulipifera Fruit (None) 40.000000000000000 -100.000000000000000 58283
Mon Oct 26 00:00:00 GMT 2015 robinv1_Washington_College_reporter35 Tulip poplar Liriodendron tulipifera Leaves Unfolding (None) 40.000000000000000 -100.000000000000000 58284
Mon Oct 26 00:00:00 GMT 2015 robinv1_Washington_College_reporter35 Tulip poplar Liriodendron tulipifera Leaves Changing Color (Early) 40.000000000000000 -100.000000000000000 58285
Mon Oct 26 00:00:00 GMT 2015 robinv1_Washington_College_reporter35 Tulip poplar Liriodendron tulipifera Leaves Dropping (Early) 40.000000000000000 -100.000000000000000 58286
Mon Oct 26 00:00:00 GMT 2015 robinv1_Washington_College_reporter35 Tulip poplar Liriodendron tulipifera Flowers (None) 40.000000000000000 -100.000000000000000 58287
Mon Oct 26 00:00:00 GMT 2015 robinv1_Washington_College_reporter35 Tulip poplar Liriodendron tulipifera Fruit (None) 40.000000000000000 -100.000000000000000 58288
Mon Nov 02 00:00:00 GMT 2015 robinv1_Washington_College_reporter35 Tulip poplar Liriodendron tulipifera Leaves Unfolding (None) 40.000000000000000 -100.000000000000000 58289
Mon Nov 02 00:00:00 GMT 2015 robinv1_Washington_College_reporter35 Tulip poplar Liriodendron tulipifera Leaves Changing Color (Early) 40.000000000000000 -100.000000000000000 58290
Mon Nov 02 00:00:00 GMT 2015 robinv1_Washington_College_reporter35 Tulip poplar Liriodendron tulipifera Leaves Dropping (Early) 40.000000000000000 -100.000000000000000 58291
Mon Nov 02 00:00:00 GMT 2015 robinv1_Washington_College_reporter35 Tulip poplar Liriodendron tulipifera Flowers (None) 40.000000000000000 -100.000000000000000 58292
Mon Nov 02 00:00:00 GMT 2015 robinv1_Washington_College_reporter35 Tulip poplar Liriodendron tulipifera Fruit (None) 40.000000000000000 -100.000000000000000 58293
Mon Nov 09 00:00:00 GMT 2015 robinv1_Washington_College_reporter35 Tulip poplar Liriodendron tulipifera Leaves Unfolding (None) 40.000000000000000 -100.000000000000000 58294
Mon Nov 09 00:00:00 GMT 2015 robinv1_Washington_College_reporter35 Tulip poplar Liriodendron tulipifera Leaves Changing Color (Early) 40.000000000000000 -100.000000000000000 58295
Mon Nov 09 00:00:00 GMT 2015 robinv1_Washington_College_reporter35 Tulip poplar Liriodendron tulipifera Leaves Dropping (Early) 40.000000000000000 -100.000000000000000 58296
Mon Nov 09 00:00:00 GMT 2015 robinv1_Washington_College_reporter35 Tulip poplar Liriodendron tulipifera Flowers (None) 40.000000000000000 -100.000000000000000 58297
Mon Nov 09 00:00:00 GMT 2015 robinv1_Washington_College_reporter35 Tulip poplar Liriodendron tulipifera Fruit (None) 40.000000000000000 -100.000000000000000 58298
Mon Nov 16 00:00:00 GMT 2015 robinv1_Washington_College_reporter35 Tulip poplar Liriodendron tulipifera Leaves Unfolding (None) 40.000000000000000 -100.000000000000000 58299
Mon Nov 16 00:00:00 GMT 2015 robinv1_Washington_College_reporter35 Tulip poplar Liriodendron tulipifera Leaves Changing Color (Early) 40.000000000000000 -100.000000000000000 58300
Mon Nov 16 00:00:00 GMT 2015 robinv1_Washington_College_reporter35 Tulip poplar Liriodendron tulipifera Leaves Dropping (Middle) 40.000000000000000 -100.000000000000000 58301
Mon Nov 16 00:00:00 GMT 2015 robinv1_Washington_College_reporter35 Tulip poplar Liriodendron tulipifera Flowers (None) 40.000000000000000 -100.000000000000000 58302
Mon Nov 16 00:00:00 GMT 2015 robinv1_Washington_College_reporter35 Tulip poplar Liriodendron tulipifera Fruit (None) 40.000000000000000 -100.000000000000000 58303
Sun Dec 06 00:00:00 GMT 2015 robinv1_Washington_College_reporter35 Tulip poplar Liriodendron tulipifera Leaves Unfolding (None) 40.000000000000000 -100.000000000000000 58304
Sun Dec 06 00:00:00 GMT 2015 robinv1_Washington_College_reporter35 Tulip poplar Liriodendron tulipifera Leaves Changing Color (Middle) 40.000000000000000 -100.000000000000000 58305
Sun Dec 06 00:00:00 GMT 2015 robinv1_Washington_College_reporter35 Tulip poplar Liriodendron tulipifera Leaves Dropping (Middle) 40.000000000000000 -100.000000000000000 58306
Sun Dec 06 00:00:00 GMT 2015 robinv1_Washington_College_reporter35 Tulip poplar Liriodendron tulipifera Flowers (None) 40.000000000000000 -100.000000000000000 58307
Sun Dec 06 00:00:00 GMT 2015 robinv1_Washington_College_reporter35 Tulip poplar Liriodendron tulipifera Fruit (None) 40.000000000000000 -100.000000000000000 58308
Mon Nov 30 00:00:00 GMT 2015 robinv1_Washington_College_reporter35 Tulip poplar Liriodendron tulipifera Leaves Unfolding (None) 40.000000000000000 -100.000000000000000 58309
Mon Nov 30 00:00:00 GMT 2015 robinv1_Washington_College_reporter35 Tulip poplar Liriodendron tulipifera Leaves Changing Color (Early) 40.000000000000000 -100.000000000000000 58310
Mon Nov 30 00:00:00 GMT 2015 robinv1_Washington_College_reporter35 Tulip poplar Liriodendron tulipifera Leaves Dropping (Middle) 40.000000000000000 -100.000000000000000 58311
Mon Nov 30 00:00:00 GMT 2015 robinv1_Washington_College_reporter35 Tulip poplar Liriodendron tulipifera Flowers (None) 40.000000000000000 -100.000000000000000 58312
Mon Nov 30 00:00:00 GMT 2015 robinv1_Washington_College_reporter35 Tulip poplar Liriodendron tulipifera Fruit (None) 40.000000000000000 -100.000000000000000 58313
Mon Oct 26 00:00:00 GMT 2015 robinv1_Washington_College_reporter53 Tulip poplar Liriodendron tulipifera First Leaf 39.219200000000000 -76.069600000000000 58865
Mon Nov 30 00:00:00 GMT 2015 robinv1_Washington_College_reporter53 Tulip poplar Liriodendron tulipifera All Leaves Unfolded 39.219200000000000 -76.069600000000000 58866
Mon Oct 26 00:00:00 GMT 2015 robinv1_Washington_College_reporter53 Tulip poplar Liriodendron tulipifera 50% Color 39.219200000000000 -76.069600000000000 58867
Mon Oct 12 00:00:00 GMT 2015 robinv1_Washington_College_reporter53 Tulip poplar Liriodendron tulipifera 50% Leaf Fall 39.219200000000000 -76.069600000000000 58868
Tue Sep 29 00:00:00 GMT 2015 robinv1_Washington_College_reporter34 Tulip poplar Liriodendron tulipifera Leaves Unfolding (None) 39.218870000000000 -76.069000000000000 59675
Tue Sep 29 00:00:00 GMT 2015 robinv1_Washington_College_reporter34 Tulip poplar Liriodendron tulipifera Leaves Changing Color (Early) 39.218870000000000 -76.069000000000000 59676
Tue Sep 29 00:00:00 GMT 2015 robinv1_Washington_College_reporter34 Tulip poplar Liriodendron tulipifera Leaves Dropping (None) 39.218870000000000 -76.069000000000000 59677
Tue Sep 29 00:00:00 GMT 2015 robinv1_Washington_College_reporter34 Tulip poplar Liriodendron tulipifera Flowers (None) 39.218870000000000 -76.069000000000000 59678
Tue Sep 29 00:00:00 GMT 2015 robinv1_Washington_College_reporter34 Tulip poplar Liriodendron tulipifera Fruit (None) 39.218870000000000 -76.069000000000000 59679
Tue Oct 06 00:00:00 GMT 2015 robinv1_Washington_College_reporter34 Tulip poplar Liriodendron tulipifera Leaves Unfolding (None) 39.218870000000000 -76.069000000000000 59680
Tue Oct 06 00:00:00 GMT 2015 robinv1_Washington_College_reporter34 Tulip poplar Liriodendron tulipifera Leaves Changing Color (Early) 39.218870000000000 -76.069000000000000 59681
Tue Oct 06 00:00:00 GMT 2015 robinv1_Washington_College_reporter34 Tulip poplar Liriodendron tulipifera Leaves Dropping (None) 39.218870000000000 -76.069000000000000 59682
Tue Oct 06 00:00:00 GMT 2015 robinv1_Washington_College_reporter34 Tulip poplar Liriodendron tulipifera Flowers (None) 39.218870000000000 -76.069000000000000 59683
Tue Oct 06 00:00:00 GMT 2015 robinv1_Washington_College_reporter34 Tulip poplar Liriodendron tulipifera Fruit (None) 39.218870000000000 -76.069000000000000 59684
Tue Oct 13 00:00:00 GMT 2015 robinv1_Washington_College_reporter34 Tulip poplar Liriodendron tulipifera Leaves Unfolding (None) 39.218870000000000 -76.069000000000000 59694
Tue Oct 13 00:00:00 GMT 2015 robinv1_Washington_College_reporter34 Tulip poplar Liriodendron tulipifera Leaves Changing Color (Early) 39.218870000000000 -76.069000000000000 59695
Tue Oct 13 00:00:00 GMT 2015 robinv1_Washington_College_reporter34 Tulip poplar Liriodendron tulipifera Leaves Dropping (Early) 39.218870000000000 -76.069000000000000 59696
Tue Oct 13 00:00:00 GMT 2015 robinv1_Washington_College_reporter34 Tulip poplar Liriodendron tulipifera Flowers (None) 39.218870000000000 -76.069000000000000 59697
Tue Oct 13 00:00:00 GMT 2015 robinv1_Washington_College_reporter34 Tulip poplar Liriodendron tulipifera Fruit (None) 39.218870000000000 -76.069000000000000 59698
Tue Oct 20 00:00:00 GMT 2015 robinv1_Washington_College_reporter34 Tulip poplar Liriodendron tulipifera Leaves Unfolding (None) 39.218870000000000 -76.069000000000000 59699
Tue Oct 20 00:00:00 GMT 2015 robinv1_Washington_College_reporter34 Tulip poplar Liriodendron tulipifera Leaves Changing Color (Early) 39.218870000000000 -76.069000000000000 59700
Tue Oct 20 00:00:00 GMT 2015 robinv1_Washington_College_reporter34 Tulip poplar Liriodendron tulipifera Leaves Dropping (Early) 39.218870000000000 -76.069000000000000 59701
Tue Oct 20 00:00:00 GMT 2015 robinv1_Washington_College_reporter34 Tulip poplar Liriodendron tulipifera Flowers (None) 39.218870000000000 -76.069000000000000 59702
Tue Oct 20 00:00:00 GMT 2015 robinv1_Washington_College_reporter34 Tulip poplar Liriodendron tulipifera Fruit (None) 39.218870000000000 -76.069000000000000 59703
Tue Oct 27 00:00:00 GMT 2015 robinv1_Washington_College_reporter34 Tulip poplar Liriodendron tulipifera Leaves Unfolding (None) 39.218870000000000 -76.069000000000000 59704
Tue Oct 27 00:00:00 GMT 2015 robinv1_Washington_College_reporter34 Tulip poplar Liriodendron tulipifera Leaves Changing Color (Early) 39.218870000000000 -76.069000000000000 59705
Tue Oct 27 00:00:00 GMT 2015 robinv1_Washington_College_reporter34 Tulip poplar Liriodendron tulipifera Leaves Dropping (Early) 39.218870000000000 -76.069000000000000 59706
Tue Oct 27 00:00:00 GMT 2015 robinv1_Washington_College_reporter34 Tulip poplar Liriodendron tulipifera Flowers (None) 39.218870000000000 -76.069000000000000 59707
Tue Oct 27 00:00:00 GMT 2015 robinv1_Washington_College_reporter34 Tulip poplar Liriodendron tulipifera Fruit (None) 39.218870000000000 -76.069000000000000 59708
Tue Nov 03 00:00:00 GMT 2015 robinv1_Washington_College_reporter34 Tulip poplar Liriodendron tulipifera Leaves Unfolding (None) 39.218870000000000 -76.069000000000000 59709
Tue Nov 03 00:00:00 GMT 2015 robinv1_Washington_College_reporter34 Tulip poplar Liriodendron tulipifera Leaves Changing Color (Middle) 39.218870000000000 -76.069000000000000 59710
Tue Nov 03 00:00:00 GMT 2015 robinv1_Washington_College_reporter34 Tulip poplar Liriodendron tulipifera Leaves Dropping (Early) 39.218870000000000 -76.069000000000000 59711
Tue Nov 03 00:00:00 GMT 2015 robinv1_Washington_College_reporter34 Tulip poplar Liriodendron tulipifera Flowers (None) 39.218870000000000 -76.069000000000000 59712
Tue Nov 03 00:00:00 GMT 2015 robinv1_Washington_College_reporter34 Tulip poplar Liriodendron tulipifera Fruit (None) 39.218870000000000 -76.069000000000000 59713
Tue Nov 10 00:00:00 GMT 2015 robinv1_Washington_College_reporter34 Tulip poplar Liriodendron tulipifera Leaves Unfolding (None) 39.218870000000000 -76.069000000000000 59714
Tue Nov 10 00:00:00 GMT 2015 robinv1_Washington_College_reporter34 Tulip poplar Liriodendron tulipifera Leaves Changing Color (Middle) 39.218870000000000 -76.069000000000000 59715
Tue Nov 10 00:00:00 GMT 2015 robinv1_Washington_College_reporter34 Tulip poplar Liriodendron tulipifera Leaves Dropping (Early) 39.218870000000000 -76.069000000000000 59716
Tue Nov 10 00:00:00 GMT 2015 robinv1_Washington_College_reporter34 Tulip poplar Liriodendron tulipifera Flowers (None) 39.218870000000000 -76.069000000000000 59717
Tue Nov 10 00:00:00 GMT 2015 robinv1_Washington_College_reporter34 Tulip poplar Liriodendron tulipifera Fruit (None) 39.218870000000000 -76.069000000000000 59718
Tue Nov 17 00:00:00 GMT 2015 robinv1_Washington_College_reporter34 Tulip poplar Liriodendron tulipifera Leaves Unfolding (None) 39.218870000000000 -76.069000000000000 59719
Tue Nov 17 00:00:00 GMT 2015 robinv1_Washington_College_reporter34 Tulip poplar Liriodendron tulipifera Leaves Changing Color (Middle) 39.218870000000000 -76.069000000000000 59720
Tue Nov 17 00:00:00 GMT 2015 robinv1_Washington_College_reporter34 Tulip poplar Liriodendron tulipifera Leaves Dropping (Middle) 39.218870000000000 -76.069000000000000 59721
Tue Nov 17 00:00:00 GMT 2015 robinv1_Washington_College_reporter34 Tulip poplar Liriodendron tulipifera Flowers (None) 39.218870000000000 -76.069000000000000 59722
Tue Nov 17 00:00:00 GMT 2015 robinv1_Washington_College_reporter34 Tulip poplar Liriodendron tulipifera Fruit (None) 39.218870000000000 -76.069000000000000 59723
Tue Dec 01 00:00:00 GMT 2015 robinv1_Washington_College_reporter34 Tulip poplar Liriodendron tulipifera Leaves Unfolding (None) 39.218870000000000 -76.069000000000000 59724
Tue Dec 01 00:00:00 GMT 2015 robinv1_Washington_College_reporter34 Tulip poplar Liriodendron tulipifera Leaves Changing Color (Late) 39.218870000000000 -76.069000000000000 59725
Tue Dec 01 00:00:00 GMT 2015 robinv1_Washington_College_reporter34 Tulip poplar Liriodendron tulipifera Leaves Dropping (Late) 39.218870000000000 -76.069000000000000 59726
Tue Dec 01 00:00:00 GMT 2015 robinv1_Washington_College_reporter34 Tulip poplar Liriodendron tulipifera Flowers (None) 39.218870000000000 -76.069000000000000 59727
Tue Dec 01 00:00:00 GMT 2015 robinv1_Washington_College_reporter34 Tulip poplar Liriodendron tulipifera Fruit (None) 39.218870000000000 -76.069000000000000 59728
Tue Oct 06 00:00:00 GMT 2015 robinv1_Washington_College_reporter60 Tulip poplar Liriodendron tulipifera Leaves Unfolding (Late) 40.000000000000000 -100.000000000000000 59973
Tue Oct 06 00:00:00 GMT 2015 robinv1_Washington_College_reporter60 Tulip poplar Liriodendron tulipifera Leaves Changing Color (Middle) 40.000000000000000 -100.000000000000000 59974
Tue Oct 06 00:00:00 GMT 2015 robinv1_Washington_College_reporter60 Tulip poplar Liriodendron tulipifera Leaves Dropping (Early) 40.000000000000000 -100.000000000000000 59975
Tue Oct 06 00:00:00 GMT 2015 robinv1_Washington_College_reporter60 Tulip poplar Liriodendron tulipifera Flowers (None) 40.000000000000000 -100.000000000000000 59976
Tue Oct 06 00:00:00 GMT 2015 robinv1_Washington_College_reporter60 Tulip poplar Liriodendron tulipifera Fruit (None) 40.000000000000000 -100.000000000000000 59977
Mon Oct 12 00:00:00 GMT 2015 robinv1_Washington_College_reporter60 Tulip poplar Liriodendron tulipifera Leaves Unfolding (Late) 40.000000000000000 -100.000000000000000 59983
Mon Oct 12 00:00:00 GMT 2015 robinv1_Washington_College_reporter60 Tulip poplar Liriodendron tulipifera Leaves Changing Color (Middle) 40.000000000000000 -100.000000000000000 59984
Mon Oct 12 00:00:00 GMT 2015 robinv1_Washington_College_reporter60 Tulip poplar Liriodendron tulipifera Leaves Dropping (Middle) 40.000000000000000 -100.000000000000000 59985
Mon Oct 12 00:00:00 GMT 2015 robinv1_Washington_College_reporter60 Tulip poplar Liriodendron tulipifera Flowers (None) 40.000000000000000 -100.000000000000000 59986
Mon Oct 12 00:00:00 GMT 2015 robinv1_Washington_College_reporter60 Tulip poplar Liriodendron tulipifera Fruit (None) 40.000000000000000 -100.000000000000000 59987
Tue Oct 20 00:00:00 GMT 2015 robinv1_Washington_College_reporter60 Tulip poplar Liriodendron tulipifera Leaves Unfolding (Late) 40.000000000000000 -100.000000000000000 60013
Tue Oct 20 00:00:00 GMT 2015 robinv1_Washington_College_reporter60 Tulip poplar Liriodendron tulipifera Leaves Changing Color (Middle) 40.000000000000000 -100.000000000000000 60014
Tue Oct 20 00:00:00 GMT 2015 robinv1_Washington_College_reporter60 Tulip poplar Liriodendron tulipifera Leaves Dropping (Middle) 40.000000000000000 -100.000000000000000 60015
Tue Oct 20 00:00:00 GMT 2015 robinv1_Washington_College_reporter60 Tulip poplar Liriodendron tulipifera Flowers (None) 40.000000000000000 -100.000000000000000 60016
Tue Oct 20 00:00:00 GMT 2015 robinv1_Washington_College_reporter60 Tulip poplar Liriodendron tulipifera Fruit (None) 40.000000000000000 -100.000000000000000 60017
Tue Oct 27 00:00:00 GMT 2015 robinv1_Washington_College_reporter60 Tulip poplar Liriodendron tulipifera Leaves Unfolding (Late) 40.000000000000000 -100.000000000000000 60028
Tue Oct 27 00:00:00 GMT 2015 robinv1_Washington_College_reporter60 Tulip poplar Liriodendron tulipifera Leaves Changing Color (Middle) 40.000000000000000 -100.000000000000000 60029
Tue Oct 27 00:00:00 GMT 2015 robinv1_Washington_College_reporter60 Tulip poplar Liriodendron tulipifera Leaves Dropping (Middle) 40.000000000000000 -100.000000000000000 60030
Tue Oct 27 00:00:00 GMT 2015 robinv1_Washington_College_reporter60 Tulip poplar Liriodendron tulipifera Flowers (None) 40.000000000000000 -100.000000000000000 60031
Tue Oct 27 00:00:00 GMT 2015 robinv1_Washington_College_reporter60 Tulip poplar Liriodendron tulipifera Fruit (None) 40.000000000000000 -100.000000000000000 60032
Thu Nov 05 00:00:00 GMT 2015 robinv1_Washington_College_reporter60 Tulip poplar Liriodendron tulipifera Leaves Unfolding (Late) 40.000000000000000 -100.000000000000000 60038
Thu Nov 05 00:00:00 GMT 2015 robinv1_Washington_College_reporter60 Tulip poplar Liriodendron tulipifera Leaves Changing Color (Middle) 40.000000000000000 -100.000000000000000 60039
Thu Nov 05 00:00:00 GMT 2015 robinv1_Washington_College_reporter60 Tulip poplar Liriodendron tulipifera Leaves Dropping (Middle) 40.000000000000000 -100.000000000000000 60040
Thu Nov 05 00:00:00 GMT 2015 robinv1_Washington_College_reporter60 Tulip poplar Liriodendron tulipifera Flowers (None) 40.000000000000000 -100.000000000000000 60041
Thu Nov 05 00:00:00 GMT 2015 robinv1_Washington_College_reporter60 Tulip poplar Liriodendron tulipifera Fruit (None) 40.000000000000000 -100.000000000000000 60042
Fri Nov 13 00:00:00 GMT 2015 robinv1_Washington_College_reporter60 Tulip poplar Liriodendron tulipifera Leaves Unfolding (Late) 40.000000000000000 -100.000000000000000 60048
Fri Nov 13 00:00:00 GMT 2015 robinv1_Washington_College_reporter60 Tulip poplar Liriodendron tulipifera Leaves Changing Color (Late) 40.000000000000000 -100.000000000000000 60049
Fri Nov 13 00:00:00 GMT 2015 robinv1_Washington_College_reporter60 Tulip poplar Liriodendron tulipifera Leaves Dropping (Middle) 40.000000000000000 -100.000000000000000 60050
Fri Nov 13 00:00:00 GMT 2015 robinv1_Washington_College_reporter60 Tulip poplar Liriodendron tulipifera Flowers (None) 40.000000000000000 -100.000000000000000 60051
Fri Nov 13 00:00:00 GMT 2015 robinv1_Washington_College_reporter60 Tulip poplar Liriodendron tulipifera Fruit (None) 40.000000000000000 -100.000000000000000 60052
Mon Nov 16 00:00:00 GMT 2015 robinv1_Washington_College_reporter60 Tulip poplar Liriodendron tulipifera Leaves Unfolding (Late) 40.000000000000000 -100.000000000000000 60061
Mon Nov 16 00:00:00 GMT 2015 robinv1_Washington_College_reporter60 Tulip poplar Liriodendron tulipifera Leaves Changing Color (Late) 40.000000000000000 -100.000000000000000 60062
Mon Nov 16 00:00:00 GMT 2015 robinv1_Washington_College_reporter60 Tulip poplar Liriodendron tulipifera Leaves Dropping (Middle) 40.000000000000000 -100.000000000000000 60063
Mon Nov 16 00:00:00 GMT 2015 robinv1_Washington_College_reporter60 Tulip poplar Liriodendron tulipifera Flowers (None) 40.000000000000000 -100.000000000000000 60064
Mon Nov 16 00:00:00 GMT 2015 robinv1_Washington_College_reporter60 Tulip poplar Liriodendron tulipifera Fruit (None) 40.000000000000000 -100.000000000000000 60065
Sun Nov 29 00:00:00 GMT 2015 robinv1_Washington_College_reporter60 Tulip poplar Liriodendron tulipifera Leaves Unfolding (Late) 40.000000000000000 -100.000000000000000 60081
Sun Nov 29 00:00:00 GMT 2015 robinv1_Washington_College_reporter60 Tulip poplar Liriodendron tulipifera Leaves Changing Color (Late) 40.000000000000000 -100.000000000000000 60082
Sun Nov 29 00:00:00 GMT 2015 robinv1_Washington_College_reporter60 Tulip poplar Liriodendron tulipifera Leaves Dropping (Middle) 40.000000000000000 -100.000000000000000 60083
Sun Nov 29 00:00:00 GMT 2015 robinv1_Washington_College_reporter60 Tulip poplar Liriodendron tulipifera Flowers (None) 40.000000000000000 -100.000000000000000 60084
Sun Nov 29 00:00:00 GMT 2015 robinv1_Washington_College_reporter60 Tulip poplar Liriodendron tulipifera Fruit (None) 40.000000000000000 -100.000000000000000 60085
Sun Dec 06 00:00:00 GMT 2015 robinv1_Washington_College_reporter60 Tulip poplar Liriodendron tulipifera Leaves Unfolding (Late) 40.000000000000000 -100.000000000000000 60106
Sun Dec 06 00:00:00 GMT 2015 robinv1_Washington_College_reporter60 Tulip poplar Liriodendron tulipifera Leaves Changing Color (Late) 40.000000000000000 -100.000000000000000 60107
Sun Dec 06 00:00:00 GMT 2015 robinv1_Washington_College_reporter60 Tulip poplar Liriodendron tulipifera Leaves Dropping (Late) 40.000000000000000 -100.000000000000000 60108
Sun Dec 06 00:00:00 GMT 2015 robinv1_Washington_College_reporter60 Tulip poplar Liriodendron tulipifera Flowers (None) 40.000000000000000 -100.000000000000000 60109
Sun Dec 06 00:00:00 GMT 2015 robinv1_Washington_College_reporter60 Tulip poplar Liriodendron tulipifera Fruit (None) 40.000000000000000 -100.000000000000000 60110
Sun Oct 04 00:00:00 GMT 2015 robinv1_Washington_College_reporter62 Tulip poplar Liriodendron tulipifera Leaves Unfolding (Late) 39.217300000000000 -76.068650000000000 60631
Sun Oct 04 00:00:00 GMT 2015 robinv1_Washington_College_reporter62 Tulip poplar Liriodendron tulipifera Leaves Changing Color (None) 39.217300000000000 -76.068650000000000 60632
Sun Oct 04 00:00:00 GMT 2015 robinv1_Washington_College_reporter62 Tulip poplar Liriodendron tulipifera Leaves Dropping (None) 39.217300000000000 -76.068650000000000 60633
Sun Oct 04 00:00:00 GMT 2015 robinv1_Washington_College_reporter62 Tulip poplar Liriodendron tulipifera Flowers (None) 39.217300000000000 -76.068650000000000 60634
Sun Oct 04 00:00:00 GMT 2015 robinv1_Washington_College_reporter62 Tulip poplar Liriodendron tulipifera Fruit (None) 39.217300000000000 -76.068650000000000 60635
Sun Oct 11 00:00:00 GMT 2015 robinv1_Washington_College_reporter62 Tulip poplar Liriodendron tulipifera Leaves Unfolding (Late) 39.217300000000000 -76.068650000000000 60636
Sun Oct 11 00:00:00 GMT 2015 robinv1_Washington_College_reporter62 Tulip poplar Liriodendron tulipifera Leaves Changing Color (Early) 39.217300000000000 -76.068650000000000 60637
Sun Oct 11 00:00:00 GMT 2015 robinv1_Washington_College_reporter62 Tulip poplar Liriodendron tulipifera Leaves Dropping (None) 39.217300000000000 -76.068650000000000 60638
Sun Oct 11 00:00:00 GMT 2015 robinv1_Washington_College_reporter62 Tulip poplar Liriodendron tulipifera Flowers (None) 39.217300000000000 -76.068650000000000 60639
Sun Oct 11 00:00:00 GMT 2015 robinv1_Washington_College_reporter62 Tulip poplar Liriodendron tulipifera Fruit (None) 39.217300000000000 -76.068650000000000 60640
Sun Oct 18 00:00:00 GMT 2015 robinv1_Washington_College_reporter62 Tulip poplar Liriodendron tulipifera Leaves Unfolding (Late) 39.217300000000000 -76.068650000000000 60641
Sun Oct 18 00:00:00 GMT 2015 robinv1_Washington_College_reporter62 Tulip poplar Liriodendron tulipifera Leaves Changing Color (Early) 39.217300000000000 -76.068650000000000 60642
Sun Oct 18 00:00:00 GMT 2015 robinv1_Washington_College_reporter62 Tulip poplar Liriodendron tulipifera Leaves Dropping (Early) 39.217300000000000 -76.068650000000000 60643
Sun Oct 18 00:00:00 GMT 2015 robinv1_Washington_College_reporter62 Tulip poplar Liriodendron tulipifera Flowers (None) 39.217300000000000 -76.068650000000000 60644
Sun Oct 18 00:00:00 GMT 2015 robinv1_Washington_College_reporter62 Tulip poplar Liriodendron tulipifera Fruit (None) 39.217300000000000 -76.068650000000000 60645
Sun Oct 25 00:00:00 GMT 2015 robinv1_Washington_College_reporter62 Tulip poplar Liriodendron tulipifera Leaves Unfolding (Late) 39.217300000000000 -76.068650000000000 60646
Sun Oct 25 00:00:00 GMT 2015 robinv1_Washington_College_reporter62 Tulip poplar Liriodendron tulipifera Leaves Changing Color (Middle) 39.217300000000000 -76.068650000000000 60647
Sun Oct 25 00:00:00 GMT 2015 robinv1_Washington_College_reporter62 Tulip poplar Liriodendron tulipifera Leaves Dropping (Early) 39.217300000000000 -76.068650000000000 60648
Sun Oct 25 00:00:00 GMT 2015 robinv1_Washington_College_reporter62 Tulip poplar Liriodendron tulipifera Flowers (None) 39.217300000000000 -76.068650000000000 60649
Sun Oct 25 00:00:00 GMT 2015 robinv1_Washington_College_reporter62 Tulip poplar Liriodendron tulipifera Fruit (None) 39.217300000000000 -76.068650000000000 60650
Sun Nov 01 00:00:00 GMT 2015 robinv1_Washington_College_reporter62 Tulip poplar Liriodendron tulipifera Leaves Unfolding (Late) 39.217300000000000 -76.068650000000000 60651
Sun Nov 01 00:00:00 GMT 2015 robinv1_Washington_College_reporter62 Tulip poplar Liriodendron tulipifera Leaves Changing Color (Middle) 39.217300000000000 -76.068650000000000 60652
Sun Nov 01 00:00:00 GMT 2015 robinv1_Washington_College_reporter62 Tulip poplar Liriodendron tulipifera Leaves Dropping (Middle) 39.217300000000000 -76.068650000000000 60653
Sun Nov 01 00:00:00 GMT 2015 robinv1_Washington_College_reporter62 Tulip poplar Liriodendron tulipifera Flowers (Middle) 39.217300000000000 -76.068650000000000 60654
Sun Nov 01 00:00:00 GMT 2015 robinv1_Washington_College_reporter62 Tulip poplar Liriodendron tulipifera Fruit (None) 39.217300000000000 -76.068650000000000 60655
Sun Nov 08 00:00:00 GMT 2015 robinv1_Washington_College_reporter62 Tulip poplar Liriodendron tulipifera Leaves Unfolding (Middle) 39.217300000000000 -76.068650000000000 60656
Sun Nov 08 00:00:00 GMT 2015 robinv1_Washington_College_reporter62 Tulip poplar Liriodendron tulipifera Leaves Changing Color (Middle) 39.217300000000000 -76.068650000000000 60657
Sun Nov 08 00:00:00 GMT 2015 robinv1_Washington_College_reporter62 Tulip poplar Liriodendron tulipifera Leaves Dropping (Middle) 39.217300000000000 -76.068650000000000 60658
Sun Nov 08 00:00:00 GMT 2015 robinv1_Washington_College_reporter62 Tulip poplar Liriodendron tulipifera Flowers (None) 39.217300000000000 -76.068650000000000 60659
Sun Nov 08 00:00:00 GMT 2015 robinv1_Washington_College_reporter62 Tulip poplar Liriodendron tulipifera Fruit (None) 39.217300000000000 -76.068650000000000 60660
Sun Dec 06 00:00:00 GMT 2015 robinv1_Washington_College_reporter62 Tulip poplar Liriodendron tulipifera Leaves Unfolding (None) 39.217300000000000 -76.068650000000000 60661
Sun Dec 06 00:00:00 GMT 2015 robinv1_Washington_College_reporter62 Tulip poplar Liriodendron tulipifera Leaves Changing Color (Late) 39.217300000000000 -76.068650000000000 60662
Sun Dec 06 00:00:00 GMT 2015 robinv1_Washington_College_reporter62 Tulip poplar Liriodendron tulipifera Leaves Dropping (Late) 39.217300000000000 -76.068650000000000 60663
Sun Dec 06 00:00:00 GMT 2015 robinv1_Washington_College_reporter62 Tulip poplar Liriodendron tulipifera Flowers (None) 39.217300000000000 -76.068650000000000 60664
Sun Dec 06 00:00:00 GMT 2015 robinv1_Washington_College_reporter62 Tulip poplar Liriodendron tulipifera Fruit (None) 39.217300000000000 -76.068650000000000 60665
Fri Nov 13 00:00:00 GMT 2015 TremontBudBurst Tulip poplar Liriodendron tulipifera Leaves Unfolding (None) 35.639944000000000 -83.689089000000000 61277
Fri Nov 13 00:00:00 GMT 2015 TremontBudBurst Tulip poplar Liriodendron tulipifera Leaves Changing Color (Late) 35.639944000000000 -83.689089000000000 61278
Fri Nov 13 00:00:00 GMT 2015 TremontBudBurst Tulip poplar Liriodendron tulipifera Leaves Dropping (Late) 35.639944000000000 -83.689089000000000 61279
Fri Nov 13 00:00:00 GMT 2015 TremontBudBurst Tulip poplar Liriodendron tulipifera Flowers (None) 35.639944000000000 -83.689089000000000 61280
Fri Nov 13 00:00:00 GMT 2015 TremontBudBurst Tulip poplar Liriodendron tulipifera Fruit (Middle) 35.639944000000000 -83.689089000000000 61281
Fri Nov 11 00:00:00 GMT 2016 jrseck4 Tulip poplar Liriodendron tulipifera 50% Leaf Fall 33.983083000000000 -84.384044000000000 74490
Fri Feb 10 00:00:00 GMT 2017 pseevers Tulip poplar Liriodendron tulipifera Leaves Unfolding (None) 39.234563000000000 -84.592119000000000 74828
Fri Feb 10 00:00:00 GMT 2017 pseevers Tulip poplar Liriodendron tulipifera Leaves Changing Color (None) 39.234563000000000 -84.592119000000000 74829
Fri Feb 10 00:00:00 GMT 2017 pseevers Tulip poplar Liriodendron tulipifera Leaves Dropping (None) 39.234563000000000 -84.592119000000000 74830
Fri Feb 10 00:00:00 GMT 2017 pseevers Tulip poplar Liriodendron tulipifera Flowers (None) 39.234563000000000 -84.592119000000000 74831
Fri Feb 10 00:00:00 GMT 2017 pseevers Tulip poplar Liriodendron tulipifera Fruit (None) 39.234563000000000 -84.592119000000000 74832
Fri Feb 24 00:00:00 GMT 2017 gobrechj Tulip poplar Liriodendron tulipifera Leaves Unfolding (None) 39.879470000000000 -76.870890000000000 75041
Fri Feb 24 00:00:00 GMT 2017 gobrechj Tulip poplar Liriodendron tulipifera Leaves Changing Color (None) 39.879470000000000 -76.870890000000000 75042
Fri Feb 24 00:00:00 GMT 2017 gobrechj Tulip poplar Liriodendron tulipifera Leaves Dropping (Late) 39.879470000000000 -76.870890000000000 75043
Fri Feb 24 00:00:00 GMT 2017 gobrechj Tulip poplar Liriodendron tulipifera Flowers (Early) 39.879470000000000 -76.870890000000000 75044
Fri Feb 24 00:00:00 GMT 2017 gobrechj Tulip poplar Liriodendron tulipifera Fruit (None) 39.879470000000000 -76.870890000000000 75045
Wed Mar 08 00:00:00 GMT 2017 bthomps1 Tulip poplar Liriodendron tulipifera Bud Burst 38.195980000000000 -85.534280000000000 75253
Thu Feb 23 00:00:00 GMT 2017 CHABudburst Tulip poplar Liriodendron tulipifera Bud Burst 40.724580000000000 -74.328130000000000 75314
Mon Mar 20 00:00:00 GMT 2017 ojohnstone Tulip poplar Liriodendron tulipifera Leaves Unfolding (Early) 37.292310000000000 -85.950890000000000 75819
Mon Mar 20 00:00:00 GMT 2017 ojohnstone Tulip poplar Liriodendron tulipifera Leaves Changing Color (Early) 37.292310000000000 -85.950890000000000 75820
Mon Mar 20 00:00:00 GMT 2017 ojohnstone Tulip poplar Liriodendron tulipifera Leaves Dropping (None) 37.292310000000000 -85.950890000000000 75821
Mon Mar 20 00:00:00 GMT 2017 ojohnstone Tulip poplar Liriodendron tulipifera Flowers (None) 37.292310000000000 -85.950890000000000 75822
Mon Mar 20 00:00:00 GMT 2017 ojohnstone Tulip poplar Liriodendron tulipifera Fruit (None) 37.292310000000000 -85.950890000000000 75823
Mon Mar 20 00:00:00 GMT 2017 kayliebutler Tulip poplar Liriodendron tulipifera Leaves Unfolding (None) 37.292310000000000 -85.950890000000000 75864
Mon Mar 20 00:00:00 GMT 2017 kayliebutler Tulip poplar Liriodendron tulipifera Leaves Changing Color (None) 37.292310000000000 -85.950890000000000 75865
Mon Mar 20 00:00:00 GMT 2017 kayliebutler Tulip poplar Liriodendron tulipifera Leaves Dropping (None) 37.292310000000000 -85.950890000000000 75866
Mon Mar 20 00:00:00 GMT 2017 kayliebutler Tulip poplar Liriodendron tulipifera Flowers (Early) 37.292310000000000 -85.950890000000000 75867
Mon Mar 20 00:00:00 GMT 2017 kayliebutler Tulip poplar Liriodendron tulipifera Fruit (None) 37.292310000000000 -85.950890000000000 75868
Mon Mar 20 00:00:00 GMT 2017 Zasims Tulip poplar Liriodendron tulipifera Leaves Unfolding (None) 37.292310000000000 -85.950890000000000 75869
Mon Mar 20 00:00:00 GMT 2017 Zasims Tulip poplar Liriodendron tulipifera Leaves Changing Color (None) 37.292310000000000 -85.950890000000000 75870
Mon Mar 20 00:00:00 GMT 2017 Zasims Tulip poplar Liriodendron tulipifera Leaves Dropping (Late) 37.292310000000000 -85.950890000000000 75871
Mon Mar 20 00:00:00 GMT 2017 Zasims Tulip poplar Liriodendron tulipifera Flowers (None) 37.292310000000000 -85.950890000000000 75872
Mon Mar 20 00:00:00 GMT 2017 Zasims Tulip poplar Liriodendron tulipifera Fruit (None) 37.292310000000000 -85.950890000000000 75873
Mon Mar 20 00:00:00 GMT 2017 kenziebrooke2017 Tulip poplar Liriodendron tulipifera Leaves Unfolding (None) 37.259620000000000 -85.881670000000000 75874
Mon Mar 20 00:00:00 GMT 2017 kenziebrooke2017 Tulip poplar Liriodendron tulipifera Leaves Changing Color (None) 37.259620000000000 -85.881670000000000 75875
Mon Mar 20 00:00:00 GMT 2017 kenziebrooke2017 Tulip poplar Liriodendron tulipifera Leaves Dropping (None) 37.259620000000000 -85.881670000000000 75876
Mon Mar 20 00:00:00 GMT 2017 kenziebrooke2017 Tulip poplar Liriodendron tulipifera Flowers (None) 37.259620000000000 -85.881670000000000 75877
Mon Mar 20 00:00:00 GMT 2017 kenziebrooke2017 Tulip poplar Liriodendron tulipifera Fruit (None) 37.259620000000000 -85.881670000000000 75878
Mon Mar 20 00:00:00 GMT 2017 aaedwards Tulip poplar Liriodendron tulipifera Leaves Unfolding (None) 37.259620000000000 -85.881670000000000 75879
Mon Mar 20 00:00:00 GMT 2017 aaedwards Tulip poplar Liriodendron tulipifera Leaves Changing Color (None) 37.259620000000000 -85.881670000000000 75880
Mon Mar 20 00:00:00 GMT 2017 aaedwards Tulip poplar Liriodendron tulipifera Leaves Dropping (None) 37.259620000000000 -85.881670000000000 75881
Mon Mar 20 00:00:00 GMT 2017 aaedwards Tulip poplar Liriodendron tulipifera Flowers (None) 37.259620000000000 -85.881670000000000 75882
Mon Mar 20 00:00:00 GMT 2017 aaedwards Tulip poplar Liriodendron tulipifera Fruit (None) 37.259620000000000 -85.881670000000000 75883
Mon Mar 20 00:00:00 GMT 2017 desireehuff Tulip poplar Liriodendron tulipifera Leaves Unfolding (None) 37.259680000000000 -85.881480000000000 75889
Mon Mar 20 00:00:00 GMT 2017 desireehuff Tulip poplar Liriodendron tulipifera Leaves Changing Color (None) 37.259680000000000 -85.881480000000000 75890
Mon Mar 20 00:00:00 GMT 2017 desireehuff Tulip poplar Liriodendron tulipifera Leaves Dropping (Late) 37.259680000000000 -85.881480000000000 75891
Mon Mar 20 00:00:00 GMT 2017 desireehuff Tulip poplar Liriodendron tulipifera Flowers (None) 37.259680000000000 -85.881480000000000 75892
Mon Mar 20 00:00:00 GMT 2017 desireehuff Tulip poplar Liriodendron tulipifera Fruit (None) 37.259680000000000 -85.881480000000000 75893
Mon Mar 20 00:00:00 GMT 2017 clinton10179 Tulip poplar Liriodendron tulipifera Leaves Unfolding (None) 37.272280000000000 -85.891080000000000 75894
Mon Mar 20 00:00:00 GMT 2017 clinton10179 Tulip poplar Liriodendron tulipifera Leaves Changing Color (None) 37.272280000000000 -85.891080000000000 75895
Mon Mar 20 00:00:00 GMT 2017 clinton10179 Tulip poplar Liriodendron tulipifera Leaves Dropping (None) 37.272280000000000 -85.891080000000000 75896
Mon Mar 20 00:00:00 GMT 2017 clinton10179 Tulip poplar Liriodendron tulipifera Flowers (None) 37.272280000000000 -85.891080000000000 75897
Mon Mar 20 00:00:00 GMT 2017 clinton10179 Tulip poplar Liriodendron tulipifera Fruit (None) 37.272280000000000 -85.891080000000000 75898
Mon Mar 20 00:00:00 GMT 2017 jacoblobb Tulip poplar Liriodendron tulipifera Leaves Unfolding (None) 37.257386000000000 -85.879354000000000 75899
Mon Mar 20 00:00:00 GMT 2017 jacoblobb Tulip poplar Liriodendron tulipifera Leaves Changing Color (None) 37.257386000000000 -85.879354000000000 75900
Mon Mar 20 00:00:00 GMT 2017 jacoblobb Tulip poplar Liriodendron tulipifera Leaves Dropping (None) 37.257386000000000 -85.879354000000000 75901
Mon Mar 20 00:00:00 GMT 2017 jacoblobb Tulip poplar Liriodendron tulipifera Flowers (None) 37.257386000000000 -85.879354000000000 75902
Mon Mar 20 00:00:00 GMT 2017 jacoblobb Tulip poplar Liriodendron tulipifera Fruit (None) 37.257386000000000 -85.879354000000000 75903
Mon Mar 20 00:00:00 GMT 2017 kalebtrent Tulip poplar Liriodendron tulipifera Leaves Unfolding (None) 37.272280000000000 -85.891080000000000 75904
Mon Mar 20 00:00:00 GMT 2017 kalebtrent Tulip poplar Liriodendron tulipifera Leaves Changing Color (None) 37.272280000000000 -85.891080000000000 75905
Mon Mar 20 00:00:00 GMT 2017 kalebtrent Tulip poplar Liriodendron tulipifera Leaves Dropping (Late) 37.272280000000000 -85.891080000000000 75906
Mon Mar 20 00:00:00 GMT 2017 kalebtrent Tulip poplar Liriodendron tulipifera Flowers (Early) 37.272280000000000 -85.891080000000000 75907
Mon Mar 20 00:00:00 GMT 2017 kalebtrent Tulip poplar Liriodendron tulipifera Fruit (None) 37.272280000000000 -85.891080000000000 75908
Mon Mar 20 00:00:00 GMT 2017 jinseystinson Tulip poplar Liriodendron tulipifera Leaves Unfolding (Early) 37.272280000000000 -85.891080000000000 75909
Mon Mar 20 00:00:00 GMT 2017 jinseystinson Tulip poplar Liriodendron tulipifera Leaves Changing Color (None) 37.272280000000000 -85.891080000000000 75910
Mon Mar 20 00:00:00 GMT 2017 jinseystinson Tulip poplar Liriodendron tulipifera Leaves Dropping (None) 37.272280000000000 -85.891080000000000 75911
Mon Mar 20 00:00:00 GMT 2017 jinseystinson Tulip poplar Liriodendron tulipifera Flowers (None) 37.272280000000000 -85.891080000000000 75912
Mon Mar 20 00:00:00 GMT 2017 jinseystinson Tulip poplar Liriodendron tulipifera Fruit (None) 37.272280000000000 -85.891080000000000 75913
Mon Mar 20 00:00:00 GMT 2017 GoldenBadgeStudios Tulip poplar Liriodendron tulipifera Leaves Unfolding (Early) 37.258877000000000 -85.882446000000000 75914
Mon Mar 20 00:00:00 GMT 2017 GoldenBadgeStudios Tulip poplar Liriodendron tulipifera Leaves Changing Color (None) 37.258877000000000 -85.882446000000000 75915
Mon Mar 20 00:00:00 GMT 2017 GoldenBadgeStudios Tulip poplar Liriodendron tulipifera Leaves Dropping (None) 37.258877000000000 -85.882446000000000 75916
Mon Mar 20 00:00:00 GMT 2017 GoldenBadgeStudios Tulip poplar Liriodendron tulipifera Flowers (None) 37.258877000000000 -85.882446000000000 75917
Mon Mar 20 00:00:00 GMT 2017 GoldenBadgeStudios Tulip poplar Liriodendron tulipifera Fruit (None) 37.258877000000000 -85.882446000000000 75918
Mon Mar 20 00:00:00 GMT 2017 CHatch22 Tulip poplar Liriodendron tulipifera Leaves Unfolding (Early) 37.259620000000000 -85.881670000000000 75919
Mon Mar 20 00:00:00 GMT 2017 CHatch22 Tulip poplar Liriodendron tulipifera Leaves Changing Color (None) 37.259620000000000 -85.881670000000000 75920
Mon Mar 20 00:00:00 GMT 2017 CHatch22 Tulip poplar Liriodendron tulipifera Leaves Dropping (None) 37.259620000000000 -85.881670000000000 75921
Mon Mar 20 00:00:00 GMT 2017 CHatch22 Tulip poplar Liriodendron tulipifera Flowers (None) 37.259620000000000 -85.881670000000000 75922
Mon Mar 20 00:00:00 GMT 2017 CHatch22 Tulip poplar Liriodendron tulipifera Fruit (None) 37.259620000000000 -85.881670000000000 75923
Mon Mar 20 00:00:00 GMT 2017 TheMcButter Tulip poplar Liriodendron tulipifera Leaves Unfolding (Early) 37.259523000000000 -85.881309000000000 75924
Mon Mar 20 00:00:00 GMT 2017 TheMcButter Tulip poplar Liriodendron tulipifera Leaves Changing Color (None) 37.259523000000000 -85.881309000000000 75925
Mon Mar 20 00:00:00 GMT 2017 TheMcButter Tulip poplar Liriodendron tulipifera Leaves Dropping (None) 37.259523000000000 -85.881309000000000 75926
Mon Mar 20 00:00:00 GMT 2017 TheMcButter Tulip poplar Liriodendron tulipifera Flowers (None) 37.259523000000000 -85.881309000000000 75927
Mon Mar 20 00:00:00 GMT 2017 TheMcButter Tulip poplar Liriodendron tulipifera Fruit (None) 37.259523000000000 -85.881309000000000 75928
Mon Mar 20 00:00:00 GMT 2017 mollyjean083 Tulip poplar Liriodendron tulipifera Leaves Unfolding (None) 37.259680000000000 -85.881480000000000 75934
Mon Mar 20 00:00:00 GMT 2017 mollyjean083 Tulip poplar Liriodendron tulipifera Leaves Changing Color (None) 37.259680000000000 -85.881480000000000 75935
Mon Mar 20 00:00:00 GMT 2017 mollyjean083 Tulip poplar Liriodendron tulipifera Leaves Dropping (None) 37.259680000000000 -85.881480000000000 75936
Mon Mar 20 00:00:00 GMT 2017 mollyjean083 Tulip poplar Liriodendron tulipifera Flowers (Early) 37.259680000000000 -85.881480000000000 75937
Mon Mar 20 00:00:00 GMT 2017 mollyjean083 Tulip poplar Liriodendron tulipifera Fruit (Early) 37.259680000000000 -85.881480000000000 75938
Mon Mar 20 00:00:00 GMT 2017 Mshrader Tulip poplar Liriodendron tulipifera Leaves Unfolding (None) 37.259094000000000 -85.881886000000000 75993
Mon Mar 20 00:00:00 GMT 2017 Mshrader Tulip poplar Liriodendron tulipifera Leaves Changing Color (None) 37.259094000000000 -85.881886000000000 75994
Mon Mar 20 00:00:00 GMT 2017 Mshrader Tulip poplar Liriodendron tulipifera Leaves Dropping (None) 37.259094000000000 -85.881886000000000 75995
Mon Mar 20 00:00:00 GMT 2017 Mshrader Tulip poplar Liriodendron tulipifera Flowers (None) 37.259094000000000 -85.881886000000000 75996
Mon Mar 20 00:00:00 GMT 2017 Mshrader Tulip poplar Liriodendron tulipifera Fruit (None) 37.259094000000000 -85.881886000000000 75997
Fri Mar 24 00:00:00 GMT 2017 Zasims Tulip poplar Liriodendron tulipifera Leaves Unfolding (Late) 37.292310000000000 -85.950890000000000 76232
Fri Mar 24 00:00:00 GMT 2017 Zasims Tulip poplar Liriodendron tulipifera Leaves Changing Color (None) 37.292310000000000 -85.950890000000000 76233
Fri Mar 24 00:00:00 GMT 2017 Zasims Tulip poplar Liriodendron tulipifera Leaves Dropping (Late) 37.292310000000000 -85.950890000000000 76234
Fri Mar 24 00:00:00 GMT 2017 Zasims Tulip poplar Liriodendron tulipifera Flowers (Early) 37.292310000000000 -85.950890000000000 76235
Fri Mar 24 00:00:00 GMT 2017 Zasims Tulip poplar Liriodendron tulipifera Fruit (None) 37.292310000000000 -85.950890000000000 76236
Fri Mar 24 00:00:00 GMT 2017 kayliebutler Tulip poplar Liriodendron tulipifera Leaves Unfolding (Early) 37.292310000000000 -85.950890000000000 76237
Fri Mar 24 00:00:00 GMT 2017 kayliebutler Tulip poplar Liriodendron tulipifera Leaves Changing Color (None) 37.292310000000000 -85.950890000000000 76238
Fri Mar 24 00:00:00 GMT 2017 kayliebutler Tulip poplar Liriodendron tulipifera Leaves Dropping (None) 37.292310000000000 -85.950890000000000 76239
Fri Mar 24 00:00:00 GMT 2017 kayliebutler Tulip poplar Liriodendron tulipifera Flowers (Early) 37.292310000000000 -85.950890000000000 76240
Fri Mar 24 00:00:00 GMT 2017 kayliebutler Tulip poplar Liriodendron tulipifera Fruit (None) 37.292310000000000 -85.950890000000000 76241
Fri Mar 24 00:00:00 GMT 2017 mollyjean083 Tulip poplar Liriodendron tulipifera Leaves Unfolding (None) 37.259680000000000 -85.881480000000000 76242
Fri Mar 24 00:00:00 GMT 2017 mollyjean083 Tulip poplar Liriodendron tulipifera Leaves Changing Color (None) 37.259680000000000 -85.881480000000000 76243
Fri Mar 24 00:00:00 GMT 2017 mollyjean083 Tulip poplar Liriodendron tulipifera Leaves Dropping (None) 37.259680000000000 -85.881480000000000 76244
Fri Mar 24 00:00:00 GMT 2017 mollyjean083 Tulip poplar Liriodendron tulipifera Flowers (Early) 37.259680000000000 -85.881480000000000 76245
Fri Mar 24 00:00:00 GMT 2017 mollyjean083 Tulip poplar Liriodendron tulipifera Fruit (Early) 37.259680000000000 -85.881480000000000 76246
Fri Mar 24 00:00:00 GMT 2017 jinseystinson Tulip poplar Liriodendron tulipifera Leaves Unfolding (Early) 37.292310000000000 -85.950890000000000 76259
Fri Mar 24 00:00:00 GMT 2017 jinseystinson Tulip poplar Liriodendron tulipifera Leaves Changing Color (None) 37.292310000000000 -85.950890000000000 76260
Fri Mar 24 00:00:00 GMT 2017 jinseystinson Tulip poplar Liriodendron tulipifera Leaves Dropping (None) 37.292310000000000 -85.950890000000000 76261
Fri Mar 24 00:00:00 GMT 2017 jinseystinson Tulip poplar Liriodendron tulipifera Flowers (None) 37.292310000000000 -85.950890000000000 76262
Fri Mar 24 00:00:00 GMT 2017 jinseystinson Tulip poplar Liriodendron tulipifera Fruit (None) 37.292310000000000 -85.950890000000000 76263
Fri Mar 24 00:00:00 GMT 2017 kalebtrent Tulip poplar Liriodendron tulipifera Leaves Unfolding (Early) 40.000000000000000 -100.000000000000000 76281
Fri Mar 24 00:00:00 GMT 2017 kalebtrent Tulip poplar Liriodendron tulipifera Leaves Changing Color (None) 40.000000000000000 -100.000000000000000 76282
Fri Mar 24 00:00:00 GMT 2017 kalebtrent Tulip poplar Liriodendron tulipifera Leaves Dropping (None) 40.000000000000000 -100.000000000000000 76283
Fri Mar 24 00:00:00 GMT 2017 aaedwards Tulip poplar Liriodendron tulipifera Leaves Unfolding (Early) 37.259620000000000 -85.881670000000000 76284
Fri Mar 24 00:00:00 GMT 2017 kalebtrent Tulip poplar Liriodendron tulipifera Flowers (Early) 40.000000000000000 -100.000000000000000 76285
Fri Mar 24 00:00:00 GMT 2017 aaedwards Tulip poplar Liriodendron tulipifera Leaves Changing Color (None) 37.259620000000000 -85.881670000000000 76286
Fri Mar 24 00:00:00 GMT 2017 kalebtrent Tulip poplar Liriodendron tulipifera Fruit (None) 40.000000000000000 -100.000000000000000 76287
Fri Mar 24 00:00:00 GMT 2017 aaedwards Tulip poplar Liriodendron tulipifera Leaves Dropping (None) 37.259620000000000 -85.881670000000000 76288
Fri Mar 24 00:00:00 GMT 2017 aaedwards Tulip poplar Liriodendron tulipifera Flowers (None) 37.259620000000000 -85.881670000000000 76289
Fri Mar 24 00:00:00 GMT 2017 aaedwards Tulip poplar Liriodendron tulipifera Fruit (None) 37.259620000000000 -85.881670000000000 76290
Fri Mar 24 00:00:00 GMT 2017 desireehuff Tulip poplar Liriodendron tulipifera Leaves Unfolding (Early) 37.259680000000000 -85.881480000000000 76291
Fri Mar 24 00:00:00 GMT 2017 desireehuff Tulip poplar Liriodendron tulipifera Leaves Changing Color (None) 37.259680000000000 -85.881480000000000 76292
Fri Mar 24 00:00:00 GMT 2017 desireehuff Tulip poplar Liriodendron tulipifera Leaves Dropping (None) 37.259680000000000 -85.881480000000000 76293
Fri Mar 24 00:00:00 GMT 2017 desireehuff Tulip poplar Liriodendron tulipifera Flowers (None) 37.259680000000000 -85.881480000000000 76294
Fri Mar 24 00:00:00 GMT 2017 desireehuff Tulip poplar Liriodendron tulipifera Fruit (None) 37.259680000000000 -85.881480000000000 76295
Fri Mar 24 00:00:00 GMT 2017 GoldenBadgeStudios Tulip poplar Liriodendron tulipifera Leaves Unfolding (Early) 37.258918000000000 -85.882328000000000 76301
Fri Mar 24 00:00:00 GMT 2017 GoldenBadgeStudios Tulip poplar Liriodendron tulipifera Leaves Changing Color (None) 37.258918000000000 -85.882328000000000 76302
Fri Mar 24 00:00:00 GMT 2017 GoldenBadgeStudios Tulip poplar Liriodendron tulipifera Leaves Dropping (None) 37.258918000000000 -85.882328000000000 76303
Fri Mar 24 00:00:00 GMT 2017 GoldenBadgeStudios Tulip poplar Liriodendron tulipifera Flowers (None) 37.258918000000000 -85.882328000000000 76304
Fri Mar 24 00:00:00 GMT 2017 GoldenBadgeStudios Tulip poplar Liriodendron tulipifera Fruit (None) 37.258918000000000 -85.882328000000000 76305
Fri Mar 24 00:00:00 GMT 2017 CHatch22 Tulip poplar Liriodendron tulipifera Leaves Unfolding (Early) 37.263363000000000 -85.878711000000000 76306
Fri Mar 24 00:00:00 GMT 2017 CHatch22 Tulip poplar Liriodendron tulipifera Leaves Changing Color (None) 37.263363000000000 -85.878711000000000 76307
Fri Mar 24 00:00:00 GMT 2017 CHatch22 Tulip poplar Liriodendron tulipifera Leaves Dropping (None) 37.263363000000000 -85.878711000000000 76308
Fri Mar 24 00:00:00 GMT 2017 CHatch22 Tulip poplar Liriodendron tulipifera Flowers (None) 37.263363000000000 -85.878711000000000 76309
Fri Mar 24 00:00:00 GMT 2017 CHatch22 Tulip poplar Liriodendron tulipifera Fruit (None) 37.263363000000000 -85.878711000000000 76310
Fri Mar 24 00:00:00 GMT 2017 Mshrader Tulip poplar Liriodendron tulipifera Leaves Unfolding (None) 37.259025000000000 -85.882316000000000 76361
Fri Mar 24 00:00:00 GMT 2017 Mshrader Tulip poplar Liriodendron tulipifera Leaves Changing Color (None) 37.259025000000000 -85.882316000000000 76362
Fri Mar 24 00:00:00 GMT 2017 Mshrader Tulip poplar Liriodendron tulipifera Leaves Dropping (None) 37.259025000000000 -85.882316000000000 76363
Fri Mar 24 00:00:00 GMT 2017 Mshrader Tulip poplar Liriodendron tulipifera Flowers (None) 37.259025000000000 -85.882316000000000 76364
Fri Mar 24 00:00:00 GMT 2017 Mshrader Tulip poplar Liriodendron tulipifera Fruit (None) 37.259025000000000 -85.882316000000000 76365

*All downloadable materials require the free Adobe Reader.